<?xml version="1.0" encoding="UTF-8" standalone="no" ?>
<gpx xmlns="http://www.topografix.com/GPX/1/1" xmlns:xsi="http://www.w3.org/2001/XMLSchema-instance" xsi:schemaLocation="http://www.topografix.com/GPX/1/1 http://www.topografix.com/GPX/1/1/gpx.xsd" version="1.1" creator="VisuGPX - https://www.visugpx.com">
  <metadata>
    <name>Longes - Ste Croix-en-Jarez</name>
    <desc><![CDATA[Circuit en boucle depuis Longes (Parc régional du Pilat)]]></desc>
  </metadata>
  <trk>
    <name><![CDATA[13-AVR-13 17:20:10]]></name>
    <trkseg>
      <trkpt lat="45.50549" lon="4.68788">
        <ele>428.4</ele>
        <time>2013-04-13T12:36:54Z</time>
      </trkpt>
      <trkpt lat="45.50549" lon="4.68787">
        <ele>428.4</ele>
        <time>2013-04-13T12:36:55Z</time>
      </trkpt>
      <trkpt lat="45.50549" lon="4.68787">
        <ele>426.96</ele>
        <time>2013-04-13T12:36:58Z</time>
      </trkpt>
      <trkpt lat="45.50549" lon="4.68787">
        <ele>433.21</ele>
        <time>2013-04-13T12:37:00Z</time>
      </trkpt>
      <trkpt lat="45.50549" lon="4.68787">
        <ele>433.21</ele>
        <time>2013-04-13T12:37:01Z</time>
      </trkpt>
      <trkpt lat="45.50549" lon="4.68787">
        <ele>522.61</ele>
        <time>2013-04-13T12:37:03Z</time>
      </trkpt>
      <trkpt lat="45.50549" lon="4.68787">
        <ele>522.61</ele>
        <time>2013-04-13T12:37:04Z</time>
      </trkpt>
      <trkpt lat="45.50549" lon="4.68787">
        <ele>450.03</ele>
        <time>2013-04-13T12:37:08Z</time>
      </trkpt>
      <trkpt lat="45.50548" lon="4.68788">
        <ele>446.67</ele>
        <time>2013-04-13T12:37:17Z</time>
      </trkpt>
      <trkpt lat="45.50548" lon="4.68787">
        <ele>453.88</ele>
        <time>2013-04-13T12:37:19Z</time>
      </trkpt>
      <trkpt lat="45.50547" lon="4.68787">
        <ele>449.55</ele>
        <time>2013-04-13T12:37:20Z</time>
      </trkpt>
      <trkpt lat="45.50546" lon="4.68783">
        <ele>449.07</ele>
        <time>2013-04-13T12:37:47Z</time>
      </trkpt>
      <trkpt lat="45.50545" lon="4.68787">
        <ele>449.07</ele>
        <time>2013-04-13T12:37:59Z</time>
      </trkpt>
      <trkpt lat="45.50542" lon="4.68784">
        <ele>449.07</ele>
        <time>2013-04-13T12:38:03Z</time>
      </trkpt>
      <trkpt lat="45.50539" lon="4.68776">
        <ele>448.59</ele>
        <time>2013-04-13T12:38:07Z</time>
      </trkpt>
      <trkpt lat="45.50529" lon="4.68771">
        <ele>450.52</ele>
        <time>2013-04-13T12:38:13Z</time>
      </trkpt>
      <trkpt lat="45.50528" lon="4.6877">
        <ele>449.07</ele>
        <time>2013-04-13T12:38:14Z</time>
      </trkpt>
      <trkpt lat="45.50528" lon="4.68767">
        <ele>449.07</ele>
        <time>2013-04-13T12:38:15Z</time>
      </trkpt>
      <trkpt lat="45.50528" lon="4.68764">
        <ele>448.59</ele>
        <time>2013-04-13T12:38:16Z</time>
      </trkpt>
      <trkpt lat="45.50524" lon="4.68731">
        <ele>448.11</ele>
        <time>2013-04-13T12:38:23Z</time>
      </trkpt>
      <trkpt lat="45.5052" lon="4.68719">
        <ele>448.11</ele>
        <time>2013-04-13T12:38:25Z</time>
      </trkpt>
      <trkpt lat="45.50497" lon="4.68658">
        <ele>445.23</ele>
        <time>2013-04-13T12:38:34Z</time>
      </trkpt>
      <trkpt lat="45.5046" lon="4.68614">
        <ele>441.86</ele>
        <time>2013-04-13T12:38:44Z</time>
      </trkpt>
      <trkpt lat="45.50457" lon="4.68609">
        <ele>441.38</ele>
        <time>2013-04-13T12:38:45Z</time>
      </trkpt>
      <trkpt lat="45.50453" lon="4.68602">
        <ele>440.9</ele>
        <time>2013-04-13T12:38:46Z</time>
      </trkpt>
      <trkpt lat="45.50447" lon="4.68585">
        <ele>439.46</ele>
        <time>2013-04-13T12:38:48Z</time>
      </trkpt>
      <trkpt lat="45.50444" lon="4.68575">
        <ele>438.5</ele>
        <time>2013-04-13T12:38:49Z</time>
      </trkpt>
      <trkpt lat="45.50443" lon="4.68564">
        <ele>438.02</ele>
        <time>2013-04-13T12:38:50Z</time>
      </trkpt>
      <trkpt lat="45.50444" lon="4.68552">
        <ele>437.06</ele>
        <time>2013-04-13T12:38:51Z</time>
      </trkpt>
      <trkpt lat="45.50446" lon="4.6854">
        <ele>436.1</ele>
        <time>2013-04-13T12:38:52Z</time>
      </trkpt>
      <trkpt lat="45.5046" lon="4.68469">
        <ele>433.21</ele>
        <time>2013-04-13T12:38:58Z</time>
      </trkpt>
      <trkpt lat="45.50461" lon="4.68458">
        <ele>432.25</ele>
        <time>2013-04-13T12:38:59Z</time>
      </trkpt>
      <trkpt lat="45.50461" lon="4.68447">
        <ele>432.25</ele>
        <time>2013-04-13T12:39:00Z</time>
      </trkpt>
      <trkpt lat="45.50447" lon="4.68357">
        <ele>429.37</ele>
        <time>2013-04-13T12:39:11Z</time>
      </trkpt>
      <trkpt lat="45.50432" lon="4.68314">
        <ele>427.44</ele>
        <time>2013-04-13T12:39:17Z</time>
      </trkpt>
      <trkpt lat="45.50429" lon="4.68308">
        <ele>426.96</ele>
        <time>2013-04-13T12:39:18Z</time>
      </trkpt>
      <trkpt lat="45.50415" lon="4.68281">
        <ele>425.52</ele>
        <time>2013-04-13T12:39:22Z</time>
      </trkpt>
      <trkpt lat="45.50393" lon="4.68247">
        <ele>421.68</ele>
        <time>2013-04-13T12:39:27Z</time>
      </trkpt>
      <trkpt lat="45.50374" lon="4.68217">
        <ele>418.79</ele>
        <time>2013-04-13T12:39:31Z</time>
      </trkpt>
      <trkpt lat="45.50371" lon="4.6821">
        <ele>417.83</ele>
        <time>2013-04-13T12:39:32Z</time>
      </trkpt>
      <trkpt lat="45.50368" lon="4.68203">
        <ele>418.31</ele>
        <time>2013-04-13T12:39:37Z</time>
      </trkpt>
      <trkpt lat="45.50366" lon="4.68202">
        <ele>417.83</ele>
        <time>2013-04-13T12:40:11Z</time>
      </trkpt>
      <trkpt lat="45.50367" lon="4.682">
        <ele>417.83</ele>
        <time>2013-04-13T12:40:48Z</time>
      </trkpt>
      <trkpt lat="45.50369" lon="4.68201">
        <ele>417.83</ele>
        <time>2013-04-13T12:41:06Z</time>
      </trkpt>
      <trkpt lat="45.50369" lon="4.68199">
        <ele>418.31</ele>
        <time>2013-04-13T12:41:07Z</time>
      </trkpt>
      <trkpt lat="45.50371" lon="4.68196">
        <ele>418.31</ele>
        <time>2013-04-13T12:41:08Z</time>
      </trkpt>
      <trkpt lat="45.50391" lon="4.68153">
        <ele>419.75</ele>
        <time>2013-04-13T12:41:20Z</time>
      </trkpt>
      <trkpt lat="45.50392" lon="4.68152">
        <ele>420.23</ele>
        <time>2013-04-13T12:41:30Z</time>
      </trkpt>
      <trkpt lat="45.50392" lon="4.6815">
        <ele>420.23</ele>
        <time>2013-04-13T12:41:44Z</time>
      </trkpt>
      <trkpt lat="45.50411" lon="4.68106">
        <ele>422.64</ele>
        <time>2013-04-13T12:41:56Z</time>
      </trkpt>
      <trkpt lat="45.50431" lon="4.68057">
        <ele>422.16</ele>
        <time>2013-04-13T12:42:10Z</time>
      </trkpt>
      <trkpt lat="45.50437" lon="4.68039">
        <ele>421.19</ele>
        <time>2013-04-13T12:42:16Z</time>
      </trkpt>
      <trkpt lat="45.50437" lon="4.68039">
        <ele>422.16</ele>
        <time>2013-04-13T12:42:29Z</time>
      </trkpt>
      <trkpt lat="45.50437" lon="4.68037">
        <ele>421.68</ele>
        <time>2013-04-13T12:42:39Z</time>
      </trkpt>
      <trkpt lat="45.50449" lon="4.67986">
        <ele>420.23</ele>
        <time>2013-04-13T12:42:50Z</time>
      </trkpt>
      <trkpt lat="45.50458" lon="4.67943">
        <ele>417.35</ele>
        <time>2013-04-13T12:42:58Z</time>
      </trkpt>
      <trkpt lat="45.50458" lon="4.67939">
        <ele>416.87</ele>
        <time>2013-04-13T12:42:59Z</time>
      </trkpt>
      <trkpt lat="45.50463" lon="4.67911">
        <ele>413.5</ele>
        <time>2013-04-13T12:43:04Z</time>
      </trkpt>
      <trkpt lat="45.50467" lon="4.67888">
        <ele>409.66</ele>
        <time>2013-04-13T12:43:07Z</time>
      </trkpt>
      <trkpt lat="45.50468" lon="4.67881">
        <ele>409.66</ele>
        <time>2013-04-13T12:43:08Z</time>
      </trkpt>
      <trkpt lat="45.50473" lon="4.67859">
        <ele>407.26</ele>
        <time>2013-04-13T12:43:11Z</time>
      </trkpt>
      <trkpt lat="45.50476" lon="4.67839">
        <ele>403.89</ele>
        <time>2013-04-13T12:43:15Z</time>
      </trkpt>
      <trkpt lat="45.50477" lon="4.67835">
        <ele>403.89</ele>
        <time>2013-04-13T12:43:16Z</time>
      </trkpt>
      <trkpt lat="45.50481" lon="4.67815">
        <ele>401.01</ele>
        <time>2013-04-13T12:43:20Z</time>
      </trkpt>
      <trkpt lat="45.50485" lon="4.67797">
        <ele>397.64</ele>
        <time>2013-04-13T12:43:24Z</time>
      </trkpt>
      <trkpt lat="45.50488" lon="4.67783">
        <ele>394.28</ele>
        <time>2013-04-13T12:43:28Z</time>
      </trkpt>
      <trkpt lat="45.50491" lon="4.67768">
        <ele>390.91</ele>
        <time>2013-04-13T12:43:32Z</time>
      </trkpt>
      <trkpt lat="45.50493" lon="4.6776">
        <ele>389.47</ele>
        <time>2013-04-13T12:43:34Z</time>
      </trkpt>
      <trkpt lat="45.50494" lon="4.67758">
        <ele>388.51</ele>
        <time>2013-04-13T12:43:35Z</time>
      </trkpt>
      <trkpt lat="45.50494" lon="4.67754">
        <ele>388.51</ele>
        <time>2013-04-13T12:43:36Z</time>
      </trkpt>
      <trkpt lat="45.50495" lon="4.67751">
        <ele>387.55</ele>
        <time>2013-04-13T12:43:37Z</time>
      </trkpt>
      <trkpt lat="45.50496" lon="4.67748">
        <ele>386.59</ele>
        <time>2013-04-13T12:43:38Z</time>
      </trkpt>
      <trkpt lat="45.50497" lon="4.67743">
        <ele>385.63</ele>
        <time>2013-04-13T12:43:40Z</time>
      </trkpt>
      <trkpt lat="45.50496" lon="4.67741">
        <ele>385.15</ele>
        <time>2013-04-13T12:43:41Z</time>
      </trkpt>
      <trkpt lat="45.50494" lon="4.67738">
        <ele>385.15</ele>
        <time>2013-04-13T12:43:42Z</time>
      </trkpt>
      <trkpt lat="45.50492" lon="4.67737">
        <ele>384.66</ele>
        <time>2013-04-13T12:43:43Z</time>
      </trkpt>
      <trkpt lat="45.50489" lon="4.67735">
        <ele>384.18</ele>
        <time>2013-04-13T12:43:44Z</time>
      </trkpt>
      <trkpt lat="45.50487" lon="4.67734">
        <ele>383.7</ele>
        <time>2013-04-13T12:43:45Z</time>
      </trkpt>
      <trkpt lat="45.50481" lon="4.67728">
        <ele>381.78</ele>
        <time>2013-04-13T12:43:49Z</time>
      </trkpt>
      <trkpt lat="45.50477" lon="4.67724">
        <ele>379.38</ele>
        <time>2013-04-13T12:43:59Z</time>
      </trkpt>
      <trkpt lat="45.50476" lon="4.67723">
        <ele>378.9</ele>
        <time>2013-04-13T12:44:00Z</time>
      </trkpt>
      <trkpt lat="45.50473" lon="4.67715">
        <ele>377.94</ele>
        <time>2013-04-13T12:44:10Z</time>
      </trkpt>
      <trkpt lat="45.50473" lon="4.67709">
        <ele>376.97</ele>
        <time>2013-04-13T12:44:23Z</time>
      </trkpt>
      <trkpt lat="45.50474" lon="4.67702">
        <ele>376.01</ele>
        <time>2013-04-13T12:44:35Z</time>
      </trkpt>
      <trkpt lat="45.50469" lon="4.67693">
        <ele>376.01</ele>
        <time>2013-04-13T12:44:44Z</time>
      </trkpt>
      <trkpt lat="45.50468" lon="4.67692">
        <ele>376.49</ele>
        <time>2013-04-13T12:44:45Z</time>
      </trkpt>
      <trkpt lat="45.50464" lon="4.67688">
        <ele>377.45</ele>
        <time>2013-04-13T12:44:59Z</time>
      </trkpt>
      <trkpt lat="45.50458" lon="4.67684">
        <ele>378.9</ele>
        <time>2013-04-13T12:45:13Z</time>
      </trkpt>
      <trkpt lat="45.50459" lon="4.67678">
        <ele>379.86</ele>
        <time>2013-04-13T12:45:28Z</time>
      </trkpt>
      <trkpt lat="45.50457" lon="4.67665">
        <ele>382.74</ele>
        <time>2013-04-13T12:45:44Z</time>
      </trkpt>
      <trkpt lat="45.5045" lon="4.67659">
        <ele>384.66</ele>
        <time>2013-04-13T12:45:56Z</time>
      </trkpt>
      <trkpt lat="45.50444" lon="4.67652">
        <ele>386.59</ele>
        <time>2013-04-13T12:46:09Z</time>
      </trkpt>
      <trkpt lat="45.50441" lon="4.67637">
        <ele>388.51</ele>
        <time>2013-04-13T12:46:22Z</time>
      </trkpt>
      <trkpt lat="45.5044" lon="4.67626">
        <ele>390.91</ele>
        <time>2013-04-13T12:46:35Z</time>
      </trkpt>
      <trkpt lat="45.50436" lon="4.67617">
        <ele>393.32</ele>
        <time>2013-04-13T12:46:49Z</time>
      </trkpt>
      <trkpt lat="45.50433" lon="4.67607">
        <ele>395.24</ele>
        <time>2013-04-13T12:47:02Z</time>
      </trkpt>
      <trkpt lat="45.5043" lon="4.67594">
        <ele>396.68</ele>
        <time>2013-04-13T12:47:16Z</time>
      </trkpt>
      <trkpt lat="45.50428" lon="4.67582">
        <ele>398.6</ele>
        <time>2013-04-13T12:47:30Z</time>
      </trkpt>
      <trkpt lat="45.50427" lon="4.67572">
        <ele>399.57</ele>
        <time>2013-04-13T12:47:42Z</time>
      </trkpt>
      <trkpt lat="45.50426" lon="4.67565">
        <ele>400.53</ele>
        <time>2013-04-13T12:47:58Z</time>
      </trkpt>
      <trkpt lat="45.50426" lon="4.67562">
        <ele>400.05</ele>
        <time>2013-04-13T12:48:16Z</time>
      </trkpt>
      <trkpt lat="45.50427" lon="4.67557">
        <ele>401.49</ele>
        <time>2013-04-13T12:48:20Z</time>
      </trkpt>
      <trkpt lat="45.50427" lon="4.67555">
        <ele>401.49</ele>
        <time>2013-04-13T12:48:21Z</time>
      </trkpt>
      <trkpt lat="45.50427" lon="4.67553">
        <ele>401.97</ele>
        <time>2013-04-13T12:48:22Z</time>
      </trkpt>
      <trkpt lat="45.50433" lon="4.67533">
        <ele>405.33</ele>
        <time>2013-04-13T12:48:34Z</time>
      </trkpt>
      <trkpt lat="45.50441" lon="4.67522">
        <ele>407.26</ele>
        <time>2013-04-13T12:48:41Z</time>
      </trkpt>
      <trkpt lat="45.50451" lon="4.67519">
        <ele>410.62</ele>
        <time>2013-04-13T12:48:49Z</time>
      </trkpt>
      <trkpt lat="45.50453" lon="4.67516">
        <ele>411.58</ele>
        <time>2013-04-13T12:48:52Z</time>
      </trkpt>
      <trkpt lat="45.50454" lon="4.67515">
        <ele>411.58</ele>
        <time>2013-04-13T12:48:53Z</time>
      </trkpt>
      <trkpt lat="45.50455" lon="4.67514">
        <ele>411.58</ele>
        <time>2013-04-13T12:48:54Z</time>
      </trkpt>
      <trkpt lat="45.50465" lon="4.67496">
        <ele>414.95</ele>
        <time>2013-04-13T12:49:07Z</time>
      </trkpt>
      <trkpt lat="45.50475" lon="4.67474">
        <ele>418.31</ele>
        <time>2013-04-13T12:49:22Z</time>
      </trkpt>
      <trkpt lat="45.50484" lon="4.67455">
        <ele>421.68</ele>
        <time>2013-04-13T12:49:36Z</time>
      </trkpt>
      <trkpt lat="45.50485" lon="4.67454">
        <ele>421.19</ele>
        <time>2013-04-13T12:49:37Z</time>
      </trkpt>
      <trkpt lat="45.50493" lon="4.67437">
        <ele>424.56</ele>
        <time>2013-04-13T12:49:50Z</time>
      </trkpt>
      <trkpt lat="45.50504" lon="4.67421">
        <ele>427.44</ele>
        <time>2013-04-13T12:50:05Z</time>
      </trkpt>
      <trkpt lat="45.50512" lon="4.67409">
        <ele>429.85</ele>
        <time>2013-04-13T12:50:19Z</time>
      </trkpt>
      <trkpt lat="45.50519" lon="4.67395">
        <ele>433.21</ele>
        <time>2013-04-13T12:50:33Z</time>
      </trkpt>
      <trkpt lat="45.50529" lon="4.67383">
        <ele>436.58</ele>
        <time>2013-04-13T12:50:47Z</time>
      </trkpt>
      <trkpt lat="45.50543" lon="4.67365">
        <ele>438.5</ele>
        <time>2013-04-13T12:51:03Z</time>
      </trkpt>
      <trkpt lat="45.50556" lon="4.67344">
        <ele>441.38</ele>
        <time>2013-04-13T12:51:18Z</time>
      </trkpt>
      <trkpt lat="45.50571" lon="4.67319">
        <ele>443.79</ele>
        <time>2013-04-13T12:51:39Z</time>
      </trkpt>
      <trkpt lat="45.50586" lon="4.67291">
        <ele>445.71</ele>
        <time>2013-04-13T12:51:58Z</time>
      </trkpt>
      <trkpt lat="45.50601" lon="4.67257">
        <ele>447.15</ele>
        <time>2013-04-13T12:52:15Z</time>
      </trkpt>
      <trkpt lat="45.50611" lon="4.67226">
        <ele>447.63</ele>
        <time>2013-04-13T12:52:28Z</time>
      </trkpt>
      <trkpt lat="45.50621" lon="4.67179">
        <ele>447.63</ele>
        <time>2013-04-13T12:52:45Z</time>
      </trkpt>
      <trkpt lat="45.50618" lon="4.67128">
        <ele>447.63</ele>
        <time>2013-04-13T12:53:01Z</time>
      </trkpt>
      <trkpt lat="45.50611" lon="4.67081">
        <ele>447.63</ele>
        <time>2013-04-13T12:53:14Z</time>
      </trkpt>
      <trkpt lat="45.50604" lon="4.67024">
        <ele>447.15</ele>
        <time>2013-04-13T12:53:28Z</time>
      </trkpt>
      <trkpt lat="45.50598" lon="4.66979">
        <ele>447.63</ele>
        <time>2013-04-13T12:53:39Z</time>
      </trkpt>
      <trkpt lat="45.50586" lon="4.66918">
        <ele>448.11</ele>
        <time>2013-04-13T12:53:53Z</time>
      </trkpt>
      <trkpt lat="45.5057" lon="4.66859">
        <ele>449.07</ele>
        <time>2013-04-13T12:54:08Z</time>
      </trkpt>
      <trkpt lat="45.50561" lon="4.66804">
        <ele>451.48</ele>
        <time>2013-04-13T12:54:23Z</time>
      </trkpt>
      <trkpt lat="45.50562" lon="4.6676">
        <ele>453.88</ele>
        <time>2013-04-13T12:54:38Z</time>
      </trkpt>
      <trkpt lat="45.50562" lon="4.66754">
        <ele>453.88</ele>
        <time>2013-04-13T12:54:41Z</time>
      </trkpt>
      <trkpt lat="45.50561" lon="4.66752">
        <ele>454.84</ele>
        <time>2013-04-13T12:54:42Z</time>
      </trkpt>
      <trkpt lat="45.5056" lon="4.66751">
        <ele>454.36</ele>
        <time>2013-04-13T12:54:43Z</time>
      </trkpt>
      <trkpt lat="45.50558" lon="4.66751">
        <ele>454.36</ele>
        <time>2013-04-13T12:54:44Z</time>
      </trkpt>
      <trkpt lat="45.50556" lon="4.66751">
        <ele>454.84</ele>
        <time>2013-04-13T12:54:45Z</time>
      </trkpt>
      <trkpt lat="45.50554" lon="4.66752">
        <ele>454.84</ele>
        <time>2013-04-13T12:54:46Z</time>
      </trkpt>
      <trkpt lat="45.50552" lon="4.66753">
        <ele>455.32</ele>
        <time>2013-04-13T12:54:47Z</time>
      </trkpt>
      <trkpt lat="45.50527" lon="4.66765">
        <ele>458.21</ele>
        <time>2013-04-13T12:55:03Z</time>
      </trkpt>
      <trkpt lat="45.50505" lon="4.66776">
        <ele>461.57</ele>
        <time>2013-04-13T12:55:20Z</time>
      </trkpt>
      <trkpt lat="45.50486" lon="4.66787">
        <ele>464.45</ele>
        <time>2013-04-13T12:55:35Z</time>
      </trkpt>
      <trkpt lat="45.50462" lon="4.66798">
        <ele>466.86</ele>
        <time>2013-04-13T12:55:51Z</time>
      </trkpt>
      <trkpt lat="45.50445" lon="4.66804">
        <ele>469.74</ele>
        <time>2013-04-13T12:56:00Z</time>
      </trkpt>
      <trkpt lat="45.50416" lon="4.66818">
        <ele>468.3</ele>
        <time>2013-04-13T12:56:17Z</time>
      </trkpt>
      <trkpt lat="45.50414" lon="4.66817">
        <ele>468.3</ele>
        <time>2013-04-13T12:56:18Z</time>
      </trkpt>
      <trkpt lat="45.50412" lon="4.66815">
        <ele>467.82</ele>
        <time>2013-04-13T12:56:19Z</time>
      </trkpt>
      <trkpt lat="45.50398" lon="4.66782">
        <ele>469.26</ele>
        <time>2013-04-13T12:56:33Z</time>
      </trkpt>
      <trkpt lat="45.50385" lon="4.66739">
        <ele>472.63</ele>
        <time>2013-04-13T12:56:49Z</time>
      </trkpt>
      <trkpt lat="45.50375" lon="4.6671">
        <ele>475.51</ele>
        <time>2013-04-13T12:57:00Z</time>
      </trkpt>
      <trkpt lat="45.50355" lon="4.66667">
        <ele>478.39</ele>
        <time>2013-04-13T12:57:17Z</time>
      </trkpt>
      <trkpt lat="45.50327" lon="4.66623">
        <ele>481.28</ele>
        <time>2013-04-13T12:57:32Z</time>
      </trkpt>
      <trkpt lat="45.50301" lon="4.66584">
        <ele>480.8</ele>
        <time>2013-04-13T12:57:45Z</time>
      </trkpt>
      <trkpt lat="45.50283" lon="4.66528">
        <ele>480.32</ele>
        <time>2013-04-13T12:57:59Z</time>
      </trkpt>
      <trkpt lat="45.50277" lon="4.66489">
        <ele>481.28</ele>
        <time>2013-04-13T12:58:11Z</time>
      </trkpt>
      <trkpt lat="45.50275" lon="4.66489">
        <ele>481.28</ele>
        <time>2013-04-13T12:58:19Z</time>
      </trkpt>
      <trkpt lat="45.50275" lon="4.66492">
        <ele>481.76</ele>
        <time>2013-04-13T12:58:57Z</time>
      </trkpt>
      <trkpt lat="45.50275" lon="4.66492">
        <ele>481.76</ele>
        <time>2013-04-13T12:59:26Z</time>
      </trkpt>
      <trkpt lat="45.50276" lon="4.66491">
        <ele>481.76</ele>
        <time>2013-04-13T13:00:06Z</time>
      </trkpt>
      <trkpt lat="45.50274" lon="4.66492">
        <ele>482.24</ele>
        <time>2013-04-13T13:00:27Z</time>
      </trkpt>
      <trkpt lat="45.50274" lon="4.66492">
        <ele>482.24</ele>
        <time>2013-04-13T13:00:28Z</time>
      </trkpt>
      <trkpt lat="45.50273" lon="4.66494">
        <ele>481.76</ele>
        <time>2013-04-13T13:00:29Z</time>
      </trkpt>
      <trkpt lat="45.50271" lon="4.66495">
        <ele>481.76</ele>
        <time>2013-04-13T13:00:30Z</time>
      </trkpt>
      <trkpt lat="45.5027" lon="4.66497">
        <ele>482.72</ele>
        <time>2013-04-13T13:00:31Z</time>
      </trkpt>
      <trkpt lat="45.50268" lon="4.66498">
        <ele>482.72</ele>
        <time>2013-04-13T13:00:32Z</time>
      </trkpt>
      <trkpt lat="45.50266" lon="4.665">
        <ele>482.72</ele>
        <time>2013-04-13T13:00:33Z</time>
      </trkpt>
      <trkpt lat="45.50263" lon="4.66503">
        <ele>482.72</ele>
        <time>2013-04-13T13:00:34Z</time>
      </trkpt>
      <trkpt lat="45.5026" lon="4.66505">
        <ele>483.68</ele>
        <time>2013-04-13T13:00:35Z</time>
      </trkpt>
      <trkpt lat="45.50218" lon="4.66516">
        <ele>483.2</ele>
        <time>2013-04-13T13:00:47Z</time>
      </trkpt>
      <trkpt lat="45.50181" lon="4.66523">
        <ele>479.35</ele>
        <time>2013-04-13T13:00:52Z</time>
      </trkpt>
      <trkpt lat="45.50163" lon="4.66525">
        <ele>476.95</ele>
        <time>2013-04-13T13:00:55Z</time>
      </trkpt>
      <trkpt lat="45.50136" lon="4.6653">
        <ele>476.47</ele>
        <time>2013-04-13T13:01:01Z</time>
      </trkpt>
      <trkpt lat="45.50096" lon="4.66549">
        <ele>477.91</ele>
        <time>2013-04-13T13:01:12Z</time>
      </trkpt>
      <trkpt lat="45.50061" lon="4.6659">
        <ele>480.32</ele>
        <time>2013-04-13T13:01:27Z</time>
      </trkpt>
      <trkpt lat="45.50038" lon="4.66623">
        <ele>483.68</ele>
        <time>2013-04-13T13:01:39Z</time>
      </trkpt>
      <trkpt lat="45.50012" lon="4.66658">
        <ele>486.56</ele>
        <time>2013-04-13T13:01:54Z</time>
      </trkpt>
      <trkpt lat="45.49986" lon="4.6669">
        <ele>488.97</ele>
        <time>2013-04-13T13:02:12Z</time>
      </trkpt>
      <trkpt lat="45.49959" lon="4.66716">
        <ele>492.33</ele>
        <time>2013-04-13T13:02:28Z</time>
      </trkpt>
      <trkpt lat="45.49926" lon="4.6673">
        <ele>495.22</ele>
        <time>2013-04-13T13:02:46Z</time>
      </trkpt>
      <trkpt lat="45.49894" lon="4.66743">
        <ele>497.14</ele>
        <time>2013-04-13T13:03:02Z</time>
      </trkpt>
      <trkpt lat="45.49869" lon="4.66745">
        <ele>498.1</ele>
        <time>2013-04-13T13:03:13Z</time>
      </trkpt>
      <trkpt lat="45.49821" lon="4.6674">
        <ele>495.7</ele>
        <time>2013-04-13T13:03:28Z</time>
      </trkpt>
      <trkpt lat="45.49808" lon="4.66732">
        <ele>495.7</ele>
        <time>2013-04-13T13:03:31Z</time>
      </trkpt>
      <trkpt lat="45.49805" lon="4.66729">
        <ele>495.7</ele>
        <time>2013-04-13T13:03:32Z</time>
      </trkpt>
      <trkpt lat="45.49742" lon="4.66689">
        <ele>494.26</ele>
        <time>2013-04-13T13:03:49Z</time>
      </trkpt>
      <trkpt lat="45.49713" lon="4.66667">
        <ele>495.7</ele>
        <time>2013-04-13T13:03:57Z</time>
      </trkpt>
      <trkpt lat="45.49674" lon="4.66627">
        <ele>497.14</ele>
        <time>2013-04-13T13:04:10Z</time>
      </trkpt>
      <trkpt lat="45.49673" lon="4.66624">
        <ele>496.66</ele>
        <time>2013-04-13T13:04:19Z</time>
      </trkpt>
      <trkpt lat="45.49666" lon="4.66617">
        <ele>496.66</ele>
        <time>2013-04-13T13:04:48Z</time>
      </trkpt>
      <trkpt lat="45.49663" lon="4.66612">
        <ele>496.66</ele>
        <time>2013-04-13T13:04:49Z</time>
      </trkpt>
      <trkpt lat="45.49659" lon="4.66607">
        <ele>496.66</ele>
        <time>2013-04-13T13:04:50Z</time>
      </trkpt>
      <trkpt lat="45.4964" lon="4.66559">
        <ele>494.74</ele>
        <time>2013-04-13T13:04:57Z</time>
      </trkpt>
      <trkpt lat="45.4963" lon="4.66518">
        <ele>493.29</ele>
        <time>2013-04-13T13:05:02Z</time>
      </trkpt>
      <trkpt lat="45.49626" lon="4.66511">
        <ele>493.29</ele>
        <time>2013-04-13T13:05:03Z</time>
      </trkpt>
      <trkpt lat="45.49622" lon="4.66506">
        <ele>492.81</ele>
        <time>2013-04-13T13:05:04Z</time>
      </trkpt>
      <trkpt lat="45.49618" lon="4.66504">
        <ele>493.29</ele>
        <time>2013-04-13T13:05:05Z</time>
      </trkpt>
      <trkpt lat="45.49615" lon="4.66502">
        <ele>493.29</ele>
        <time>2013-04-13T13:05:06Z</time>
      </trkpt>
      <trkpt lat="45.49612" lon="4.66501">
        <ele>493.29</ele>
        <time>2013-04-13T13:05:07Z</time>
      </trkpt>
      <trkpt lat="45.49589" lon="4.66502">
        <ele>496.18</ele>
        <time>2013-04-13T13:05:17Z</time>
      </trkpt>
      <trkpt lat="45.49559" lon="4.66501">
        <ele>499.06</ele>
        <time>2013-04-13T13:05:32Z</time>
      </trkpt>
      <trkpt lat="45.49527" lon="4.66496">
        <ele>500.98</ele>
        <time>2013-04-13T13:05:49Z</time>
      </trkpt>
      <trkpt lat="45.495" lon="4.66492">
        <ele>502.91</ele>
        <time>2013-04-13T13:06:04Z</time>
      </trkpt>
      <trkpt lat="45.49477" lon="4.66486">
        <ele>504.35</ele>
        <time>2013-04-13T13:06:17Z</time>
      </trkpt>
      <trkpt lat="45.49451" lon="4.66479">
        <ele>506.75</ele>
        <time>2013-04-13T13:06:32Z</time>
      </trkpt>
      <trkpt lat="45.49426" lon="4.66476">
        <ele>508.67</ele>
        <time>2013-04-13T13:06:46Z</time>
      </trkpt>
      <trkpt lat="45.49404" lon="4.66468">
        <ele>511.08</ele>
        <time>2013-04-13T13:06:59Z</time>
      </trkpt>
      <trkpt lat="45.49383" lon="4.66459">
        <ele>513.48</ele>
        <time>2013-04-13T13:07:14Z</time>
      </trkpt>
      <trkpt lat="45.49367" lon="4.66451">
        <ele>516.37</ele>
        <time>2013-04-13T13:07:27Z</time>
      </trkpt>
      <trkpt lat="45.49355" lon="4.66446">
        <ele>518.29</ele>
        <time>2013-04-13T13:07:37Z</time>
      </trkpt>
      <trkpt lat="45.49353" lon="4.66445">
        <ele>518.29</ele>
        <time>2013-04-13T13:07:38Z</time>
      </trkpt>
      <trkpt lat="45.49352" lon="4.66445">
        <ele>518.29</ele>
        <time>2013-04-13T13:07:39Z</time>
      </trkpt>
      <trkpt lat="45.49332" lon="4.66435">
        <ele>521.17</ele>
        <time>2013-04-13T13:07:53Z</time>
      </trkpt>
      <trkpt lat="45.49318" lon="4.66422">
        <ele>523.58</ele>
        <time>2013-04-13T13:08:08Z</time>
      </trkpt>
      <trkpt lat="45.49303" lon="4.66407">
        <ele>526.46</ele>
        <time>2013-04-13T13:08:24Z</time>
      </trkpt>
      <trkpt lat="45.49302" lon="4.66404">
        <ele>526.94</ele>
        <time>2013-04-13T13:08:26Z</time>
      </trkpt>
      <trkpt lat="45.49298" lon="4.66401">
        <ele>527.42</ele>
        <time>2013-04-13T13:08:42Z</time>
      </trkpt>
      <trkpt lat="45.49297" lon="4.66404">
        <ele>526.94</ele>
        <time>2013-04-13T13:08:55Z</time>
      </trkpt>
      <trkpt lat="45.49295" lon="4.66406">
        <ele>526.94</ele>
        <time>2013-04-13T13:09:46Z</time>
      </trkpt>
      <trkpt lat="45.49297" lon="4.66404">
        <ele>527.42</ele>
        <time>2013-04-13T13:09:59Z</time>
      </trkpt>
      <trkpt lat="45.49298" lon="4.66403">
        <ele>527.9</ele>
        <time>2013-04-13T13:10:00Z</time>
      </trkpt>
      <trkpt lat="45.49298" lon="4.66403">
        <ele>527.9</ele>
        <time>2013-04-13T13:10:03Z</time>
      </trkpt>
      <trkpt lat="45.49299" lon="4.66402">
        <ele>527.42</ele>
        <time>2013-04-13T13:10:04Z</time>
      </trkpt>
      <trkpt lat="45.49301" lon="4.66401">
        <ele>527.9</ele>
        <time>2013-04-13T13:10:05Z</time>
      </trkpt>
      <trkpt lat="45.49302" lon="4.66399">
        <ele>527.42</ele>
        <time>2013-04-13T13:10:06Z</time>
      </trkpt>
      <trkpt lat="45.49303" lon="4.66399">
        <ele>527.9</ele>
        <time>2013-04-13T13:10:07Z</time>
      </trkpt>
      <trkpt lat="45.49305" lon="4.66398">
        <ele>527.9</ele>
        <time>2013-04-13T13:10:08Z</time>
      </trkpt>
      <trkpt lat="45.49307" lon="4.66397">
        <ele>528.38</ele>
        <time>2013-04-13T13:10:09Z</time>
      </trkpt>
      <trkpt lat="45.49309" lon="4.66396">
        <ele>528.38</ele>
        <time>2013-04-13T13:10:10Z</time>
      </trkpt>
      <trkpt lat="45.4931" lon="4.66395">
        <ele>527.9</ele>
        <time>2013-04-13T13:10:11Z</time>
      </trkpt>
      <trkpt lat="45.49312" lon="4.66393">
        <ele>528.38</ele>
        <time>2013-04-13T13:10:12Z</time>
      </trkpt>
      <trkpt lat="45.49314" lon="4.66392">
        <ele>528.38</ele>
        <time>2013-04-13T13:10:13Z</time>
      </trkpt>
      <trkpt lat="45.49316" lon="4.6639">
        <ele>528.38</ele>
        <time>2013-04-13T13:10:14Z</time>
      </trkpt>
      <trkpt lat="45.49317" lon="4.66388">
        <ele>528.86</ele>
        <time>2013-04-13T13:10:15Z</time>
      </trkpt>
      <trkpt lat="45.49319" lon="4.66386">
        <ele>528.86</ele>
        <time>2013-04-13T13:10:16Z</time>
      </trkpt>
      <trkpt lat="45.49333" lon="4.66354">
        <ele>529.82</ele>
        <time>2013-04-13T13:10:30Z</time>
      </trkpt>
      <trkpt lat="45.49355" lon="4.66322">
        <ele>532.71</ele>
        <time>2013-04-13T13:10:46Z</time>
      </trkpt>
      <trkpt lat="45.49378" lon="4.66291">
        <ele>535.11</ele>
        <time>2013-04-13T13:11:03Z</time>
      </trkpt>
      <trkpt lat="45.49399" lon="4.66265">
        <ele>538.48</ele>
        <time>2013-04-13T13:11:20Z</time>
      </trkpt>
      <trkpt lat="45.49414" lon="4.66247">
        <ele>541.84</ele>
        <time>2013-04-13T13:11:33Z</time>
      </trkpt>
      <trkpt lat="45.49432" lon="4.66226">
        <ele>545.2</ele>
        <time>2013-04-13T13:11:48Z</time>
      </trkpt>
      <trkpt lat="45.49451" lon="4.66203">
        <ele>548.09</ele>
        <time>2013-04-13T13:12:06Z</time>
      </trkpt>
      <trkpt lat="45.49452" lon="4.66202">
        <ele>549.05</ele>
        <time>2013-04-13T13:12:07Z</time>
      </trkpt>
      <trkpt lat="45.49472" lon="4.66182">
        <ele>551.93</ele>
        <time>2013-04-13T13:12:25Z</time>
      </trkpt>
      <trkpt lat="45.49484" lon="4.66168">
        <ele>553.86</ele>
        <time>2013-04-13T13:12:38Z</time>
      </trkpt>
      <trkpt lat="45.49501" lon="4.6616">
        <ele>556.26</ele>
        <time>2013-04-13T13:12:53Z</time>
      </trkpt>
      <trkpt lat="45.49513" lon="4.66156">
        <ele>559.14</ele>
        <time>2013-04-13T13:13:04Z</time>
      </trkpt>
      <trkpt lat="45.49525" lon="4.66151">
        <ele>562.51</ele>
        <time>2013-04-13T13:13:16Z</time>
      </trkpt>
      <trkpt lat="45.4954" lon="4.66144">
        <ele>565.87</ele>
        <time>2013-04-13T13:13:30Z</time>
      </trkpt>
      <trkpt lat="45.49543" lon="4.66144">
        <ele>565.39</ele>
        <time>2013-04-13T13:13:32Z</time>
      </trkpt>
      <trkpt lat="45.49544" lon="4.66143">
        <ele>565.87</ele>
        <time>2013-04-13T13:13:33Z</time>
      </trkpt>
      <trkpt lat="45.49555" lon="4.66137">
        <ele>567.8</ele>
        <time>2013-04-13T13:13:43Z</time>
      </trkpt>
      <trkpt lat="45.49556" lon="4.66136">
        <ele>568.28</ele>
        <time>2013-04-13T13:13:44Z</time>
      </trkpt>
      <trkpt lat="45.49558" lon="4.66135">
        <ele>568.76</ele>
        <time>2013-04-13T13:13:45Z</time>
      </trkpt>
      <trkpt lat="45.49559" lon="4.66135">
        <ele>568.76</ele>
        <time>2013-04-13T13:13:46Z</time>
      </trkpt>
      <trkpt lat="45.49575" lon="4.66124">
        <ele>571.64</ele>
        <time>2013-04-13T13:14:01Z</time>
      </trkpt>
      <trkpt lat="45.49578" lon="4.66123">
        <ele>571.64</ele>
        <time>2013-04-13T13:14:03Z</time>
      </trkpt>
      <trkpt lat="45.49579" lon="4.66122">
        <ele>571.64</ele>
        <time>2013-04-13T13:14:04Z</time>
      </trkpt>
      <trkpt lat="45.4958" lon="4.66121">
        <ele>572.12</ele>
        <time>2013-04-13T13:14:05Z</time>
      </trkpt>
      <trkpt lat="45.49581" lon="4.6612">
        <ele>572.12</ele>
        <time>2013-04-13T13:14:06Z</time>
      </trkpt>
      <trkpt lat="45.49582" lon="4.66119">
        <ele>572.12</ele>
        <time>2013-04-13T13:14:07Z</time>
      </trkpt>
      <trkpt lat="45.49599" lon="4.66104">
        <ele>575.01</ele>
        <time>2013-04-13T13:14:25Z</time>
      </trkpt>
      <trkpt lat="45.496" lon="4.66103">
        <ele>575.01</ele>
        <time>2013-04-13T13:14:26Z</time>
      </trkpt>
      <trkpt lat="45.49608" lon="4.66095">
        <ele>575.01</ele>
        <time>2013-04-13T13:14:39Z</time>
      </trkpt>
      <trkpt lat="45.49606" lon="4.66094">
        <ele>575.01</ele>
        <time>2013-04-13T13:15:15Z</time>
      </trkpt>
      <trkpt lat="45.49607" lon="4.66093">
        <ele>575.49</ele>
        <time>2013-04-13T13:15:52Z</time>
      </trkpt>
      <trkpt lat="45.49607" lon="4.66093">
        <ele>575.01</ele>
        <time>2013-04-13T13:16:30Z</time>
      </trkpt>
      <trkpt lat="45.49606" lon="4.66094">
        <ele>574.53</ele>
        <time>2013-04-13T13:17:09Z</time>
      </trkpt>
      <trkpt lat="45.49614" lon="4.6609">
        <ele>575.97</ele>
        <time>2013-04-13T13:17:27Z</time>
      </trkpt>
      <trkpt lat="45.4963" lon="4.66076">
        <ele>578.85</ele>
        <time>2013-04-13T13:17:40Z</time>
      </trkpt>
      <trkpt lat="45.49632" lon="4.66076">
        <ele>578.85</ele>
        <time>2013-04-13T13:17:41Z</time>
      </trkpt>
      <trkpt lat="45.49633" lon="4.66075">
        <ele>578.85</ele>
        <time>2013-04-13T13:17:42Z</time>
      </trkpt>
      <trkpt lat="45.49644" lon="4.66062">
        <ele>580.77</ele>
        <time>2013-04-13T13:17:52Z</time>
      </trkpt>
      <trkpt lat="45.4966" lon="4.6605">
        <ele>583.66</ele>
        <time>2013-04-13T13:18:06Z</time>
      </trkpt>
      <trkpt lat="45.4968" lon="4.66039">
        <ele>585.58</ele>
        <time>2013-04-13T13:18:23Z</time>
      </trkpt>
      <trkpt lat="45.49698" lon="4.66022">
        <ele>588.46</ele>
        <time>2013-04-13T13:18:41Z</time>
      </trkpt>
      <trkpt lat="45.49715" lon="4.65998">
        <ele>591.83</ele>
        <time>2013-04-13T13:19:00Z</time>
      </trkpt>
      <trkpt lat="45.49723" lon="4.65994">
        <ele>593.27</ele>
        <time>2013-04-13T13:19:06Z</time>
      </trkpt>
      <trkpt lat="45.49738" lon="4.65988">
        <ele>597.12</ele>
        <time>2013-04-13T13:19:20Z</time>
      </trkpt>
      <trkpt lat="45.49747" lon="4.65979">
        <ele>598.08</ele>
        <time>2013-04-13T13:19:28Z</time>
      </trkpt>
      <trkpt lat="45.49764" lon="4.65961">
        <ele>601.44</ele>
        <time>2013-04-13T13:19:45Z</time>
      </trkpt>
      <trkpt lat="45.49774" lon="4.65956">
        <ele>604.81</ele>
        <time>2013-04-13T13:19:55Z</time>
      </trkpt>
      <trkpt lat="45.49782" lon="4.65952">
        <ele>603.85</ele>
        <time>2013-04-13T13:20:01Z</time>
      </trkpt>
      <trkpt lat="45.49791" lon="4.65949">
        <ele>605.77</ele>
        <time>2013-04-13T13:20:09Z</time>
      </trkpt>
      <trkpt lat="45.49811" lon="4.65932">
        <ele>608.17</ele>
        <time>2013-04-13T13:20:25Z</time>
      </trkpt>
      <trkpt lat="45.49821" lon="4.65919">
        <ele>608.17</ele>
        <time>2013-04-13T13:20:33Z</time>
      </trkpt>
      <trkpt lat="45.49833" lon="4.65868">
        <ele>609.61</ele>
        <time>2013-04-13T13:20:51Z</time>
      </trkpt>
      <trkpt lat="45.49849" lon="4.65815">
        <ele>611.06</ele>
        <time>2013-04-13T13:21:07Z</time>
      </trkpt>
      <trkpt lat="45.49868" lon="4.65763">
        <ele>612.5</ele>
        <time>2013-04-13T13:21:23Z</time>
      </trkpt>
      <trkpt lat="45.49891" lon="4.65728">
        <ele>612.98</ele>
        <time>2013-04-13T13:21:36Z</time>
      </trkpt>
      <trkpt lat="45.49918" lon="4.657">
        <ele>612.98</ele>
        <time>2013-04-13T13:21:47Z</time>
      </trkpt>
      <trkpt lat="45.49943" lon="4.65664">
        <ele>612.98</ele>
        <time>2013-04-13T13:22:01Z</time>
      </trkpt>
      <trkpt lat="45.49964" lon="4.65627">
        <ele>613.46</ele>
        <time>2013-04-13T13:22:13Z</time>
      </trkpt>
      <trkpt lat="45.49989" lon="4.65598">
        <ele>613.46</ele>
        <time>2013-04-13T13:22:22Z</time>
      </trkpt>
      <trkpt lat="45.49994" lon="4.65596">
        <ele>612.02</ele>
        <time>2013-04-13T13:22:23Z</time>
      </trkpt>
      <trkpt lat="45.49998" lon="4.65595">
        <ele>612.5</ele>
        <time>2013-04-13T13:22:24Z</time>
      </trkpt>
      <trkpt lat="45.50003" lon="4.65595">
        <ele>612.5</ele>
        <time>2013-04-13T13:22:25Z</time>
      </trkpt>
      <trkpt lat="45.50007" lon="4.65595">
        <ele>612.5</ele>
        <time>2013-04-13T13:22:26Z</time>
      </trkpt>
      <trkpt lat="45.5001" lon="4.65596">
        <ele>612.5</ele>
        <time>2013-04-13T13:22:27Z</time>
      </trkpt>
      <trkpt lat="45.50012" lon="4.65595">
        <ele>612.02</ele>
        <time>2013-04-13T13:22:28Z</time>
      </trkpt>
      <trkpt lat="45.50014" lon="4.65594">
        <ele>612.5</ele>
        <time>2013-04-13T13:22:29Z</time>
      </trkpt>
      <trkpt lat="45.50017" lon="4.65594">
        <ele>612.02</ele>
        <time>2013-04-13T13:22:30Z</time>
      </trkpt>
      <trkpt lat="45.5002" lon="4.65593">
        <ele>612.02</ele>
        <time>2013-04-13T13:22:31Z</time>
      </trkpt>
      <trkpt lat="45.50024" lon="4.65592">
        <ele>612.02</ele>
        <time>2013-04-13T13:22:32Z</time>
      </trkpt>
      <trkpt lat="45.50028" lon="4.65591">
        <ele>611.54</ele>
        <time>2013-04-13T13:22:33Z</time>
      </trkpt>
      <trkpt lat="45.50033" lon="4.6559">
        <ele>612.5</ele>
        <time>2013-04-13T13:22:34Z</time>
      </trkpt>
      <trkpt lat="45.50037" lon="4.65589">
        <ele>612.02</ele>
        <time>2013-04-13T13:22:35Z</time>
      </trkpt>
      <trkpt lat="45.50046" lon="4.65587">
        <ele>612.02</ele>
        <time>2013-04-13T13:22:37Z</time>
      </trkpt>
      <trkpt lat="45.50099" lon="4.65563">
        <ele>608.65</ele>
        <time>2013-04-13T13:22:47Z</time>
      </trkpt>
      <trkpt lat="45.50116" lon="4.65555">
        <ele>608.17</ele>
        <time>2013-04-13T13:22:50Z</time>
      </trkpt>
      <trkpt lat="45.50122" lon="4.65553">
        <ele>608.65</ele>
        <time>2013-04-13T13:22:51Z</time>
      </trkpt>
      <trkpt lat="45.50127" lon="4.6555">
        <ele>607.21</ele>
        <time>2013-04-13T13:22:52Z</time>
      </trkpt>
      <trkpt lat="45.50143" lon="4.65542">
        <ele>606.25</ele>
        <time>2013-04-13T13:22:55Z</time>
      </trkpt>
      <trkpt lat="45.50148" lon="4.65539">
        <ele>606.25</ele>
        <time>2013-04-13T13:22:56Z</time>
      </trkpt>
      <trkpt lat="45.50154" lon="4.65536">
        <ele>606.25</ele>
        <time>2013-04-13T13:22:57Z</time>
      </trkpt>
      <trkpt lat="45.50159" lon="4.65531">
        <ele>605.77</ele>
        <time>2013-04-13T13:22:58Z</time>
      </trkpt>
      <trkpt lat="45.50194" lon="4.65492">
        <ele>603.36</ele>
        <time>2013-04-13T13:23:05Z</time>
      </trkpt>
      <trkpt lat="45.50231" lon="4.65451">
        <ele>599.52</ele>
        <time>2013-04-13T13:23:11Z</time>
      </trkpt>
      <trkpt lat="45.50237" lon="4.65444">
        <ele>599.52</ele>
        <time>2013-04-13T13:23:12Z</time>
      </trkpt>
      <trkpt lat="45.5026" lon="4.65416">
        <ele>597.12</ele>
        <time>2013-04-13T13:23:16Z</time>
      </trkpt>
      <trkpt lat="45.50271" lon="4.65403">
        <ele>595.67</ele>
        <time>2013-04-13T13:23:18Z</time>
      </trkpt>
      <trkpt lat="45.50277" lon="4.65396">
        <ele>594.23</ele>
        <time>2013-04-13T13:23:19Z</time>
      </trkpt>
      <trkpt lat="45.50282" lon="4.6539">
        <ele>594.71</ele>
        <time>2013-04-13T13:23:20Z</time>
      </trkpt>
      <trkpt lat="45.50323" lon="4.65347">
        <ele>591.35</ele>
        <time>2013-04-13T13:23:27Z</time>
      </trkpt>
      <trkpt lat="45.50348" lon="4.6532">
        <ele>588.46</ele>
        <time>2013-04-13T13:23:33Z</time>
      </trkpt>
      <trkpt lat="45.5036" lon="4.65304">
        <ele>587.98</ele>
        <time>2013-04-13T13:23:42Z</time>
      </trkpt>
      <trkpt lat="45.50361" lon="4.65304">
        <ele>587.98</ele>
        <time>2013-04-13T13:23:43Z</time>
      </trkpt>
      <trkpt lat="45.50362" lon="4.65302">
        <ele>588.46</ele>
        <time>2013-04-13T13:23:54Z</time>
      </trkpt>
      <trkpt lat="45.50362" lon="4.65301">
        <ele>587.98</ele>
        <time>2013-04-13T13:23:55Z</time>
      </trkpt>
      <trkpt lat="45.50362" lon="4.65299">
        <ele>587.98</ele>
        <time>2013-04-13T13:23:56Z</time>
      </trkpt>
      <trkpt lat="45.50362" lon="4.65296">
        <ele>587.5</ele>
        <time>2013-04-13T13:23:57Z</time>
      </trkpt>
      <trkpt lat="45.50363" lon="4.65293">
        <ele>587.5</ele>
        <time>2013-04-13T13:23:58Z</time>
      </trkpt>
      <trkpt lat="45.50364" lon="4.6529">
        <ele>587.5</ele>
        <time>2013-04-13T13:23:59Z</time>
      </trkpt>
      <trkpt lat="45.50365" lon="4.65288">
        <ele>587.5</ele>
        <time>2013-04-13T13:24:00Z</time>
      </trkpt>
      <trkpt lat="45.50366" lon="4.65286">
        <ele>587.5</ele>
        <time>2013-04-13T13:24:01Z</time>
      </trkpt>
      <trkpt lat="45.50367" lon="4.65284">
        <ele>586.54</ele>
        <time>2013-04-13T13:24:02Z</time>
      </trkpt>
      <trkpt lat="45.50367" lon="4.65282">
        <ele>586.54</ele>
        <time>2013-04-13T13:24:03Z</time>
      </trkpt>
      <trkpt lat="45.50366" lon="4.65279">
        <ele>586.54</ele>
        <time>2013-04-13T13:24:04Z</time>
      </trkpt>
      <trkpt lat="45.50365" lon="4.65278">
        <ele>586.06</ele>
        <time>2013-04-13T13:24:14Z</time>
      </trkpt>
      <trkpt lat="45.50358" lon="4.65255">
        <ele>586.06</ele>
        <time>2013-04-13T13:24:37Z</time>
      </trkpt>
      <trkpt lat="45.50347" lon="4.65233">
        <ele>584.14</ele>
        <time>2013-04-13T13:24:43Z</time>
      </trkpt>
      <trkpt lat="45.50336" lon="4.65213">
        <ele>583.66</ele>
        <time>2013-04-13T13:24:50Z</time>
      </trkpt>
      <trkpt lat="45.50333" lon="4.65208">
        <ele>582.7</ele>
        <time>2013-04-13T13:24:51Z</time>
      </trkpt>
      <trkpt lat="45.50308" lon="4.65161">
        <ele>579.33</ele>
        <time>2013-04-13T13:24:59Z</time>
      </trkpt>
      <trkpt lat="45.50304" lon="4.65156">
        <ele>578.85</ele>
        <time>2013-04-13T13:25:00Z</time>
      </trkpt>
      <trkpt lat="45.50299" lon="4.65153">
        <ele>578.85</ele>
        <time>2013-04-13T13:25:01Z</time>
      </trkpt>
      <trkpt lat="45.50255" lon="4.65134">
        <ele>575.49</ele>
        <time>2013-04-13T13:25:08Z</time>
      </trkpt>
      <trkpt lat="45.50232" lon="4.65123">
        <ele>573.08</ele>
        <time>2013-04-13T13:25:11Z</time>
      </trkpt>
      <trkpt lat="45.50216" lon="4.65114">
        <ele>571.16</ele>
        <time>2013-04-13T13:25:13Z</time>
      </trkpt>
      <trkpt lat="45.50207" lon="4.65111">
        <ele>569.24</ele>
        <time>2013-04-13T13:25:14Z</time>
      </trkpt>
      <trkpt lat="45.50197" lon="4.65109">
        <ele>568.76</ele>
        <time>2013-04-13T13:25:15Z</time>
      </trkpt>
      <trkpt lat="45.50161" lon="4.65109">
        <ele>564.91</ele>
        <time>2013-04-13T13:25:19Z</time>
      </trkpt>
      <trkpt lat="45.50153" lon="4.6511">
        <ele>564.91</ele>
        <time>2013-04-13T13:25:20Z</time>
      </trkpt>
      <trkpt lat="45.50086" lon="4.65107">
        <ele>563.95</ele>
        <time>2013-04-13T13:25:30Z</time>
      </trkpt>
      <trkpt lat="45.5005" lon="4.65107">
        <ele>563.47</ele>
        <time>2013-04-13T13:25:37Z</time>
      </trkpt>
      <trkpt lat="45.50046" lon="4.65106">
        <ele>563.47</ele>
        <time>2013-04-13T13:25:38Z</time>
      </trkpt>
      <trkpt lat="45.50042" lon="4.65106">
        <ele>562.99</ele>
        <time>2013-04-13T13:25:39Z</time>
      </trkpt>
      <trkpt lat="45.50038" lon="4.65105">
        <ele>562.51</ele>
        <time>2013-04-13T13:25:40Z</time>
      </trkpt>
      <trkpt lat="45.50034" lon="4.65104">
        <ele>562.51</ele>
        <time>2013-04-13T13:25:41Z</time>
      </trkpt>
      <trkpt lat="45.50031" lon="4.65103">
        <ele>562.51</ele>
        <time>2013-04-13T13:25:42Z</time>
      </trkpt>
      <trkpt lat="45.50028" lon="4.65102">
        <ele>562.03</ele>
        <time>2013-04-13T13:25:43Z</time>
      </trkpt>
      <trkpt lat="45.50026" lon="4.65102">
        <ele>561.55</ele>
        <time>2013-04-13T13:25:44Z</time>
      </trkpt>
      <trkpt lat="45.50025" lon="4.65103">
        <ele>561.55</ele>
        <time>2013-04-13T13:25:45Z</time>
      </trkpt>
      <trkpt lat="45.50024" lon="4.65101">
        <ele>562.03</ele>
        <time>2013-04-13T13:25:47Z</time>
      </trkpt>
      <trkpt lat="45.50023" lon="4.65098">
        <ele>561.07</ele>
        <time>2013-04-13T13:25:48Z</time>
      </trkpt>
      <trkpt lat="45.50023" lon="4.65095">
        <ele>561.55</ele>
        <time>2013-04-13T13:25:49Z</time>
      </trkpt>
      <trkpt lat="45.50023" lon="4.65092">
        <ele>561.07</ele>
        <time>2013-04-13T13:25:50Z</time>
      </trkpt>
      <trkpt lat="45.50023" lon="4.65089">
        <ele>561.55</ele>
        <time>2013-04-13T13:25:51Z</time>
      </trkpt>
      <trkpt lat="45.50023" lon="4.65086">
        <ele>560.59</ele>
        <time>2013-04-13T13:25:52Z</time>
      </trkpt>
      <trkpt lat="45.50023" lon="4.65083">
        <ele>561.55</ele>
        <time>2013-04-13T13:25:53Z</time>
      </trkpt>
      <trkpt lat="45.50024" lon="4.65079">
        <ele>560.59</ele>
        <time>2013-04-13T13:25:54Z</time>
      </trkpt>
      <trkpt lat="45.50027" lon="4.65038">
        <ele>562.03</ele>
        <time>2013-04-13T13:26:07Z</time>
      </trkpt>
      <trkpt lat="45.50028" lon="4.65">
        <ele>565.39</ele>
        <time>2013-04-13T13:26:18Z</time>
      </trkpt>
      <trkpt lat="45.50022" lon="4.64978">
        <ele>568.28</ele>
        <time>2013-04-13T13:26:25Z</time>
      </trkpt>
      <trkpt lat="45.5002" lon="4.64966">
        <ele>568.76</ele>
        <time>2013-04-13T13:26:29Z</time>
      </trkpt>
      <trkpt lat="45.50002" lon="4.64923">
        <ele>568.76</ele>
        <time>2013-04-13T13:26:42Z</time>
      </trkpt>
      <trkpt lat="45.49983" lon="4.64873">
        <ele>568.76</ele>
        <time>2013-04-13T13:26:55Z</time>
      </trkpt>
      <trkpt lat="45.49967" lon="4.64821">
        <ele>569.24</ele>
        <time>2013-04-13T13:27:07Z</time>
      </trkpt>
      <trkpt lat="45.49941" lon="4.64753">
        <ele>570.68</ele>
        <time>2013-04-13T13:27:23Z</time>
      </trkpt>
      <trkpt lat="45.49915" lon="4.64684">
        <ele>572.6</ele>
        <time>2013-04-13T13:27:39Z</time>
      </trkpt>
      <trkpt lat="45.49894" lon="4.64609">
        <ele>573.08</ele>
        <time>2013-04-13T13:27:55Z</time>
      </trkpt>
      <trkpt lat="45.49885" lon="4.64549">
        <ele>572.6</ele>
        <time>2013-04-13T13:28:05Z</time>
      </trkpt>
      <trkpt lat="45.4988" lon="4.6453">
        <ele>572.12</ele>
        <time>2013-04-13T13:28:08Z</time>
      </trkpt>
      <trkpt lat="45.49858" lon="4.64463">
        <ele>573.08</ele>
        <time>2013-04-13T13:28:20Z</time>
      </trkpt>
      <trkpt lat="45.49843" lon="4.64402">
        <ele>572.6</ele>
        <time>2013-04-13T13:28:35Z</time>
      </trkpt>
      <trkpt lat="45.49836" lon="4.64342">
        <ele>572.12</ele>
        <time>2013-04-13T13:28:48Z</time>
      </trkpt>
      <trkpt lat="45.49837" lon="4.64322">
        <ele>571.16</ele>
        <time>2013-04-13T13:28:52Z</time>
      </trkpt>
      <trkpt lat="45.49841" lon="4.64293">
        <ele>569.24</ele>
        <time>2013-04-13T13:28:57Z</time>
      </trkpt>
      <trkpt lat="45.49842" lon="4.64286">
        <ele>569.24</ele>
        <time>2013-04-13T13:28:58Z</time>
      </trkpt>
      <trkpt lat="45.49842" lon="4.64279">
        <ele>568.28</ele>
        <time>2013-04-13T13:28:59Z</time>
      </trkpt>
      <trkpt lat="45.49842" lon="4.64272">
        <ele>568.76</ele>
        <time>2013-04-13T13:29:00Z</time>
      </trkpt>
      <trkpt lat="45.49841" lon="4.64265">
        <ele>568.28</ele>
        <time>2013-04-13T13:29:01Z</time>
      </trkpt>
      <trkpt lat="45.49817" lon="4.6418">
        <ele>564.91</ele>
        <time>2013-04-13T13:29:11Z</time>
      </trkpt>
      <trkpt lat="45.49805" lon="4.64136">
        <ele>563.95</ele>
        <time>2013-04-13T13:29:20Z</time>
      </trkpt>
      <trkpt lat="45.49804" lon="4.64131">
        <ele>563.95</ele>
        <time>2013-04-13T13:29:21Z</time>
      </trkpt>
      <trkpt lat="45.49767" lon="4.64079">
        <ele>563.47</ele>
        <time>2013-04-13T13:29:35Z</time>
      </trkpt>
      <trkpt lat="45.49724" lon="4.64039">
        <ele>562.51</ele>
        <time>2013-04-13T13:29:49Z</time>
      </trkpt>
      <trkpt lat="45.49717" lon="4.64031">
        <ele>562.51</ele>
        <time>2013-04-13T13:29:51Z</time>
      </trkpt>
      <trkpt lat="45.49713" lon="4.64028">
        <ele>562.51</ele>
        <time>2013-04-13T13:29:52Z</time>
      </trkpt>
      <trkpt lat="45.49709" lon="4.64024">
        <ele>561.55</ele>
        <time>2013-04-13T13:29:53Z</time>
      </trkpt>
      <trkpt lat="45.49705" lon="4.64021">
        <ele>561.07</ele>
        <time>2013-04-13T13:29:54Z</time>
      </trkpt>
      <trkpt lat="45.4967" lon="4.63991">
        <ele>559.14</ele>
        <time>2013-04-13T13:30:06Z</time>
      </trkpt>
      <trkpt lat="45.49666" lon="4.63983">
        <ele>558.18</ele>
        <time>2013-04-13T13:30:17Z</time>
      </trkpt>
      <trkpt lat="45.49667" lon="4.63982">
        <ele>557.7</ele>
        <time>2013-04-13T13:30:59Z</time>
      </trkpt>
      <trkpt lat="45.49665" lon="4.63982">
        <ele>557.7</ele>
        <time>2013-04-13T13:31:07Z</time>
      </trkpt>
      <trkpt lat="45.49663" lon="4.63981">
        <ele>557.7</ele>
        <time>2013-04-13T13:31:08Z</time>
      </trkpt>
      <trkpt lat="45.49661" lon="4.63979">
        <ele>557.7</ele>
        <time>2013-04-13T13:31:09Z</time>
      </trkpt>
      <trkpt lat="45.49658" lon="4.63976">
        <ele>557.22</ele>
        <time>2013-04-13T13:31:10Z</time>
      </trkpt>
      <trkpt lat="45.49655" lon="4.63972">
        <ele>557.22</ele>
        <time>2013-04-13T13:31:11Z</time>
      </trkpt>
      <trkpt lat="45.49652" lon="4.63967">
        <ele>556.74</ele>
        <time>2013-04-13T13:31:12Z</time>
      </trkpt>
      <trkpt lat="45.49648" lon="4.63962">
        <ele>556.26</ele>
        <time>2013-04-13T13:31:13Z</time>
      </trkpt>
      <trkpt lat="45.49643" lon="4.63957">
        <ele>555.3</ele>
        <time>2013-04-13T13:31:14Z</time>
      </trkpt>
      <trkpt lat="45.49638" lon="4.63952">
        <ele>555.78</ele>
        <time>2013-04-13T13:31:15Z</time>
      </trkpt>
      <trkpt lat="45.49622" lon="4.63933">
        <ele>553.38</ele>
        <time>2013-04-13T13:31:18Z</time>
      </trkpt>
      <trkpt lat="45.49606" lon="4.63909">
        <ele>552.41</ele>
        <time>2013-04-13T13:31:21Z</time>
      </trkpt>
      <trkpt lat="45.496" lon="4.63902">
        <ele>551.45</ele>
        <time>2013-04-13T13:31:22Z</time>
      </trkpt>
      <trkpt lat="45.49594" lon="4.63896">
        <ele>551.45</ele>
        <time>2013-04-13T13:31:23Z</time>
      </trkpt>
      <trkpt lat="45.49571" lon="4.63872">
        <ele>550.01</ele>
        <time>2013-04-13T13:31:27Z</time>
      </trkpt>
      <trkpt lat="45.49546" lon="4.63852">
        <ele>547.13</ele>
        <time>2013-04-13T13:31:32Z</time>
      </trkpt>
      <trkpt lat="45.49524" lon="4.63835">
        <ele>543.76</ele>
        <time>2013-04-13T13:31:40Z</time>
      </trkpt>
      <trkpt lat="45.49519" lon="4.63831">
        <ele>542.8</ele>
        <time>2013-04-13T13:31:42Z</time>
      </trkpt>
      <trkpt lat="45.49511" lon="4.63817">
        <ele>541.36</ele>
        <time>2013-04-13T13:31:48Z</time>
      </trkpt>
      <trkpt lat="45.49509" lon="4.63814">
        <ele>541.36</ele>
        <time>2013-04-13T13:31:49Z</time>
      </trkpt>
      <trkpt lat="45.49507" lon="4.63811">
        <ele>540.88</ele>
        <time>2013-04-13T13:31:50Z</time>
      </trkpt>
      <trkpt lat="45.49506" lon="4.63809">
        <ele>540.4</ele>
        <time>2013-04-13T13:31:51Z</time>
      </trkpt>
      <trkpt lat="45.49501" lon="4.63797">
        <ele>539.92</ele>
        <time>2013-04-13T13:31:59Z</time>
      </trkpt>
      <trkpt lat="45.49499" lon="4.63791">
        <ele>539.44</ele>
        <time>2013-04-13T13:32:00Z</time>
      </trkpt>
      <trkpt lat="45.4949" lon="4.63756">
        <ele>536.55</ele>
        <time>2013-04-13T13:32:05Z</time>
      </trkpt>
      <trkpt lat="45.49481" lon="4.63716">
        <ele>533.67</ele>
        <time>2013-04-13T13:32:09Z</time>
      </trkpt>
      <trkpt lat="45.49476" lon="4.63694">
        <ele>531.75</ele>
        <time>2013-04-13T13:32:11Z</time>
      </trkpt>
      <trkpt lat="45.49475" lon="4.63683">
        <ele>531.27</ele>
        <time>2013-04-13T13:32:12Z</time>
      </trkpt>
      <trkpt lat="45.49474" lon="4.63671">
        <ele>530.3</ele>
        <time>2013-04-13T13:32:13Z</time>
      </trkpt>
      <trkpt lat="45.49473" lon="4.63659">
        <ele>529.82</ele>
        <time>2013-04-13T13:32:14Z</time>
      </trkpt>
      <trkpt lat="45.49471" lon="4.63648">
        <ele>528.86</ele>
        <time>2013-04-13T13:32:15Z</time>
      </trkpt>
      <trkpt lat="45.49467" lon="4.63619">
        <ele>527.9</ele>
        <time>2013-04-13T13:32:18Z</time>
      </trkpt>
      <trkpt lat="45.49464" lon="4.63612">
        <ele>527.42</ele>
        <time>2013-04-13T13:32:19Z</time>
      </trkpt>
      <trkpt lat="45.4946" lon="4.63607">
        <ele>527.42</ele>
        <time>2013-04-13T13:32:20Z</time>
      </trkpt>
      <trkpt lat="45.49438" lon="4.63583">
        <ele>524.06</ele>
        <time>2013-04-13T13:32:26Z</time>
      </trkpt>
      <trkpt lat="45.49427" lon="4.63572">
        <ele>522.13</ele>
        <time>2013-04-13T13:32:29Z</time>
      </trkpt>
      <trkpt lat="45.49419" lon="4.63564">
        <ele>520.69</ele>
        <time>2013-04-13T13:32:31Z</time>
      </trkpt>
      <trkpt lat="45.49414" lon="4.63558">
        <ele>519.73</ele>
        <time>2013-04-13T13:32:33Z</time>
      </trkpt>
      <trkpt lat="45.49408" lon="4.63551">
        <ele>518.77</ele>
        <time>2013-04-13T13:32:35Z</time>
      </trkpt>
      <trkpt lat="45.49405" lon="4.63548">
        <ele>517.81</ele>
        <time>2013-04-13T13:32:36Z</time>
      </trkpt>
      <trkpt lat="45.49402" lon="4.63545">
        <ele>517.81</ele>
        <time>2013-04-13T13:32:37Z</time>
      </trkpt>
      <trkpt lat="45.49397" lon="4.63544">
        <ele>517.33</ele>
        <time>2013-04-13T13:32:38Z</time>
      </trkpt>
      <trkpt lat="45.49393" lon="4.63542">
        <ele>515.88</ele>
        <time>2013-04-13T13:32:39Z</time>
      </trkpt>
      <trkpt lat="45.49387" lon="4.6354">
        <ele>515.88</ele>
        <time>2013-04-13T13:32:40Z</time>
      </trkpt>
      <trkpt lat="45.49382" lon="4.63537">
        <ele>515.4</ele>
        <time>2013-04-13T13:32:41Z</time>
      </trkpt>
      <trkpt lat="45.49377" lon="4.63534">
        <ele>513.96</ele>
        <time>2013-04-13T13:32:42Z</time>
      </trkpt>
      <trkpt lat="45.49368" lon="4.6353">
        <ele>512.04</ele>
        <time>2013-04-13T13:32:44Z</time>
      </trkpt>
      <trkpt lat="45.49364" lon="4.63529">
        <ele>511.08</ele>
        <time>2013-04-13T13:32:45Z</time>
      </trkpt>
      <trkpt lat="45.49362" lon="4.63527">
        <ele>510.6</ele>
        <time>2013-04-13T13:32:46Z</time>
      </trkpt>
      <trkpt lat="45.4936" lon="4.63523">
        <ele>509.64</ele>
        <time>2013-04-13T13:32:47Z</time>
      </trkpt>
      <trkpt lat="45.49359" lon="4.6352">
        <ele>509.64</ele>
        <time>2013-04-13T13:32:48Z</time>
      </trkpt>
      <trkpt lat="45.4936" lon="4.63516">
        <ele>510.12</ele>
        <time>2013-04-13T13:32:49Z</time>
      </trkpt>
      <trkpt lat="45.49362" lon="4.63513">
        <ele>509.16</ele>
        <time>2013-04-13T13:32:50Z</time>
      </trkpt>
      <trkpt lat="45.49365" lon="4.6351">
        <ele>509.64</ele>
        <time>2013-04-13T13:32:51Z</time>
      </trkpt>
      <trkpt lat="45.49368" lon="4.63506">
        <ele>509.64</ele>
        <time>2013-04-13T13:32:52Z</time>
      </trkpt>
      <trkpt lat="45.49371" lon="4.63503">
        <ele>509.16</ele>
        <time>2013-04-13T13:32:53Z</time>
      </trkpt>
      <trkpt lat="45.49374" lon="4.63499">
        <ele>509.64</ele>
        <time>2013-04-13T13:32:54Z</time>
      </trkpt>
      <trkpt lat="45.49378" lon="4.63497">
        <ele>509.16</ele>
        <time>2013-04-13T13:32:55Z</time>
      </trkpt>
      <trkpt lat="45.49381" lon="4.63495">
        <ele>509.64</ele>
        <time>2013-04-13T13:32:56Z</time>
      </trkpt>
      <trkpt lat="45.49384" lon="4.63492">
        <ele>509.16</ele>
        <time>2013-04-13T13:32:57Z</time>
      </trkpt>
      <trkpt lat="45.49385" lon="4.6349">
        <ele>506.27</ele>
        <time>2013-04-13T13:33:04Z</time>
      </trkpt>
      <trkpt lat="45.49385" lon="4.63491">
        <ele>511.56</ele>
        <time>2013-04-13T13:33:05Z</time>
      </trkpt>
      <trkpt lat="45.49386" lon="4.63491">
        <ele>509.16</ele>
        <time>2013-04-13T13:33:06Z</time>
      </trkpt>
      <trkpt lat="45.49387" lon="4.63492">
        <ele>509.16</ele>
        <time>2013-04-13T13:33:25Z</time>
      </trkpt>
      <trkpt lat="45.49389" lon="4.63491">
        <ele>509.64</ele>
        <time>2013-04-13T13:33:26Z</time>
      </trkpt>
      <trkpt lat="45.49394" lon="4.63488">
        <ele>509.64</ele>
        <time>2013-04-13T13:33:28Z</time>
      </trkpt>
      <trkpt lat="45.49397" lon="4.63487">
        <ele>509.64</ele>
        <time>2013-04-13T13:33:29Z</time>
      </trkpt>
      <trkpt lat="45.494" lon="4.63485">
        <ele>509.16</ele>
        <time>2013-04-13T13:33:30Z</time>
      </trkpt>
      <trkpt lat="45.49403" lon="4.63482">
        <ele>509.64</ele>
        <time>2013-04-13T13:33:31Z</time>
      </trkpt>
      <trkpt lat="45.49406" lon="4.6348">
        <ele>509.64</ele>
        <time>2013-04-13T13:33:32Z</time>
      </trkpt>
      <trkpt lat="45.49417" lon="4.63475">
        <ele>509.16</ele>
        <time>2013-04-13T13:33:35Z</time>
      </trkpt>
      <trkpt lat="45.49422" lon="4.63473">
        <ele>509.16</ele>
        <time>2013-04-13T13:33:36Z</time>
      </trkpt>
      <trkpt lat="45.49427" lon="4.63472">
        <ele>509.16</ele>
        <time>2013-04-13T13:33:37Z</time>
      </trkpt>
      <trkpt lat="45.49432" lon="4.63471">
        <ele>508.67</ele>
        <time>2013-04-13T13:33:38Z</time>
      </trkpt>
      <trkpt lat="45.49437" lon="4.6347">
        <ele>508.19</ele>
        <time>2013-04-13T13:33:39Z</time>
      </trkpt>
      <trkpt lat="45.49442" lon="4.6347">
        <ele>508.67</ele>
        <time>2013-04-13T13:33:40Z</time>
      </trkpt>
      <trkpt lat="45.49447" lon="4.63472">
        <ele>508.67</ele>
        <time>2013-04-13T13:33:41Z</time>
      </trkpt>
      <trkpt lat="45.49466" lon="4.63476">
        <ele>508.19</ele>
        <time>2013-04-13T13:33:45Z</time>
      </trkpt>
      <trkpt lat="45.4947" lon="4.63477">
        <ele>507.71</ele>
        <time>2013-04-13T13:33:46Z</time>
      </trkpt>
      <trkpt lat="45.49475" lon="4.63477">
        <ele>507.71</ele>
        <time>2013-04-13T13:33:47Z</time>
      </trkpt>
      <trkpt lat="45.4948" lon="4.63478">
        <ele>507.71</ele>
        <time>2013-04-13T13:33:48Z</time>
      </trkpt>
      <trkpt lat="45.49485" lon="4.6348">
        <ele>507.23</ele>
        <time>2013-04-13T13:33:49Z</time>
      </trkpt>
      <trkpt lat="45.4949" lon="4.63481">
        <ele>507.23</ele>
        <time>2013-04-13T13:33:50Z</time>
      </trkpt>
      <trkpt lat="45.49495" lon="4.63483">
        <ele>507.23</ele>
        <time>2013-04-13T13:33:51Z</time>
      </trkpt>
      <trkpt lat="45.495" lon="4.63485">
        <ele>506.75</ele>
        <time>2013-04-13T13:33:52Z</time>
      </trkpt>
      <trkpt lat="45.49505" lon="4.63487">
        <ele>507.23</ele>
        <time>2013-04-13T13:33:53Z</time>
      </trkpt>
      <trkpt lat="45.4951" lon="4.6349">
        <ele>506.27</ele>
        <time>2013-04-13T13:33:54Z</time>
      </trkpt>
      <trkpt lat="45.49515" lon="4.63492">
        <ele>505.79</ele>
        <time>2013-04-13T13:33:55Z</time>
      </trkpt>
      <trkpt lat="45.49519" lon="4.63493">
        <ele>505.79</ele>
        <time>2013-04-13T13:33:56Z</time>
      </trkpt>
      <trkpt lat="45.49524" lon="4.63494">
        <ele>505.79</ele>
        <time>2013-04-13T13:33:57Z</time>
      </trkpt>
      <trkpt lat="45.49529" lon="4.63495">
        <ele>505.79</ele>
        <time>2013-04-13T13:33:58Z</time>
      </trkpt>
      <trkpt lat="45.49534" lon="4.63496">
        <ele>505.31</ele>
        <time>2013-04-13T13:33:59Z</time>
      </trkpt>
      <trkpt lat="45.49538" lon="4.63498">
        <ele>504.83</ele>
        <time>2013-04-13T13:34:00Z</time>
      </trkpt>
      <trkpt lat="45.49541" lon="4.63501">
        <ele>504.83</ele>
        <time>2013-04-13T13:34:01Z</time>
      </trkpt>
      <trkpt lat="45.49549" lon="4.63507">
        <ele>504.35</ele>
        <time>2013-04-13T13:34:03Z</time>
      </trkpt>
      <trkpt lat="45.49552" lon="4.6351">
        <ele>503.87</ele>
        <time>2013-04-13T13:34:04Z</time>
      </trkpt>
      <trkpt lat="45.49582" lon="4.63536">
        <ele>501.46</ele>
        <time>2013-04-13T13:34:15Z</time>
      </trkpt>
      <trkpt lat="45.49602" lon="4.63555">
        <ele>500.98</ele>
        <time>2013-04-13T13:34:22Z</time>
      </trkpt>
      <trkpt lat="45.49606" lon="4.63558">
        <ele>500.5</ele>
        <time>2013-04-13T13:34:23Z</time>
      </trkpt>
      <trkpt lat="45.49635" lon="4.63575">
        <ele>498.58</ele>
        <time>2013-04-13T13:34:29Z</time>
      </trkpt>
      <trkpt lat="45.49641" lon="4.63576">
        <ele>498.1</ele>
        <time>2013-04-13T13:34:30Z</time>
      </trkpt>
      <trkpt lat="45.49647" lon="4.63576">
        <ele>498.1</ele>
        <time>2013-04-13T13:34:31Z</time>
      </trkpt>
      <trkpt lat="45.49654" lon="4.63575">
        <ele>497.14</ele>
        <time>2013-04-13T13:34:32Z</time>
      </trkpt>
      <trkpt lat="45.49662" lon="4.63577">
        <ele>496.18</ele>
        <time>2013-04-13T13:34:33Z</time>
      </trkpt>
      <trkpt lat="45.49669" lon="4.6358">
        <ele>495.7</ele>
        <time>2013-04-13T13:34:34Z</time>
      </trkpt>
      <trkpt lat="45.49677" lon="4.63584">
        <ele>494.74</ele>
        <time>2013-04-13T13:34:35Z</time>
      </trkpt>
      <trkpt lat="45.49692" lon="4.63593">
        <ele>492.81</ele>
        <time>2013-04-13T13:34:37Z</time>
      </trkpt>
      <trkpt lat="45.49706" lon="4.63606">
        <ele>491.37</ele>
        <time>2013-04-13T13:34:39Z</time>
      </trkpt>
      <trkpt lat="45.49713" lon="4.63613">
        <ele>491.37</ele>
        <time>2013-04-13T13:34:40Z</time>
      </trkpt>
      <trkpt lat="45.4972" lon="4.63618">
        <ele>490.89</ele>
        <time>2013-04-13T13:34:41Z</time>
      </trkpt>
      <trkpt lat="45.49728" lon="4.63621">
        <ele>490.89</ele>
        <time>2013-04-13T13:34:42Z</time>
      </trkpt>
      <trkpt lat="45.49736" lon="4.63624">
        <ele>490.41</ele>
        <time>2013-04-13T13:34:43Z</time>
      </trkpt>
      <trkpt lat="45.49743" lon="4.63626">
        <ele>489.93</ele>
        <time>2013-04-13T13:34:44Z</time>
      </trkpt>
      <trkpt lat="45.49751" lon="4.6363">
        <ele>489.45</ele>
        <time>2013-04-13T13:34:45Z</time>
      </trkpt>
      <trkpt lat="45.49758" lon="4.63634">
        <ele>489.45</ele>
        <time>2013-04-13T13:34:46Z</time>
      </trkpt>
      <trkpt lat="45.49765" lon="4.6364">
        <ele>488.01</ele>
        <time>2013-04-13T13:34:47Z</time>
      </trkpt>
      <trkpt lat="45.4977" lon="4.63649">
        <ele>487.05</ele>
        <time>2013-04-13T13:34:48Z</time>
      </trkpt>
      <trkpt lat="45.49773" lon="4.63658">
        <ele>486.56</ele>
        <time>2013-04-13T13:34:49Z</time>
      </trkpt>
      <trkpt lat="45.49776" lon="4.63668">
        <ele>486.56</ele>
        <time>2013-04-13T13:34:50Z</time>
      </trkpt>
      <trkpt lat="45.49778" lon="4.63678">
        <ele>485.6</ele>
        <time>2013-04-13T13:34:51Z</time>
      </trkpt>
      <trkpt lat="45.4978" lon="4.63688">
        <ele>485.12</ele>
        <time>2013-04-13T13:34:52Z</time>
      </trkpt>
      <trkpt lat="45.49784" lon="4.63696">
        <ele>485.12</ele>
        <time>2013-04-13T13:34:53Z</time>
      </trkpt>
      <trkpt lat="45.49788" lon="4.63701">
        <ele>485.12</ele>
        <time>2013-04-13T13:34:54Z</time>
      </trkpt>
      <trkpt lat="45.49793" lon="4.63704">
        <ele>485.12</ele>
        <time>2013-04-13T13:34:55Z</time>
      </trkpt>
      <trkpt lat="45.49798" lon="4.63705">
        <ele>485.6</ele>
        <time>2013-04-13T13:34:56Z</time>
      </trkpt>
      <trkpt lat="45.49802" lon="4.63705">
        <ele>484.64</ele>
        <time>2013-04-13T13:34:57Z</time>
      </trkpt>
      <trkpt lat="45.49807" lon="4.63706">
        <ele>485.6</ele>
        <time>2013-04-13T13:34:58Z</time>
      </trkpt>
      <trkpt lat="45.49832" lon="4.63708">
        <ele>483.68</ele>
        <time>2013-04-13T13:35:03Z</time>
      </trkpt>
      <trkpt lat="45.49837" lon="4.6371">
        <ele>483.68</ele>
        <time>2013-04-13T13:35:04Z</time>
      </trkpt>
      <trkpt lat="45.49843" lon="4.63713">
        <ele>482.24</ele>
        <time>2013-04-13T13:35:05Z</time>
      </trkpt>
      <trkpt lat="45.49882" lon="4.6374">
        <ele>478.87</ele>
        <time>2013-04-13T13:35:11Z</time>
      </trkpt>
      <trkpt lat="45.4989" lon="4.63742">
        <ele>477.91</ele>
        <time>2013-04-13T13:35:12Z</time>
      </trkpt>
      <trkpt lat="45.49898" lon="4.63743">
        <ele>477.91</ele>
        <time>2013-04-13T13:35:13Z</time>
      </trkpt>
      <trkpt lat="45.49906" lon="4.63744">
        <ele>477.91</ele>
        <time>2013-04-13T13:35:14Z</time>
      </trkpt>
      <trkpt lat="45.49914" lon="4.63743">
        <ele>477.43</ele>
        <time>2013-04-13T13:35:15Z</time>
      </trkpt>
      <trkpt lat="45.49922" lon="4.6374">
        <ele>477.43</ele>
        <time>2013-04-13T13:35:16Z</time>
      </trkpt>
      <trkpt lat="45.49945" lon="4.63725">
        <ele>477.43</ele>
        <time>2013-04-13T13:35:20Z</time>
      </trkpt>
      <trkpt lat="45.49951" lon="4.63723">
        <ele>476.95</ele>
        <time>2013-04-13T13:35:21Z</time>
      </trkpt>
      <trkpt lat="45.49958" lon="4.63722">
        <ele>476.95</ele>
        <time>2013-04-13T13:35:22Z</time>
      </trkpt>
      <trkpt lat="45.49963" lon="4.6372">
        <ele>476.47</ele>
        <time>2013-04-13T13:35:23Z</time>
      </trkpt>
      <trkpt lat="45.49967" lon="4.63718">
        <ele>475.03</ele>
        <time>2013-04-13T13:35:24Z</time>
      </trkpt>
      <trkpt lat="45.49981" lon="4.63711">
        <ele>474.55</ele>
        <time>2013-04-13T13:35:29Z</time>
      </trkpt>
      <trkpt lat="45.49987" lon="4.63708">
        <ele>474.55</ele>
        <time>2013-04-13T13:35:30Z</time>
      </trkpt>
      <trkpt lat="45.49994" lon="4.63703">
        <ele>474.07</ele>
        <time>2013-04-13T13:35:31Z</time>
      </trkpt>
      <trkpt lat="45.50001" lon="4.63699">
        <ele>473.59</ele>
        <time>2013-04-13T13:35:32Z</time>
      </trkpt>
      <trkpt lat="45.50009" lon="4.63694">
        <ele>471.66</ele>
        <time>2013-04-13T13:35:33Z</time>
      </trkpt>
      <trkpt lat="45.50036" lon="4.63683">
        <ele>468.78</ele>
        <time>2013-04-13T13:35:36Z</time>
      </trkpt>
      <trkpt lat="45.50045" lon="4.63682">
        <ele>467.82</ele>
        <time>2013-04-13T13:35:37Z</time>
      </trkpt>
      <trkpt lat="45.50083" lon="4.63681">
        <ele>463.01</ele>
        <time>2013-04-13T13:35:41Z</time>
      </trkpt>
      <trkpt lat="45.50112" lon="4.6368">
        <ele>459.65</ele>
        <time>2013-04-13T13:35:44Z</time>
      </trkpt>
      <trkpt lat="45.50132" lon="4.63684">
        <ele>456.76</ele>
        <time>2013-04-13T13:35:46Z</time>
      </trkpt>
      <trkpt lat="45.50153" lon="4.63694">
        <ele>454.36</ele>
        <time>2013-04-13T13:35:48Z</time>
      </trkpt>
      <trkpt lat="45.50184" lon="4.63713">
        <ele>450.52</ele>
        <time>2013-04-13T13:35:51Z</time>
      </trkpt>
      <trkpt lat="45.50212" lon="4.63733">
        <ele>446.19</ele>
        <time>2013-04-13T13:35:54Z</time>
      </trkpt>
      <trkpt lat="45.50219" lon="4.63739">
        <ele>445.71</ele>
        <time>2013-04-13T13:35:55Z</time>
      </trkpt>
      <trkpt lat="45.50231" lon="4.63751">
        <ele>442.34</ele>
        <time>2013-04-13T13:35:57Z</time>
      </trkpt>
      <trkpt lat="45.50245" lon="4.63783">
        <ele>439.46</ele>
        <time>2013-04-13T13:36:03Z</time>
      </trkpt>
      <trkpt lat="45.50249" lon="4.63796">
        <ele>437.06</ele>
        <time>2013-04-13T13:36:05Z</time>
      </trkpt>
      <trkpt lat="45.50251" lon="4.63804">
        <ele>438.02</ele>
        <time>2013-04-13T13:36:06Z</time>
      </trkpt>
      <trkpt lat="45.5026" lon="4.63841">
        <ele>435.61</ele>
        <time>2013-04-13T13:36:10Z</time>
      </trkpt>
      <trkpt lat="45.50263" lon="4.63849">
        <ele>435.61</ele>
        <time>2013-04-13T13:36:11Z</time>
      </trkpt>
      <trkpt lat="45.50266" lon="4.63856">
        <ele>434.65</ele>
        <time>2013-04-13T13:36:12Z</time>
      </trkpt>
      <trkpt lat="45.50276" lon="4.63873">
        <ele>435.13</ele>
        <time>2013-04-13T13:36:19Z</time>
      </trkpt>
      <trkpt lat="45.50278" lon="4.63879">
        <ele>436.1</ele>
        <time>2013-04-13T13:36:21Z</time>
      </trkpt>
      <trkpt lat="45.5028" lon="4.63884">
        <ele>435.61</ele>
        <time>2013-04-13T13:36:23Z</time>
      </trkpt>
      <trkpt lat="45.50281" lon="4.63886">
        <ele>436.58</ele>
        <time>2013-04-13T13:36:24Z</time>
      </trkpt>
      <trkpt lat="45.50283" lon="4.63887">
        <ele>436.1</ele>
        <time>2013-04-13T13:36:25Z</time>
      </trkpt>
      <trkpt lat="45.50284" lon="4.6389">
        <ele>436.1</ele>
        <time>2013-04-13T13:36:26Z</time>
      </trkpt>
      <trkpt lat="45.50285" lon="4.63892">
        <ele>436.1</ele>
        <time>2013-04-13T13:36:27Z</time>
      </trkpt>
      <trkpt lat="45.50309" lon="4.6394">
        <ele>433.69</ele>
        <time>2013-04-13T13:36:40Z</time>
      </trkpt>
      <trkpt lat="45.50312" lon="4.63946">
        <ele>433.21</ele>
        <time>2013-04-13T13:36:41Z</time>
      </trkpt>
      <trkpt lat="45.50314" lon="4.63953">
        <ele>433.21</ele>
        <time>2013-04-13T13:36:42Z</time>
      </trkpt>
      <trkpt lat="45.50316" lon="4.63959">
        <ele>432.25</ele>
        <time>2013-04-13T13:36:43Z</time>
      </trkpt>
      <trkpt lat="45.50319" lon="4.63963">
        <ele>431.29</ele>
        <time>2013-04-13T13:36:44Z</time>
      </trkpt>
      <trkpt lat="45.50323" lon="4.63963">
        <ele>430.81</ele>
        <time>2013-04-13T13:36:45Z</time>
      </trkpt>
      <trkpt lat="45.50327" lon="4.63959">
        <ele>429.37</ele>
        <time>2013-04-13T13:36:46Z</time>
      </trkpt>
      <trkpt lat="45.50332" lon="4.63954">
        <ele>428.89</ele>
        <time>2013-04-13T13:36:47Z</time>
      </trkpt>
      <trkpt lat="45.50336" lon="4.63948">
        <ele>427.92</ele>
        <time>2013-04-13T13:36:48Z</time>
      </trkpt>
      <trkpt lat="45.50342" lon="4.63937">
        <ele>425.52</ele>
        <time>2013-04-13T13:36:50Z</time>
      </trkpt>
      <trkpt lat="45.50345" lon="4.6393">
        <ele>425.52</ele>
        <time>2013-04-13T13:36:51Z</time>
      </trkpt>
      <trkpt lat="45.50354" lon="4.63907">
        <ele>422.16</ele>
        <time>2013-04-13T13:36:54Z</time>
      </trkpt>
      <trkpt lat="45.50356" lon="4.63899">
        <ele>422.16</ele>
        <time>2013-04-13T13:36:55Z</time>
      </trkpt>
      <trkpt lat="45.50363" lon="4.63874">
        <ele>419.27</ele>
        <time>2013-04-13T13:36:58Z</time>
      </trkpt>
      <trkpt lat="45.50363" lon="4.63865">
        <ele>418.79</ele>
        <time>2013-04-13T13:36:59Z</time>
      </trkpt>
      <trkpt lat="45.50363" lon="4.63857">
        <ele>417.35</ele>
        <time>2013-04-13T13:37:00Z</time>
      </trkpt>
      <trkpt lat="45.50363" lon="4.6385">
        <ele>416.87</ele>
        <time>2013-04-13T13:37:01Z</time>
      </trkpt>
      <trkpt lat="45.50364" lon="4.63844">
        <ele>415.91</ele>
        <time>2013-04-13T13:37:02Z</time>
      </trkpt>
      <trkpt lat="45.50366" lon="4.63842">
        <ele>415.43</ele>
        <time>2013-04-13T13:37:03Z</time>
      </trkpt>
      <trkpt lat="45.50368" lon="4.63844">
        <ele>414.95</ele>
        <time>2013-04-13T13:37:04Z</time>
      </trkpt>
      <trkpt lat="45.50369" lon="4.63848">
        <ele>414.95</ele>
        <time>2013-04-13T13:37:05Z</time>
      </trkpt>
      <trkpt lat="45.50371" lon="4.63856">
        <ele>414.47</ele>
        <time>2013-04-13T13:37:06Z</time>
      </trkpt>
      <trkpt lat="45.50374" lon="4.63863">
        <ele>412.06</ele>
        <time>2013-04-13T13:37:07Z</time>
      </trkpt>
      <trkpt lat="45.50376" lon="4.6387">
        <ele>415.43</ele>
        <time>2013-04-13T13:37:08Z</time>
      </trkpt>
      <trkpt lat="45.50379" lon="4.63877">
        <ele>413.5</ele>
        <time>2013-04-13T13:37:09Z</time>
      </trkpt>
      <trkpt lat="45.50381" lon="4.63886">
        <ele>413.02</ele>
        <time>2013-04-13T13:37:10Z</time>
      </trkpt>
      <trkpt lat="45.50382" lon="4.63894">
        <ele>412.54</ele>
        <time>2013-04-13T13:37:11Z</time>
      </trkpt>
      <trkpt lat="45.50387" lon="4.63962">
        <ele>409.18</ele>
        <time>2013-04-13T13:37:18Z</time>
      </trkpt>
      <trkpt lat="45.50387" lon="4.63983">
        <ele>408.22</ele>
        <time>2013-04-13T13:37:20Z</time>
      </trkpt>
      <trkpt lat="45.50385" lon="4.63993">
        <ele>407.74</ele>
        <time>2013-04-13T13:37:21Z</time>
      </trkpt>
      <trkpt lat="45.50383" lon="4.64003">
        <ele>407.74</ele>
        <time>2013-04-13T13:37:22Z</time>
      </trkpt>
      <trkpt lat="45.50379" lon="4.64012">
        <ele>407.26</ele>
        <time>2013-04-13T13:37:23Z</time>
      </trkpt>
      <trkpt lat="45.50374" lon="4.64019">
        <ele>406.77</ele>
        <time>2013-04-13T13:37:24Z</time>
      </trkpt>
      <trkpt lat="45.5037" lon="4.64028">
        <ele>405.33</ele>
        <time>2013-04-13T13:37:25Z</time>
      </trkpt>
      <trkpt lat="45.50367" lon="4.64038">
        <ele>404.85</ele>
        <time>2013-04-13T13:37:26Z</time>
      </trkpt>
      <trkpt lat="45.50366" lon="4.64048">
        <ele>404.37</ele>
        <time>2013-04-13T13:37:27Z</time>
      </trkpt>
      <trkpt lat="45.50367" lon="4.64059">
        <ele>404.37</ele>
        <time>2013-04-13T13:37:28Z</time>
      </trkpt>
      <trkpt lat="45.5037" lon="4.64069">
        <ele>402.93</ele>
        <time>2013-04-13T13:37:29Z</time>
      </trkpt>
      <trkpt lat="45.50374" lon="4.64078">
        <ele>402.45</ele>
        <time>2013-04-13T13:37:30Z</time>
      </trkpt>
      <trkpt lat="45.50379" lon="4.64084">
        <ele>401.01</ele>
        <time>2013-04-13T13:37:31Z</time>
      </trkpt>
      <trkpt lat="45.50385" lon="4.64088">
        <ele>401.01</ele>
        <time>2013-04-13T13:37:32Z</time>
      </trkpt>
      <trkpt lat="45.50391" lon="4.64091">
        <ele>400.53</ele>
        <time>2013-04-13T13:37:33Z</time>
      </trkpt>
      <trkpt lat="45.50399" lon="4.64092">
        <ele>400.05</ele>
        <time>2013-04-13T13:37:34Z</time>
      </trkpt>
      <trkpt lat="45.50407" lon="4.6409">
        <ele>399.08</ele>
        <time>2013-04-13T13:37:35Z</time>
      </trkpt>
      <trkpt lat="45.50417" lon="4.64085">
        <ele>399.08</ele>
        <time>2013-04-13T13:37:36Z</time>
      </trkpt>
      <trkpt lat="45.50426" lon="4.6408">
        <ele>398.12</ele>
        <time>2013-04-13T13:37:37Z</time>
      </trkpt>
      <trkpt lat="45.50434" lon="4.64073">
        <ele>397.64</ele>
        <time>2013-04-13T13:37:38Z</time>
      </trkpt>
      <trkpt lat="45.50441" lon="4.64069">
        <ele>397.16</ele>
        <time>2013-04-13T13:37:39Z</time>
      </trkpt>
      <trkpt lat="45.50453" lon="4.64063">
        <ele>396.2</ele>
        <time>2013-04-13T13:37:41Z</time>
      </trkpt>
      <trkpt lat="45.50456" lon="4.64064">
        <ele>395.24</ele>
        <time>2013-04-13T13:37:42Z</time>
      </trkpt>
      <trkpt lat="45.50461" lon="4.64068">
        <ele>394.76</ele>
        <time>2013-04-13T13:37:44Z</time>
      </trkpt>
      <trkpt lat="45.50461" lon="4.64072">
        <ele>394.28</ele>
        <time>2013-04-13T13:37:45Z</time>
      </trkpt>
      <trkpt lat="45.5046" lon="4.64076">
        <ele>394.28</ele>
        <time>2013-04-13T13:37:46Z</time>
      </trkpt>
      <trkpt lat="45.50455" lon="4.64099">
        <ele>392.84</ele>
        <time>2013-04-13T13:37:50Z</time>
      </trkpt>
      <trkpt lat="45.50456" lon="4.64104">
        <ele>392.36</ele>
        <time>2013-04-13T13:37:51Z</time>
      </trkpt>
      <trkpt lat="45.50458" lon="4.64108">
        <ele>391.87</ele>
        <time>2013-04-13T13:37:52Z</time>
      </trkpt>
      <trkpt lat="45.50462" lon="4.6411">
        <ele>391.39</ele>
        <time>2013-04-13T13:37:53Z</time>
      </trkpt>
      <trkpt lat="45.50466" lon="4.6411">
        <ele>390.91</ele>
        <time>2013-04-13T13:37:54Z</time>
      </trkpt>
      <trkpt lat="45.50471" lon="4.64107">
        <ele>389.95</ele>
        <time>2013-04-13T13:37:55Z</time>
      </trkpt>
      <trkpt lat="45.50474" lon="4.64103">
        <ele>390.43</ele>
        <time>2013-04-13T13:37:56Z</time>
      </trkpt>
      <trkpt lat="45.50478" lon="4.641">
        <ele>390.43</ele>
        <time>2013-04-13T13:37:57Z</time>
      </trkpt>
      <trkpt lat="45.50482" lon="4.64097">
        <ele>389.47</ele>
        <time>2013-04-13T13:37:58Z</time>
      </trkpt>
      <trkpt lat="45.50484" lon="4.64095">
        <ele>389.47</ele>
        <time>2013-04-13T13:37:59Z</time>
      </trkpt>
      <trkpt lat="45.50489" lon="4.64089">
        <ele>389.47</ele>
        <time>2013-04-13T13:38:00Z</time>
      </trkpt>
      <trkpt lat="45.50501" lon="4.64079">
        <ele>388.03</ele>
        <time>2013-04-13T13:38:03Z</time>
      </trkpt>
      <trkpt lat="45.50533" lon="4.64054">
        <ele>385.15</ele>
        <time>2013-04-13T13:38:15Z</time>
      </trkpt>
      <trkpt lat="45.50544" lon="4.64045">
        <ele>384.66</ele>
        <time>2013-04-13T13:38:21Z</time>
      </trkpt>
      <trkpt lat="45.50564" lon="4.64043">
        <ele>383.7</ele>
        <time>2013-04-13T13:38:26Z</time>
      </trkpt>
      <trkpt lat="45.50569" lon="4.64038">
        <ele>383.22</ele>
        <time>2013-04-13T13:38:27Z</time>
      </trkpt>
      <trkpt lat="45.50578" lon="4.64026">
        <ele>382.26</ele>
        <time>2013-04-13T13:38:29Z</time>
      </trkpt>
      <trkpt lat="45.50581" lon="4.64021">
        <ele>381.3</ele>
        <time>2013-04-13T13:38:30Z</time>
      </trkpt>
      <trkpt lat="45.50582" lon="4.64016">
        <ele>384.66</ele>
        <time>2013-04-13T13:38:31Z</time>
      </trkpt>
      <trkpt lat="45.5058" lon="4.64009">
        <ele>381.78</ele>
        <time>2013-04-13T13:38:32Z</time>
      </trkpt>
      <trkpt lat="45.50575" lon="4.63999">
        <ele>380.82</ele>
        <time>2013-04-13T13:38:33Z</time>
      </trkpt>
      <trkpt lat="45.5057" lon="4.6399">
        <ele>379.86</ele>
        <time>2013-04-13T13:38:34Z</time>
      </trkpt>
      <trkpt lat="45.50568" lon="4.63985">
        <ele>379.86</ele>
        <time>2013-04-13T13:38:35Z</time>
      </trkpt>
      <trkpt lat="45.50565" lon="4.63979">
        <ele>379.86</ele>
        <time>2013-04-13T13:38:36Z</time>
      </trkpt>
      <trkpt lat="45.50563" lon="4.63973">
        <ele>379.86</ele>
        <time>2013-04-13T13:38:37Z</time>
      </trkpt>
      <trkpt lat="45.50547" lon="4.63936">
        <ele>376.97</ele>
        <time>2013-04-13T13:38:43Z</time>
      </trkpt>
      <trkpt lat="45.50539" lon="4.63907">
        <ele>375.53</ele>
        <time>2013-04-13T13:38:46Z</time>
      </trkpt>
      <trkpt lat="45.50529" lon="4.6386">
        <ele>372.65</ele>
        <time>2013-04-13T13:38:50Z</time>
      </trkpt>
      <trkpt lat="45.50525" lon="4.63838">
        <ele>371.69</ele>
        <time>2013-04-13T13:38:52Z</time>
      </trkpt>
      <trkpt lat="45.50522" lon="4.6382">
        <ele>369.76</ele>
        <time>2013-04-13T13:38:53Z</time>
      </trkpt>
      <trkpt lat="45.50514" lon="4.63766">
        <ele>366.88</ele>
        <time>2013-04-13T13:38:57Z</time>
      </trkpt>
      <trkpt lat="45.50509" lon="4.63733">
        <ele>364.96</ele>
        <time>2013-04-13T13:39:00Z</time>
      </trkpt>
      <trkpt lat="45.50509" lon="4.63723">
        <ele>364</ele>
        <time>2013-04-13T13:39:01Z</time>
      </trkpt>
      <trkpt lat="45.50509" lon="4.63714">
        <ele>363.52</ele>
        <time>2013-04-13T13:39:02Z</time>
      </trkpt>
      <trkpt lat="45.5051" lon="4.63703">
        <ele>362.07</ele>
        <time>2013-04-13T13:39:03Z</time>
      </trkpt>
      <trkpt lat="45.50511" lon="4.63691">
        <ele>362.07</ele>
        <time>2013-04-13T13:39:04Z</time>
      </trkpt>
      <trkpt lat="45.50513" lon="4.63679">
        <ele>360.15</ele>
        <time>2013-04-13T13:39:05Z</time>
      </trkpt>
      <trkpt lat="45.50515" lon="4.63666">
        <ele>359.67</ele>
        <time>2013-04-13T13:39:06Z</time>
      </trkpt>
      <trkpt lat="45.50515" lon="4.63653">
        <ele>359.19</ele>
        <time>2013-04-13T13:39:07Z</time>
      </trkpt>
      <trkpt lat="45.50514" lon="4.6364">
        <ele>358.71</ele>
        <time>2013-04-13T13:39:08Z</time>
      </trkpt>
      <trkpt lat="45.50508" lon="4.63614">
        <ele>356.79</ele>
        <time>2013-04-13T13:39:10Z</time>
      </trkpt>
      <trkpt lat="45.50503" lon="4.636">
        <ele>354.86</ele>
        <time>2013-04-13T13:39:11Z</time>
      </trkpt>
      <trkpt lat="45.50501" lon="4.63586">
        <ele>354.38</ele>
        <time>2013-04-13T13:39:12Z</time>
      </trkpt>
      <trkpt lat="45.50494" lon="4.63557">
        <ele>352.46</ele>
        <time>2013-04-13T13:39:14Z</time>
      </trkpt>
      <trkpt lat="45.5049" lon="4.63544">
        <ele>351.98</ele>
        <time>2013-04-13T13:39:15Z</time>
      </trkpt>
      <trkpt lat="45.5048" lon="4.63505">
        <ele>348.13</ele>
        <time>2013-04-13T13:39:18Z</time>
      </trkpt>
      <trkpt lat="45.50478" lon="4.63491">
        <ele>347.17</ele>
        <time>2013-04-13T13:39:19Z</time>
      </trkpt>
      <trkpt lat="45.50476" lon="4.63461">
        <ele>344.77</ele>
        <time>2013-04-13T13:39:21Z</time>
      </trkpt>
      <trkpt lat="45.50477" lon="4.63398">
        <ele>341.41</ele>
        <time>2013-04-13T13:39:25Z</time>
      </trkpt>
      <trkpt lat="45.50476" lon="4.63384">
        <ele>339.96</ele>
        <time>2013-04-13T13:39:26Z</time>
      </trkpt>
      <trkpt lat="45.50473" lon="4.63355">
        <ele>336.12</ele>
        <time>2013-04-13T13:39:29Z</time>
      </trkpt>
      <trkpt lat="45.50471" lon="4.63337">
        <ele>333.71</ele>
        <time>2013-04-13T13:39:32Z</time>
      </trkpt>
      <trkpt lat="45.50472" lon="4.63304">
        <ele>331.31</ele>
        <time>2013-04-13T13:39:41Z</time>
      </trkpt>
      <trkpt lat="45.50471" lon="4.633">
        <ele>330.83</ele>
        <time>2013-04-13T13:39:43Z</time>
      </trkpt>
      <trkpt lat="45.5047" lon="4.63299">
        <ele>330.83</ele>
        <time>2013-04-13T13:39:44Z</time>
      </trkpt>
      <trkpt lat="45.50467" lon="4.63299">
        <ele>330.83</ele>
        <time>2013-04-13T13:39:52Z</time>
      </trkpt>
      <trkpt lat="45.50466" lon="4.63301">
        <ele>330.83</ele>
        <time>2013-04-13T13:39:53Z</time>
      </trkpt>
      <trkpt lat="45.50465" lon="4.63302">
        <ele>330.35</ele>
        <time>2013-04-13T13:39:54Z</time>
      </trkpt>
      <trkpt lat="45.50464" lon="4.63304">
        <ele>331.31</ele>
        <time>2013-04-13T13:39:55Z</time>
      </trkpt>
      <trkpt lat="45.50462" lon="4.63304">
        <ele>330.83</ele>
        <time>2013-04-13T13:39:56Z</time>
      </trkpt>
      <trkpt lat="45.50439" lon="4.63291">
        <ele>331.79</ele>
        <time>2013-04-13T13:40:08Z</time>
      </trkpt>
      <trkpt lat="45.50436" lon="4.63286">
        <ele>332.27</ele>
        <time>2013-04-13T13:40:11Z</time>
      </trkpt>
      <trkpt lat="45.50436" lon="4.63293">
        <ele>332.27</ele>
        <time>2013-04-13T13:40:13Z</time>
      </trkpt>
      <trkpt lat="45.50437" lon="4.63296">
        <ele>332.27</ele>
        <time>2013-04-13T13:40:14Z</time>
      </trkpt>
      <trkpt lat="45.5044" lon="4.63299">
        <ele>332.27</ele>
        <time>2013-04-13T13:40:15Z</time>
      </trkpt>
      <trkpt lat="45.50443" lon="4.63303">
        <ele>331.79</ele>
        <time>2013-04-13T13:40:16Z</time>
      </trkpt>
      <trkpt lat="45.50447" lon="4.63306">
        <ele>331.79</ele>
        <time>2013-04-13T13:40:17Z</time>
      </trkpt>
      <trkpt lat="45.50451" lon="4.63309">
        <ele>331.31</ele>
        <time>2013-04-13T13:40:18Z</time>
      </trkpt>
      <trkpt lat="45.50455" lon="4.63311">
        <ele>331.31</ele>
        <time>2013-04-13T13:40:19Z</time>
      </trkpt>
      <trkpt lat="45.5046" lon="4.63312">
        <ele>330.83</ele>
        <time>2013-04-13T13:40:20Z</time>
      </trkpt>
      <trkpt lat="45.50464" lon="4.63312">
        <ele>331.31</ele>
        <time>2013-04-13T13:40:21Z</time>
      </trkpt>
      <trkpt lat="45.50468" lon="4.63311">
        <ele>331.31</ele>
        <time>2013-04-13T13:40:22Z</time>
      </trkpt>
      <trkpt lat="45.50476" lon="4.63311">
        <ele>331.31</ele>
        <time>2013-04-13T13:40:25Z</time>
      </trkpt>
      <trkpt lat="45.50478" lon="4.63309">
        <ele>330.83</ele>
        <time>2013-04-13T13:40:26Z</time>
      </trkpt>
      <trkpt lat="45.50477" lon="4.63306">
        <ele>331.31</ele>
        <time>2013-04-13T13:40:27Z</time>
      </trkpt>
      <trkpt lat="45.50475" lon="4.63304">
        <ele>331.31</ele>
        <time>2013-04-13T13:40:28Z</time>
      </trkpt>
      <trkpt lat="45.50473" lon="4.63304">
        <ele>331.31</ele>
        <time>2013-04-13T13:40:29Z</time>
      </trkpt>
      <trkpt lat="45.50471" lon="4.63303">
        <ele>330.83</ele>
        <time>2013-04-13T13:40:30Z</time>
      </trkpt>
      <trkpt lat="45.50469" lon="4.63303">
        <ele>330.83</ele>
        <time>2013-04-13T13:40:31Z</time>
      </trkpt>
      <trkpt lat="45.50468" lon="4.63304">
        <ele>330.83</ele>
        <time>2013-04-13T13:40:32Z</time>
      </trkpt>
      <trkpt lat="45.50464" lon="4.63303">
        <ele>329.39</ele>
        <time>2013-04-13T13:40:44Z</time>
      </trkpt>
      <trkpt lat="45.5046" lon="4.633">
        <ele>327.47</ele>
        <time>2013-04-13T13:40:55Z</time>
      </trkpt>
      <trkpt lat="45.50459" lon="4.63299">
        <ele>327.47</ele>
        <time>2013-04-13T13:40:56Z</time>
      </trkpt>
      <trkpt lat="45.50457" lon="4.63298">
        <ele>327.47</ele>
        <time>2013-04-13T13:40:57Z</time>
      </trkpt>
      <trkpt lat="45.50455" lon="4.63297">
        <ele>327.47</ele>
        <time>2013-04-13T13:40:58Z</time>
      </trkpt>
      <trkpt lat="45.50454" lon="4.63295">
        <ele>326.99</ele>
        <time>2013-04-13T13:40:59Z</time>
      </trkpt>
      <trkpt lat="45.50452" lon="4.63293">
        <ele>327.47</ele>
        <time>2013-04-13T13:41:00Z</time>
      </trkpt>
      <trkpt lat="45.50451" lon="4.63291">
        <ele>327.47</ele>
        <time>2013-04-13T13:41:01Z</time>
      </trkpt>
      <trkpt lat="45.5045" lon="4.63288">
        <ele>326.5</ele>
        <time>2013-04-13T13:41:02Z</time>
      </trkpt>
      <trkpt lat="45.50449" lon="4.63286">
        <ele>328.91</ele>
        <time>2013-04-13T13:41:03Z</time>
      </trkpt>
      <trkpt lat="45.50449" lon="4.63283">
        <ele>327.47</ele>
        <time>2013-04-13T13:41:04Z</time>
      </trkpt>
      <trkpt lat="45.50448" lon="4.63279">
        <ele>327.47</ele>
        <time>2013-04-13T13:41:05Z</time>
      </trkpt>
      <trkpt lat="45.50447" lon="4.63276">
        <ele>327.47</ele>
        <time>2013-04-13T13:41:06Z</time>
      </trkpt>
      <trkpt lat="45.50447" lon="4.63272">
        <ele>327.47</ele>
        <time>2013-04-13T13:41:07Z</time>
      </trkpt>
      <trkpt lat="45.50446" lon="4.63267">
        <ele>327.47</ele>
        <time>2013-04-13T13:41:08Z</time>
      </trkpt>
      <trkpt lat="45.50445" lon="4.63262">
        <ele>327.47</ele>
        <time>2013-04-13T13:41:09Z</time>
      </trkpt>
      <trkpt lat="45.50443" lon="4.63257">
        <ele>326.99</ele>
        <time>2013-04-13T13:41:10Z</time>
      </trkpt>
      <trkpt lat="45.50425" lon="4.63205">
        <ele>327.47</ele>
        <time>2013-04-13T13:41:22Z</time>
      </trkpt>
      <trkpt lat="45.50418" lon="4.63196">
        <ele>327.47</ele>
        <time>2013-04-13T13:41:25Z</time>
      </trkpt>
      <trkpt lat="45.50414" lon="4.63195">
        <ele>327.95</ele>
        <time>2013-04-13T13:41:26Z</time>
      </trkpt>
      <trkpt lat="45.50411" lon="4.63196">
        <ele>327.95</ele>
        <time>2013-04-13T13:41:27Z</time>
      </trkpt>
      <trkpt lat="45.50408" lon="4.63198">
        <ele>327.95</ele>
        <time>2013-04-13T13:41:28Z</time>
      </trkpt>
      <trkpt lat="45.50406" lon="4.632">
        <ele>327.95</ele>
        <time>2013-04-13T13:41:29Z</time>
      </trkpt>
      <trkpt lat="45.50362" lon="4.63225">
        <ele>328.43</ele>
        <time>2013-04-13T13:41:43Z</time>
      </trkpt>
      <trkpt lat="45.50358" lon="4.63227">
        <ele>328.43</ele>
        <time>2013-04-13T13:41:44Z</time>
      </trkpt>
      <trkpt lat="45.50305" lon="4.63252">
        <ele>328.43</ele>
        <time>2013-04-13T13:41:58Z</time>
      </trkpt>
      <trkpt lat="45.50264" lon="4.63226">
        <ele>328.91</ele>
        <time>2013-04-13T13:42:10Z</time>
      </trkpt>
      <trkpt lat="45.50244" lon="4.63181">
        <ele>328.91</ele>
        <time>2013-04-13T13:42:20Z</time>
      </trkpt>
      <trkpt lat="45.50235" lon="4.63146">
        <ele>328.91</ele>
        <time>2013-04-13T13:42:28Z</time>
      </trkpt>
      <trkpt lat="45.50232" lon="4.63145">
        <ele>328.91</ele>
        <time>2013-04-13T13:42:29Z</time>
      </trkpt>
      <trkpt lat="45.50218" lon="4.63142">
        <ele>327.95</ele>
        <time>2013-04-13T13:42:34Z</time>
      </trkpt>
      <trkpt lat="45.50216" lon="4.63141">
        <ele>327.95</ele>
        <time>2013-04-13T13:42:35Z</time>
      </trkpt>
      <trkpt lat="45.50213" lon="4.63139">
        <ele>327.47</ele>
        <time>2013-04-13T13:42:37Z</time>
      </trkpt>
      <trkpt lat="45.50191" lon="4.63135">
        <ele>325.06</ele>
        <time>2013-04-13T13:42:46Z</time>
      </trkpt>
      <trkpt lat="45.50177" lon="4.63135">
        <ele>321.7</ele>
        <time>2013-04-13T13:42:50Z</time>
      </trkpt>
      <trkpt lat="45.50174" lon="4.63137">
        <ele>321.7</ele>
        <time>2013-04-13T13:42:57Z</time>
      </trkpt>
      <trkpt lat="45.50159" lon="4.63137">
        <ele>317.85</ele>
        <time>2013-04-13T13:43:07Z</time>
      </trkpt>
      <trkpt lat="45.50157" lon="4.63137">
        <ele>317.37</ele>
        <time>2013-04-13T13:43:08Z</time>
      </trkpt>
      <trkpt lat="45.50151" lon="4.63137">
        <ele>316.89</ele>
        <time>2013-04-13T13:43:10Z</time>
      </trkpt>
      <trkpt lat="45.50149" lon="4.63138">
        <ele>316.89</ele>
        <time>2013-04-13T13:43:11Z</time>
      </trkpt>
      <trkpt lat="45.50146" lon="4.6314">
        <ele>316.89</ele>
        <time>2013-04-13T13:43:12Z</time>
      </trkpt>
      <trkpt lat="45.50144" lon="4.63141">
        <ele>316.89</ele>
        <time>2013-04-13T13:43:13Z</time>
      </trkpt>
      <trkpt lat="45.50142" lon="4.63142">
        <ele>316.89</ele>
        <time>2013-04-13T13:43:14Z</time>
      </trkpt>
      <trkpt lat="45.50137" lon="4.63147">
        <ele>316.41</ele>
        <time>2013-04-13T13:43:17Z</time>
      </trkpt>
      <trkpt lat="45.50122" lon="4.63167">
        <ele>318.33</ele>
        <time>2013-04-13T13:43:28Z</time>
      </trkpt>
      <trkpt lat="45.50115" lon="4.63166">
        <ele>316.89</ele>
        <time>2013-04-13T13:43:42Z</time>
      </trkpt>
      <trkpt lat="45.50102" lon="4.63163">
        <ele>316.89</ele>
        <time>2013-04-13T13:44:10Z</time>
      </trkpt>
      <trkpt lat="45.50101" lon="4.6316">
        <ele>319.3</ele>
        <time>2013-04-13T13:44:24Z</time>
      </trkpt>
      <trkpt lat="45.501" lon="4.6316">
        <ele>320.26</ele>
        <time>2013-04-13T13:44:36Z</time>
      </trkpt>
      <trkpt lat="45.50097" lon="4.63154">
        <ele>319.78</ele>
        <time>2013-04-13T13:44:50Z</time>
      </trkpt>
      <trkpt lat="45.50095" lon="4.63148">
        <ele>319.78</ele>
        <time>2013-04-13T13:45:01Z</time>
      </trkpt>
      <trkpt lat="45.50093" lon="4.63136">
        <ele>317.85</ele>
        <time>2013-04-13T13:45:05Z</time>
      </trkpt>
      <trkpt lat="45.50091" lon="4.63132">
        <ele>319.3</ele>
        <time>2013-04-13T13:45:07Z</time>
      </trkpt>
      <trkpt lat="45.50084" lon="4.63113">
        <ele>319.3</ele>
        <time>2013-04-13T13:45:15Z</time>
      </trkpt>
      <trkpt lat="45.50067" lon="4.63077">
        <ele>320.26</ele>
        <time>2013-04-13T13:45:26Z</time>
      </trkpt>
      <trkpt lat="45.50058" lon="4.63046">
        <ele>320.26</ele>
        <time>2013-04-13T13:45:37Z</time>
      </trkpt>
      <trkpt lat="45.50052" lon="4.63029">
        <ele>320.26</ele>
        <time>2013-04-13T13:45:45Z</time>
      </trkpt>
      <trkpt lat="45.5004" lon="4.63005">
        <ele>320.74</ele>
        <time>2013-04-13T13:45:59Z</time>
      </trkpt>
      <trkpt lat="45.50035" lon="4.62997">
        <ele>319.78</ele>
        <time>2013-04-13T13:46:09Z</time>
      </trkpt>
      <trkpt lat="45.50026" lon="4.62986">
        <ele>320.26</ele>
        <time>2013-04-13T13:46:14Z</time>
      </trkpt>
      <trkpt lat="45.50015" lon="4.62967">
        <ele>321.7</ele>
        <time>2013-04-13T13:46:21Z</time>
      </trkpt>
      <trkpt lat="45.50011" lon="4.62964">
        <ele>322.66</ele>
        <time>2013-04-13T13:46:23Z</time>
      </trkpt>
      <trkpt lat="45.50003" lon="4.62956">
        <ele>322.66</ele>
        <time>2013-04-13T13:46:30Z</time>
      </trkpt>
      <trkpt lat="45.49973" lon="4.62933">
        <ele>324.1</ele>
        <time>2013-04-13T13:46:45Z</time>
      </trkpt>
      <trkpt lat="45.49957" lon="4.62923">
        <ele>322.66</ele>
        <time>2013-04-13T13:46:59Z</time>
      </trkpt>
      <trkpt lat="45.4995" lon="4.62921">
        <ele>322.66</ele>
        <time>2013-04-13T13:47:19Z</time>
      </trkpt>
      <trkpt lat="45.49949" lon="4.62916">
        <ele>323.14</ele>
        <time>2013-04-13T13:47:38Z</time>
      </trkpt>
      <trkpt lat="45.49941" lon="4.62913">
        <ele>323.62</ele>
        <time>2013-04-13T13:47:46Z</time>
      </trkpt>
      <trkpt lat="45.4994" lon="4.62923">
        <ele>324.58</ele>
        <time>2013-04-13T13:47:51Z</time>
      </trkpt>
      <trkpt lat="45.49954" lon="4.62945">
        <ele>327.95</ele>
        <time>2013-04-13T13:48:04Z</time>
      </trkpt>
      <trkpt lat="45.49955" lon="4.62947">
        <ele>328.43</ele>
        <time>2013-04-13T13:48:05Z</time>
      </trkpt>
      <trkpt lat="45.49958" lon="4.62954">
        <ele>329.39</ele>
        <time>2013-04-13T13:48:09Z</time>
      </trkpt>
      <trkpt lat="45.49953" lon="4.62962">
        <ele>330.83</ele>
        <time>2013-04-13T13:48:17Z</time>
      </trkpt>
      <trkpt lat="45.49932" lon="4.62949">
        <ele>334.2</ele>
        <time>2013-04-13T13:48:32Z</time>
      </trkpt>
      <trkpt lat="45.49912" lon="4.62946">
        <ele>336.12</ele>
        <time>2013-04-13T13:48:45Z</time>
      </trkpt>
      <trkpt lat="45.49895" lon="4.62941">
        <ele>338.04</ele>
        <time>2013-04-13T13:48:56Z</time>
      </trkpt>
      <trkpt lat="45.49875" lon="4.62938">
        <ele>341.89</ele>
        <time>2013-04-13T13:49:12Z</time>
      </trkpt>
      <trkpt lat="45.49865" lon="4.62936">
        <ele>343.33</ele>
        <time>2013-04-13T13:49:21Z</time>
      </trkpt>
      <trkpt lat="45.49848" lon="4.62932">
        <ele>347.17</ele>
        <time>2013-04-13T13:49:36Z</time>
      </trkpt>
      <trkpt lat="45.49835" lon="4.62926">
        <ele>350.06</ele>
        <time>2013-04-13T13:49:49Z</time>
      </trkpt>
      <trkpt lat="45.49832" lon="4.62924">
        <ele>350.54</ele>
        <time>2013-04-13T13:49:52Z</time>
      </trkpt>
      <trkpt lat="45.49816" lon="4.62924">
        <ele>354.38</ele>
        <time>2013-04-13T13:50:07Z</time>
      </trkpt>
      <trkpt lat="45.49805" lon="4.62947">
        <ele>355.83</ele>
        <time>2013-04-13T13:50:22Z</time>
      </trkpt>
      <trkpt lat="45.49802" lon="4.62954">
        <ele>356.79</ele>
        <time>2013-04-13T13:50:27Z</time>
      </trkpt>
      <trkpt lat="45.49804" lon="4.62958">
        <ele>356.79</ele>
        <time>2013-04-13T13:50:29Z</time>
      </trkpt>
      <trkpt lat="45.49802" lon="4.62964">
        <ele>356.79</ele>
        <time>2013-04-13T13:50:33Z</time>
      </trkpt>
      <trkpt lat="45.49798" lon="4.62968">
        <ele>356.79</ele>
        <time>2013-04-13T13:50:37Z</time>
      </trkpt>
      <trkpt lat="45.49796" lon="4.62973">
        <ele>356.79</ele>
        <time>2013-04-13T13:50:40Z</time>
      </trkpt>
      <trkpt lat="45.49793" lon="4.62981">
        <ele>357.27</ele>
        <time>2013-04-13T13:50:56Z</time>
      </trkpt>
      <trkpt lat="45.49792" lon="4.62978">
        <ele>356.79</ele>
        <time>2013-04-13T13:51:03Z</time>
      </trkpt>
      <trkpt lat="45.49791" lon="4.62953">
        <ele>357.27</ele>
        <time>2013-04-13T13:51:14Z</time>
      </trkpt>
      <trkpt lat="45.49792" lon="4.6295">
        <ele>357.27</ele>
        <time>2013-04-13T13:51:15Z</time>
      </trkpt>
      <trkpt lat="45.49792" lon="4.62946">
        <ele>357.27</ele>
        <time>2013-04-13T13:51:16Z</time>
      </trkpt>
      <trkpt lat="45.49789" lon="4.62931">
        <ele>357.75</ele>
        <time>2013-04-13T13:51:23Z</time>
      </trkpt>
      <trkpt lat="45.49791" lon="4.62928">
        <ele>357.27</ele>
        <time>2013-04-13T13:51:24Z</time>
      </trkpt>
      <trkpt lat="45.49801" lon="4.62907">
        <ele>357.27</ele>
        <time>2013-04-13T13:51:36Z</time>
      </trkpt>
      <trkpt lat="45.49799" lon="4.62906">
        <ele>358.23</ele>
        <time>2013-04-13T13:51:59Z</time>
      </trkpt>
      <trkpt lat="45.498" lon="4.62905">
        <ele>357.27</ele>
        <time>2013-04-13T13:52:00Z</time>
      </trkpt>
      <trkpt lat="45.4981" lon="4.62881">
        <ele>358.23</ele>
        <time>2013-04-13T13:52:10Z</time>
      </trkpt>
      <trkpt lat="45.49832" lon="4.62829">
        <ele>358.23</ele>
        <time>2013-04-13T13:52:28Z</time>
      </trkpt>
      <trkpt lat="45.49847" lon="4.62788">
        <ele>358.23</ele>
        <time>2013-04-13T13:52:45Z</time>
      </trkpt>
      <trkpt lat="45.49848" lon="4.62783">
        <ele>358.71</ele>
        <time>2013-04-13T13:52:48Z</time>
      </trkpt>
      <trkpt lat="45.49847" lon="4.6278">
        <ele>357.75</ele>
        <time>2013-04-13T13:53:01Z</time>
      </trkpt>
      <trkpt lat="45.4985" lon="4.6278">
        <ele>357.27</ele>
        <time>2013-04-13T13:53:12Z</time>
      </trkpt>
      <trkpt lat="45.49851" lon="4.62779">
        <ele>356.79</ele>
        <time>2013-04-13T13:53:13Z</time>
      </trkpt>
      <trkpt lat="45.49852" lon="4.62777">
        <ele>357.75</ele>
        <time>2013-04-13T13:53:14Z</time>
      </trkpt>
      <trkpt lat="45.49854" lon="4.62776">
        <ele>357.75</ele>
        <time>2013-04-13T13:53:15Z</time>
      </trkpt>
      <trkpt lat="45.49855" lon="4.62775">
        <ele>357.27</ele>
        <time>2013-04-13T13:53:16Z</time>
      </trkpt>
      <trkpt lat="45.49864" lon="4.62766">
        <ele>357.75</ele>
        <time>2013-04-13T13:53:19Z</time>
      </trkpt>
      <trkpt lat="45.49866" lon="4.62761">
        <ele>357.27</ele>
        <time>2013-04-13T13:53:20Z</time>
      </trkpt>
      <trkpt lat="45.49867" lon="4.62755">
        <ele>357.75</ele>
        <time>2013-04-13T13:53:21Z</time>
      </trkpt>
      <trkpt lat="45.49867" lon="4.62749">
        <ele>357.27</ele>
        <time>2013-04-13T13:53:22Z</time>
      </trkpt>
      <trkpt lat="45.49866" lon="4.62743">
        <ele>357.27</ele>
        <time>2013-04-13T13:53:23Z</time>
      </trkpt>
      <trkpt lat="45.49865" lon="4.62739">
        <ele>357.27</ele>
        <time>2013-04-13T13:53:24Z</time>
      </trkpt>
      <trkpt lat="45.49862" lon="4.62729">
        <ele>357.27</ele>
        <time>2013-04-13T13:53:29Z</time>
      </trkpt>
      <trkpt lat="45.49862" lon="4.62726">
        <ele>356.79</ele>
        <time>2013-04-13T13:53:30Z</time>
      </trkpt>
      <trkpt lat="45.49856" lon="4.62703">
        <ele>355.34</ele>
        <time>2013-04-13T13:53:36Z</time>
      </trkpt>
      <trkpt lat="45.49844" lon="4.62683">
        <ele>355.34</ele>
        <time>2013-04-13T13:53:40Z</time>
      </trkpt>
      <trkpt lat="45.49822" lon="4.62651">
        <ele>357.27</ele>
        <time>2013-04-13T13:53:51Z</time>
      </trkpt>
      <trkpt lat="45.4982" lon="4.62632">
        <ele>355.83</ele>
        <time>2013-04-13T13:54:03Z</time>
      </trkpt>
      <trkpt lat="45.49803" lon="4.62601">
        <ele>355.83</ele>
        <time>2013-04-13T13:54:13Z</time>
      </trkpt>
      <trkpt lat="45.498" lon="4.626">
        <ele>355.83</ele>
        <time>2013-04-13T13:54:14Z</time>
      </trkpt>
      <trkpt lat="45.49798" lon="4.62597">
        <ele>355.83</ele>
        <time>2013-04-13T13:54:15Z</time>
      </trkpt>
      <trkpt lat="45.49769" lon="4.62555">
        <ele>355.83</ele>
        <time>2013-04-13T13:54:26Z</time>
      </trkpt>
      <trkpt lat="45.49746" lon="4.62544">
        <ele>356.79</ele>
        <time>2013-04-13T13:54:34Z</time>
      </trkpt>
      <trkpt lat="45.49744" lon="4.62545">
        <ele>356.79</ele>
        <time>2013-04-13T13:54:35Z</time>
      </trkpt>
      <trkpt lat="45.49743" lon="4.62546">
        <ele>356.31</ele>
        <time>2013-04-13T13:54:36Z</time>
      </trkpt>
      <trkpt lat="45.49742" lon="4.62546">
        <ele>356.31</ele>
        <time>2013-04-13T13:54:37Z</time>
      </trkpt>
      <trkpt lat="45.4974" lon="4.62546">
        <ele>356.31</ele>
        <time>2013-04-13T13:54:38Z</time>
      </trkpt>
      <trkpt lat="45.4972" lon="4.62528">
        <ele>356.31</ele>
        <time>2013-04-13T13:54:48Z</time>
      </trkpt>
      <trkpt lat="45.49716" lon="4.6252">
        <ele>355.83</ele>
        <time>2013-04-13T13:54:50Z</time>
      </trkpt>
      <trkpt lat="45.49714" lon="4.62517">
        <ele>355.83</ele>
        <time>2013-04-13T13:54:51Z</time>
      </trkpt>
      <trkpt lat="45.49712" lon="4.62513">
        <ele>356.31</ele>
        <time>2013-04-13T13:54:52Z</time>
      </trkpt>
      <trkpt lat="45.49711" lon="4.6251">
        <ele>356.31</ele>
        <time>2013-04-13T13:54:53Z</time>
      </trkpt>
      <trkpt lat="45.49709" lon="4.62507">
        <ele>356.31</ele>
        <time>2013-04-13T13:54:54Z</time>
      </trkpt>
      <trkpt lat="45.49696" lon="4.62467">
        <ele>356.79</ele>
        <time>2013-04-13T13:55:05Z</time>
      </trkpt>
      <trkpt lat="45.49696" lon="4.62463">
        <ele>356.31</ele>
        <time>2013-04-13T13:55:06Z</time>
      </trkpt>
      <trkpt lat="45.49695" lon="4.62459">
        <ele>356.79</ele>
        <time>2013-04-13T13:55:07Z</time>
      </trkpt>
      <trkpt lat="45.49693" lon="4.62456">
        <ele>356.79</ele>
        <time>2013-04-13T13:55:08Z</time>
      </trkpt>
      <trkpt lat="45.4969" lon="4.62453">
        <ele>356.79</ele>
        <time>2013-04-13T13:55:09Z</time>
      </trkpt>
      <trkpt lat="45.49688" lon="4.62451">
        <ele>357.27</ele>
        <time>2013-04-13T13:55:10Z</time>
      </trkpt>
      <trkpt lat="45.49685" lon="4.62451">
        <ele>356.79</ele>
        <time>2013-04-13T13:55:11Z</time>
      </trkpt>
      <trkpt lat="45.49682" lon="4.62452">
        <ele>356.79</ele>
        <time>2013-04-13T13:55:12Z</time>
      </trkpt>
      <trkpt lat="45.4968" lon="4.62455">
        <ele>356.79</ele>
        <time>2013-04-13T13:55:13Z</time>
      </trkpt>
      <trkpt lat="45.49677" lon="4.62457">
        <ele>357.27</ele>
        <time>2013-04-13T13:55:14Z</time>
      </trkpt>
      <trkpt lat="45.49657" lon="4.62497">
        <ele>357.27</ele>
        <time>2013-04-13T13:55:24Z</time>
      </trkpt>
      <trkpt lat="45.49627" lon="4.62499">
        <ele>357.27</ele>
        <time>2013-04-13T13:55:33Z</time>
      </trkpt>
      <trkpt lat="45.49584" lon="4.62486">
        <ele>357.27</ele>
        <time>2013-04-13T13:55:46Z</time>
      </trkpt>
      <trkpt lat="45.4954" lon="4.62491">
        <ele>357.27</ele>
        <time>2013-04-13T13:55:59Z</time>
      </trkpt>
      <trkpt lat="45.4951" lon="4.62473">
        <ele>357.75</ele>
        <time>2013-04-13T13:56:09Z</time>
      </trkpt>
      <trkpt lat="45.49472" lon="4.62458">
        <ele>356.31</ele>
        <time>2013-04-13T13:56:21Z</time>
      </trkpt>
      <trkpt lat="45.49456" lon="4.62413">
        <ele>356.79</ele>
        <time>2013-04-13T13:56:33Z</time>
      </trkpt>
      <trkpt lat="45.49439" lon="4.62364">
        <ele>356.79</ele>
        <time>2013-04-13T13:56:46Z</time>
      </trkpt>
      <trkpt lat="45.4944" lon="4.62323">
        <ele>356.79</ele>
        <time>2013-04-13T13:56:59Z</time>
      </trkpt>
      <trkpt lat="45.49416" lon="4.62298">
        <ele>356.31</ele>
        <time>2013-04-13T13:57:09Z</time>
      </trkpt>
      <trkpt lat="45.49413" lon="4.62301">
        <ele>357.27</ele>
        <time>2013-04-13T13:57:10Z</time>
      </trkpt>
      <trkpt lat="45.49411" lon="4.62305">
        <ele>357.27</ele>
        <time>2013-04-13T13:57:11Z</time>
      </trkpt>
      <trkpt lat="45.49409" lon="4.62309">
        <ele>357.27</ele>
        <time>2013-04-13T13:57:12Z</time>
      </trkpt>
      <trkpt lat="45.49407" lon="4.62313">
        <ele>356.79</ele>
        <time>2013-04-13T13:57:13Z</time>
      </trkpt>
      <trkpt lat="45.49404" lon="4.62318">
        <ele>357.75</ele>
        <time>2013-04-13T13:57:14Z</time>
      </trkpt>
      <trkpt lat="45.49402" lon="4.62323">
        <ele>357.75</ele>
        <time>2013-04-13T13:57:15Z</time>
      </trkpt>
      <trkpt lat="45.49377" lon="4.62363">
        <ele>357.75</ele>
        <time>2013-04-13T13:57:27Z</time>
      </trkpt>
      <trkpt lat="45.4932" lon="4.62369">
        <ele>358.23</ele>
        <time>2013-04-13T13:57:44Z</time>
      </trkpt>
      <trkpt lat="45.49291" lon="4.62339">
        <ele>357.75</ele>
        <time>2013-04-13T13:57:55Z</time>
      </trkpt>
      <trkpt lat="45.49254" lon="4.62294">
        <ele>357.75</ele>
        <time>2013-04-13T13:58:09Z</time>
      </trkpt>
      <trkpt lat="45.49207" lon="4.62284">
        <ele>357.75</ele>
        <time>2013-04-13T13:58:21Z</time>
      </trkpt>
      <trkpt lat="45.49203" lon="4.62284">
        <ele>357.75</ele>
        <time>2013-04-13T13:58:22Z</time>
      </trkpt>
      <trkpt lat="45.49199" lon="4.62287">
        <ele>357.75</ele>
        <time>2013-04-13T13:58:23Z</time>
      </trkpt>
      <trkpt lat="45.49196" lon="4.6229">
        <ele>357.75</ele>
        <time>2013-04-13T13:58:24Z</time>
      </trkpt>
      <trkpt lat="45.49192" lon="4.62294">
        <ele>357.75</ele>
        <time>2013-04-13T13:58:25Z</time>
      </trkpt>
      <trkpt lat="45.49188" lon="4.62297">
        <ele>358.23</ele>
        <time>2013-04-13T13:58:26Z</time>
      </trkpt>
      <trkpt lat="45.49177" lon="4.62305">
        <ele>358.23</ele>
        <time>2013-04-13T13:58:29Z</time>
      </trkpt>
      <trkpt lat="45.49174" lon="4.62308">
        <ele>358.23</ele>
        <time>2013-04-13T13:58:30Z</time>
      </trkpt>
      <trkpt lat="45.4917" lon="4.6231">
        <ele>358.23</ele>
        <time>2013-04-13T13:58:31Z</time>
      </trkpt>
      <trkpt lat="45.49166" lon="4.62312">
        <ele>358.23</ele>
        <time>2013-04-13T13:58:32Z</time>
      </trkpt>
      <trkpt lat="45.49161" lon="4.62313">
        <ele>358.23</ele>
        <time>2013-04-13T13:58:33Z</time>
      </trkpt>
      <trkpt lat="45.49157" lon="4.62314">
        <ele>358.71</ele>
        <time>2013-04-13T13:58:34Z</time>
      </trkpt>
      <trkpt lat="45.49145" lon="4.62316">
        <ele>358.71</ele>
        <time>2013-04-13T13:58:37Z</time>
      </trkpt>
      <trkpt lat="45.49141" lon="4.62313">
        <ele>358.23</ele>
        <time>2013-04-13T13:58:38Z</time>
      </trkpt>
      <trkpt lat="45.49136" lon="4.6231">
        <ele>358.71</ele>
        <time>2013-04-13T13:58:39Z</time>
      </trkpt>
      <trkpt lat="45.49132" lon="4.62308">
        <ele>358.71</ele>
        <time>2013-04-13T13:58:40Z</time>
      </trkpt>
      <trkpt lat="45.49128" lon="4.62307">
        <ele>358.71</ele>
        <time>2013-04-13T13:58:41Z</time>
      </trkpt>
      <trkpt lat="45.49125" lon="4.62304">
        <ele>358.23</ele>
        <time>2013-04-13T13:58:42Z</time>
      </trkpt>
      <trkpt lat="45.49121" lon="4.62301">
        <ele>358.71</ele>
        <time>2013-04-13T13:58:43Z</time>
      </trkpt>
      <trkpt lat="45.49118" lon="4.62297">
        <ele>358.71</ele>
        <time>2013-04-13T13:58:44Z</time>
      </trkpt>
      <trkpt lat="45.49105" lon="4.62282">
        <ele>359.19</ele>
        <time>2013-04-13T13:58:48Z</time>
      </trkpt>
      <trkpt lat="45.49101" lon="4.62281">
        <ele>358.71</ele>
        <time>2013-04-13T13:58:49Z</time>
      </trkpt>
      <trkpt lat="45.49098" lon="4.62281">
        <ele>360.15</ele>
        <time>2013-04-13T13:58:50Z</time>
      </trkpt>
      <trkpt lat="45.49094" lon="4.62282">
        <ele>359.19</ele>
        <time>2013-04-13T13:58:51Z</time>
      </trkpt>
      <trkpt lat="45.49093" lon="4.62284">
        <ele>359.67</ele>
        <time>2013-04-13T13:58:52Z</time>
      </trkpt>
      <trkpt lat="45.49093" lon="4.62289">
        <ele>359.67</ele>
        <time>2013-04-13T13:58:53Z</time>
      </trkpt>
      <trkpt lat="45.49093" lon="4.62294">
        <ele>359.67</ele>
        <time>2013-04-13T13:58:54Z</time>
      </trkpt>
      <trkpt lat="45.49093" lon="4.62299">
        <ele>359.19</ele>
        <time>2013-04-13T13:58:55Z</time>
      </trkpt>
      <trkpt lat="45.49093" lon="4.62303">
        <ele>359.19</ele>
        <time>2013-04-13T13:58:56Z</time>
      </trkpt>
      <trkpt lat="45.49094" lon="4.62306">
        <ele>358.71</ele>
        <time>2013-04-13T13:58:57Z</time>
      </trkpt>
      <trkpt lat="45.49095" lon="4.6231">
        <ele>358.71</ele>
        <time>2013-04-13T13:58:58Z</time>
      </trkpt>
      <trkpt lat="45.49096" lon="4.62315">
        <ele>359.19</ele>
        <time>2013-04-13T13:58:59Z</time>
      </trkpt>
      <trkpt lat="45.49109" lon="4.62361">
        <ele>359.19</ele>
        <time>2013-04-13T13:59:11Z</time>
      </trkpt>
      <trkpt lat="45.4911" lon="4.62363">
        <ele>358.71</ele>
        <time>2013-04-13T13:59:19Z</time>
      </trkpt>
      <trkpt lat="45.49107" lon="4.62362">
        <ele>358.23</ele>
        <time>2013-04-13T13:59:39Z</time>
      </trkpt>
      <trkpt lat="45.49109" lon="4.62362">
        <ele>359.19</ele>
        <time>2013-04-13T14:00:14Z</time>
      </trkpt>
      <trkpt lat="45.49107" lon="4.6236">
        <ele>360.15</ele>
        <time>2013-04-13T14:00:36Z</time>
      </trkpt>
      <trkpt lat="45.49108" lon="4.62358">
        <ele>359.19</ele>
        <time>2013-04-13T14:01:07Z</time>
      </trkpt>
      <trkpt lat="45.49106" lon="4.62357">
        <ele>359.67</ele>
        <time>2013-04-13T14:01:40Z</time>
      </trkpt>
      <trkpt lat="45.49107" lon="4.6236">
        <ele>359.67</ele>
        <time>2013-04-13T14:02:09Z</time>
      </trkpt>
      <trkpt lat="45.49106" lon="4.62359">
        <ele>359.67</ele>
        <time>2013-04-13T14:02:12Z</time>
      </trkpt>
      <trkpt lat="45.49107" lon="4.62361">
        <ele>359.67</ele>
        <time>2013-04-13T14:02:16Z</time>
      </trkpt>
      <trkpt lat="45.49104" lon="4.62367">
        <ele>359.19</ele>
        <time>2013-04-13T14:02:19Z</time>
      </trkpt>
      <trkpt lat="45.49102" lon="4.6237">
        <ele>359.67</ele>
        <time>2013-04-13T14:02:20Z</time>
      </trkpt>
      <trkpt lat="45.491" lon="4.62373">
        <ele>359.67</ele>
        <time>2013-04-13T14:02:21Z</time>
      </trkpt>
      <trkpt lat="45.49097" lon="4.62377">
        <ele>359.67</ele>
        <time>2013-04-13T14:02:22Z</time>
      </trkpt>
      <trkpt lat="45.49076" lon="4.62409">
        <ele>358.71</ele>
        <time>2013-04-13T14:02:32Z</time>
      </trkpt>
      <trkpt lat="45.49076" lon="4.62447">
        <ele>360.15</ele>
        <time>2013-04-13T14:02:39Z</time>
      </trkpt>
      <trkpt lat="45.49076" lon="4.62453">
        <ele>359.67</ele>
        <time>2013-04-13T14:02:40Z</time>
      </trkpt>
      <trkpt lat="45.49076" lon="4.62458">
        <ele>359.67</ele>
        <time>2013-04-13T14:02:41Z</time>
      </trkpt>
      <trkpt lat="45.49069" lon="4.6254">
        <ele>360.15</ele>
        <time>2013-04-13T14:02:55Z</time>
      </trkpt>
      <trkpt lat="45.49061" lon="4.62553">
        <ele>359.67</ele>
        <time>2013-04-13T14:02:58Z</time>
      </trkpt>
      <trkpt lat="45.49057" lon="4.62557">
        <ele>360.15</ele>
        <time>2013-04-13T14:02:59Z</time>
      </trkpt>
      <trkpt lat="45.49053" lon="4.62559">
        <ele>360.15</ele>
        <time>2013-04-13T14:03:00Z</time>
      </trkpt>
      <trkpt lat="45.49048" lon="4.6256">
        <ele>360.15</ele>
        <time>2013-04-13T14:03:01Z</time>
      </trkpt>
      <trkpt lat="45.49044" lon="4.62561">
        <ele>360.15</ele>
        <time>2013-04-13T14:03:02Z</time>
      </trkpt>
      <trkpt lat="45.49039" lon="4.62562">
        <ele>359.67</ele>
        <time>2013-04-13T14:03:03Z</time>
      </trkpt>
      <trkpt lat="45.49036" lon="4.62561">
        <ele>359.67</ele>
        <time>2013-04-13T14:03:04Z</time>
      </trkpt>
      <trkpt lat="45.49032" lon="4.6256">
        <ele>360.15</ele>
        <time>2013-04-13T14:03:05Z</time>
      </trkpt>
      <trkpt lat="45.49029" lon="4.62559">
        <ele>360.15</ele>
        <time>2013-04-13T14:03:06Z</time>
      </trkpt>
      <trkpt lat="45.49026" lon="4.62557">
        <ele>360.15</ele>
        <time>2013-04-13T14:03:07Z</time>
      </trkpt>
      <trkpt lat="45.49024" lon="4.62555">
        <ele>359.67</ele>
        <time>2013-04-13T14:03:08Z</time>
      </trkpt>
      <trkpt lat="45.49021" lon="4.62552">
        <ele>360.15</ele>
        <time>2013-04-13T14:03:09Z</time>
      </trkpt>
      <trkpt lat="45.49019" lon="4.62549">
        <ele>359.67</ele>
        <time>2013-04-13T14:03:10Z</time>
      </trkpt>
      <trkpt lat="45.49016" lon="4.62546">
        <ele>360.15</ele>
        <time>2013-04-13T14:03:11Z</time>
      </trkpt>
      <trkpt lat="45.49013" lon="4.62544">
        <ele>359.67</ele>
        <time>2013-04-13T14:03:12Z</time>
      </trkpt>
      <trkpt lat="45.48976" lon="4.62525">
        <ele>355.83</ele>
        <time>2013-04-13T14:03:25Z</time>
      </trkpt>
      <trkpt lat="45.48974" lon="4.62524">
        <ele>362.07</ele>
        <time>2013-04-13T14:03:26Z</time>
      </trkpt>
      <trkpt lat="45.48938" lon="4.62515">
        <ele>360.15</ele>
        <time>2013-04-13T14:03:37Z</time>
      </trkpt>
      <trkpt lat="45.48896" lon="4.62526">
        <ele>361.11</ele>
        <time>2013-04-13T14:03:49Z</time>
      </trkpt>
      <trkpt lat="45.48855" lon="4.62551">
        <ele>361.11</ele>
        <time>2013-04-13T14:04:01Z</time>
      </trkpt>
      <trkpt lat="45.4885" lon="4.62558">
        <ele>360.63</ele>
        <time>2013-04-13T14:04:03Z</time>
      </trkpt>
      <trkpt lat="45.48847" lon="4.62563">
        <ele>360.15</ele>
        <time>2013-04-13T14:04:04Z</time>
      </trkpt>
      <trkpt lat="45.48843" lon="4.62575">
        <ele>360.15</ele>
        <time>2013-04-13T14:04:06Z</time>
      </trkpt>
      <trkpt lat="45.48842" lon="4.62581">
        <ele>360.63</ele>
        <time>2013-04-13T14:04:07Z</time>
      </trkpt>
      <trkpt lat="45.4884" lon="4.62586">
        <ele>360.15</ele>
        <time>2013-04-13T14:04:08Z</time>
      </trkpt>
      <trkpt lat="45.48844" lon="4.62632">
        <ele>361.11</ele>
        <time>2013-04-13T14:04:17Z</time>
      </trkpt>
      <trkpt lat="45.48847" lon="4.62636">
        <ele>361.11</ele>
        <time>2013-04-13T14:04:18Z</time>
      </trkpt>
      <trkpt lat="45.4885" lon="4.62641">
        <ele>360.63</ele>
        <time>2013-04-13T14:04:19Z</time>
      </trkpt>
      <trkpt lat="45.48859" lon="4.62665">
        <ele>360.15</ele>
        <time>2013-04-13T14:04:24Z</time>
      </trkpt>
      <trkpt lat="45.4886" lon="4.62669">
        <ele>360.15</ele>
        <time>2013-04-13T14:04:25Z</time>
      </trkpt>
      <trkpt lat="45.48861" lon="4.62673">
        <ele>360.15</ele>
        <time>2013-04-13T14:04:26Z</time>
      </trkpt>
      <trkpt lat="45.48861" lon="4.62676">
        <ele>360.63</ele>
        <time>2013-04-13T14:04:27Z</time>
      </trkpt>
      <trkpt lat="45.48861" lon="4.62679">
        <ele>360.15</ele>
        <time>2013-04-13T14:04:28Z</time>
      </trkpt>
      <trkpt lat="45.48862" lon="4.62681">
        <ele>360.63</ele>
        <time>2013-04-13T14:04:29Z</time>
      </trkpt>
      <trkpt lat="45.48863" lon="4.62683">
        <ele>360.15</ele>
        <time>2013-04-13T14:04:30Z</time>
      </trkpt>
      <trkpt lat="45.48863" lon="4.62686">
        <ele>359.67</ele>
        <time>2013-04-13T14:04:31Z</time>
      </trkpt>
      <trkpt lat="45.48863" lon="4.62729">
        <ele>360.63</ele>
        <time>2013-04-13T14:04:42Z</time>
      </trkpt>
      <trkpt lat="45.48862" lon="4.62745">
        <ele>359.67</ele>
        <time>2013-04-13T14:04:51Z</time>
      </trkpt>
      <trkpt lat="45.4886" lon="4.62754">
        <ele>359.19</ele>
        <time>2013-04-13T14:05:04Z</time>
      </trkpt>
      <trkpt lat="45.48861" lon="4.62757">
        <ele>359.67</ele>
        <time>2013-04-13T14:05:11Z</time>
      </trkpt>
      <trkpt lat="45.48858" lon="4.62765">
        <ele>360.15</ele>
        <time>2013-04-13T14:05:17Z</time>
      </trkpt>
      <trkpt lat="45.48857" lon="4.62768">
        <ele>360.15</ele>
        <time>2013-04-13T14:05:18Z</time>
      </trkpt>
      <trkpt lat="45.48856" lon="4.6277">
        <ele>360.15</ele>
        <time>2013-04-13T14:05:19Z</time>
      </trkpt>
      <trkpt lat="45.48856" lon="4.62773">
        <ele>360.15</ele>
        <time>2013-04-13T14:05:20Z</time>
      </trkpt>
      <trkpt lat="45.48856" lon="4.62776">
        <ele>360.15</ele>
        <time>2013-04-13T14:05:21Z</time>
      </trkpt>
      <trkpt lat="45.48855" lon="4.6278">
        <ele>360.15</ele>
        <time>2013-04-13T14:05:22Z</time>
      </trkpt>
      <trkpt lat="45.48854" lon="4.62782">
        <ele>359.67</ele>
        <time>2013-04-13T14:05:23Z</time>
      </trkpt>
      <trkpt lat="45.48853" lon="4.62785">
        <ele>360.63</ele>
        <time>2013-04-13T14:05:24Z</time>
      </trkpt>
      <trkpt lat="45.48842" lon="4.62819">
        <ele>360.63</ele>
        <time>2013-04-13T14:05:36Z</time>
      </trkpt>
      <trkpt lat="45.48839" lon="4.62821">
        <ele>360.15</ele>
        <time>2013-04-13T14:05:37Z</time>
      </trkpt>
      <trkpt lat="45.48836" lon="4.62822">
        <ele>361.11</ele>
        <time>2013-04-13T14:05:38Z</time>
      </trkpt>
      <trkpt lat="45.48833" lon="4.62823">
        <ele>360.63</ele>
        <time>2013-04-13T14:05:39Z</time>
      </trkpt>
      <trkpt lat="45.48829" lon="4.62823">
        <ele>361.59</ele>
        <time>2013-04-13T14:05:40Z</time>
      </trkpt>
      <trkpt lat="45.48825" lon="4.62823">
        <ele>361.59</ele>
        <time>2013-04-13T14:05:41Z</time>
      </trkpt>
      <trkpt lat="45.48822" lon="4.62823">
        <ele>361.11</ele>
        <time>2013-04-13T14:05:42Z</time>
      </trkpt>
      <trkpt lat="45.48808" lon="4.62816">
        <ele>362.07</ele>
        <time>2013-04-13T14:05:48Z</time>
      </trkpt>
      <trkpt lat="45.48806" lon="4.62814">
        <ele>361.11</ele>
        <time>2013-04-13T14:05:49Z</time>
      </trkpt>
      <trkpt lat="45.48804" lon="4.62812">
        <ele>361.59</ele>
        <time>2013-04-13T14:05:50Z</time>
      </trkpt>
      <trkpt lat="45.48802" lon="4.62809">
        <ele>362.07</ele>
        <time>2013-04-13T14:05:51Z</time>
      </trkpt>
      <trkpt lat="45.488" lon="4.62806">
        <ele>362.07</ele>
        <time>2013-04-13T14:05:52Z</time>
      </trkpt>
      <trkpt lat="45.48797" lon="4.62799">
        <ele>362.55</ele>
        <time>2013-04-13T14:05:54Z</time>
      </trkpt>
      <trkpt lat="45.48794" lon="4.62797">
        <ele>362.55</ele>
        <time>2013-04-13T14:05:55Z</time>
      </trkpt>
      <trkpt lat="45.4878" lon="4.62787">
        <ele>362.55</ele>
        <time>2013-04-13T14:06:04Z</time>
      </trkpt>
      <trkpt lat="45.48779" lon="4.62784">
        <ele>363.04</ele>
        <time>2013-04-13T14:06:06Z</time>
      </trkpt>
      <trkpt lat="45.48779" lon="4.62781">
        <ele>363.04</ele>
        <time>2013-04-13T14:06:07Z</time>
      </trkpt>
      <trkpt lat="45.48779" lon="4.62779">
        <ele>363.04</ele>
        <time>2013-04-13T14:06:08Z</time>
      </trkpt>
      <trkpt lat="45.48779" lon="4.62776">
        <ele>363.52</ele>
        <time>2013-04-13T14:06:09Z</time>
      </trkpt>
      <trkpt lat="45.48779" lon="4.62774">
        <ele>364.48</ele>
        <time>2013-04-13T14:06:10Z</time>
      </trkpt>
      <trkpt lat="45.48788" lon="4.62747">
        <ele>367.36</ele>
        <time>2013-04-13T14:06:23Z</time>
      </trkpt>
      <trkpt lat="45.4879" lon="4.62735">
        <ele>368.8</ele>
        <time>2013-04-13T14:06:30Z</time>
      </trkpt>
      <trkpt lat="45.48792" lon="4.6273">
        <ele>369.28</ele>
        <time>2013-04-13T14:06:33Z</time>
      </trkpt>
      <trkpt lat="45.48792" lon="4.62721">
        <ele>369.76</ele>
        <time>2013-04-13T14:06:38Z</time>
      </trkpt>
      <trkpt lat="45.48792" lon="4.6272">
        <ele>370.24</ele>
        <time>2013-04-13T14:06:39Z</time>
      </trkpt>
      <trkpt lat="45.48792" lon="4.62718">
        <ele>370.73</ele>
        <time>2013-04-13T14:06:40Z</time>
      </trkpt>
      <trkpt lat="45.48787" lon="4.62704">
        <ele>373.13</ele>
        <time>2013-04-13T14:06:50Z</time>
      </trkpt>
      <trkpt lat="45.48785" lon="4.62703">
        <ele>372.65</ele>
        <time>2013-04-13T14:06:51Z</time>
      </trkpt>
      <trkpt lat="45.48784" lon="4.62703">
        <ele>373.13</ele>
        <time>2013-04-13T14:06:52Z</time>
      </trkpt>
      <trkpt lat="45.48779" lon="4.62704">
        <ele>375.05</ele>
        <time>2013-04-13T14:06:57Z</time>
      </trkpt>
      <trkpt lat="45.48768" lon="4.62709">
        <ele>377.45</ele>
        <time>2013-04-13T14:07:11Z</time>
      </trkpt>
      <trkpt lat="45.48759" lon="4.62711">
        <ele>378.9</ele>
        <time>2013-04-13T14:07:26Z</time>
      </trkpt>
      <trkpt lat="45.48744" lon="4.62716">
        <ele>381.78</ele>
        <time>2013-04-13T14:07:43Z</time>
      </trkpt>
      <trkpt lat="45.48728" lon="4.62721">
        <ele>383.7</ele>
        <time>2013-04-13T14:08:00Z</time>
      </trkpt>
      <trkpt lat="45.48717" lon="4.62718">
        <ele>386.59</ele>
        <time>2013-04-13T14:08:16Z</time>
      </trkpt>
      <trkpt lat="45.48719" lon="4.62704">
        <ele>388.51</ele>
        <time>2013-04-13T14:08:30Z</time>
      </trkpt>
      <trkpt lat="45.4872" lon="4.62701">
        <ele>388.99</ele>
        <time>2013-04-13T14:08:47Z</time>
      </trkpt>
      <trkpt lat="45.4872" lon="4.62691">
        <ele>389.47</ele>
        <time>2013-04-13T14:09:05Z</time>
      </trkpt>
      <trkpt lat="45.4872" lon="4.6269">
        <ele>390.43</ele>
        <time>2013-04-13T14:09:12Z</time>
      </trkpt>
      <trkpt lat="45.48721" lon="4.62689">
        <ele>390.91</ele>
        <time>2013-04-13T14:09:13Z</time>
      </trkpt>
      <trkpt lat="45.48729" lon="4.62668">
        <ele>393.8</ele>
        <time>2013-04-13T14:09:27Z</time>
      </trkpt>
      <trkpt lat="45.48734" lon="4.62656">
        <ele>395.24</ele>
        <time>2013-04-13T14:09:36Z</time>
      </trkpt>
      <trkpt lat="45.48734" lon="4.62642">
        <ele>397.16</ele>
        <time>2013-04-13T14:09:46Z</time>
      </trkpt>
      <trkpt lat="45.48731" lon="4.62636">
        <ele>398.6</ele>
        <time>2013-04-13T14:09:57Z</time>
      </trkpt>
      <trkpt lat="45.48724" lon="4.62626">
        <ele>401.01</ele>
        <time>2013-04-13T14:10:15Z</time>
      </trkpt>
      <trkpt lat="45.48722" lon="4.62622">
        <ele>401.49</ele>
        <time>2013-04-13T14:10:30Z</time>
      </trkpt>
      <trkpt lat="45.4872" lon="4.62619">
        <ele>402.93</ele>
        <time>2013-04-13T14:10:45Z</time>
      </trkpt>
      <trkpt lat="45.48718" lon="4.62616">
        <ele>404.37</ele>
        <time>2013-04-13T14:10:50Z</time>
      </trkpt>
      <trkpt lat="45.48711" lon="4.62607">
        <ele>407.26</ele>
        <time>2013-04-13T14:11:06Z</time>
      </trkpt>
      <trkpt lat="45.48707" lon="4.62596">
        <ele>409.66</ele>
        <time>2013-04-13T14:11:20Z</time>
      </trkpt>
      <trkpt lat="45.48704" lon="4.62583">
        <ele>412.06</ele>
        <time>2013-04-13T14:11:34Z</time>
      </trkpt>
      <trkpt lat="45.48701" lon="4.62573">
        <ele>413.02</ele>
        <time>2013-04-13T14:11:47Z</time>
      </trkpt>
      <trkpt lat="45.48701" lon="4.6257">
        <ele>413.5</ele>
        <time>2013-04-13T14:11:57Z</time>
      </trkpt>
      <trkpt lat="45.48699" lon="4.62571">
        <ele>413.5</ele>
        <time>2013-04-13T14:12:15Z</time>
      </trkpt>
      <trkpt lat="45.487" lon="4.62569">
        <ele>413.98</ele>
        <time>2013-04-13T14:12:34Z</time>
      </trkpt>
      <trkpt lat="45.487" lon="4.62561">
        <ele>414.47</ele>
        <time>2013-04-13T14:12:44Z</time>
      </trkpt>
      <trkpt lat="45.487" lon="4.62559">
        <ele>414.47</ele>
        <time>2013-04-13T14:12:45Z</time>
      </trkpt>
      <trkpt lat="45.48701" lon="4.62557">
        <ele>414.95</ele>
        <time>2013-04-13T14:12:46Z</time>
      </trkpt>
      <trkpt lat="45.48701" lon="4.62532">
        <ele>417.83</ele>
        <time>2013-04-13T14:13:01Z</time>
      </trkpt>
      <trkpt lat="45.48702" lon="4.62526">
        <ele>417.83</ele>
        <time>2013-04-13T14:13:04Z</time>
      </trkpt>
      <trkpt lat="45.48702" lon="4.62524">
        <ele>417.83</ele>
        <time>2013-04-13T14:13:05Z</time>
      </trkpt>
      <trkpt lat="45.48702" lon="4.62523">
        <ele>418.31</ele>
        <time>2013-04-13T14:13:06Z</time>
      </trkpt>
      <trkpt lat="45.48701" lon="4.62514">
        <ele>421.68</ele>
        <time>2013-04-13T14:13:12Z</time>
      </trkpt>
      <trkpt lat="45.48699" lon="4.6251">
        <ele>419.27</ele>
        <time>2013-04-13T14:13:15Z</time>
      </trkpt>
      <trkpt lat="45.48699" lon="4.62508">
        <ele>419.27</ele>
        <time>2013-04-13T14:13:16Z</time>
      </trkpt>
      <trkpt lat="45.48698" lon="4.62507">
        <ele>419.27</ele>
        <time>2013-04-13T14:13:17Z</time>
      </trkpt>
      <trkpt lat="45.48697" lon="4.62506">
        <ele>419.75</ele>
        <time>2013-04-13T14:13:18Z</time>
      </trkpt>
      <trkpt lat="45.48688" lon="4.62501">
        <ele>422.64</ele>
        <time>2013-04-13T14:13:29Z</time>
      </trkpt>
      <trkpt lat="45.48687" lon="4.62503">
        <ele>422.64</ele>
        <time>2013-04-13T14:13:30Z</time>
      </trkpt>
      <trkpt lat="45.48687" lon="4.62505">
        <ele>423.12</ele>
        <time>2013-04-13T14:13:31Z</time>
      </trkpt>
      <trkpt lat="45.48686" lon="4.62506">
        <ele>423.12</ele>
        <time>2013-04-13T14:13:32Z</time>
      </trkpt>
      <trkpt lat="45.48685" lon="4.62507">
        <ele>423.6</ele>
        <time>2013-04-13T14:13:33Z</time>
      </trkpt>
      <trkpt lat="45.48684" lon="4.62508">
        <ele>423.6</ele>
        <time>2013-04-13T14:13:34Z</time>
      </trkpt>
      <trkpt lat="45.48683" lon="4.62509">
        <ele>423.6</ele>
        <time>2013-04-13T14:13:35Z</time>
      </trkpt>
      <trkpt lat="45.48675" lon="4.62519">
        <ele>425.52</ele>
        <time>2013-04-13T14:13:44Z</time>
      </trkpt>
      <trkpt lat="45.48674" lon="4.62521">
        <ele>425.52</ele>
        <time>2013-04-13T14:13:45Z</time>
      </trkpt>
      <trkpt lat="45.48674" lon="4.62522">
        <ele>426</ele>
        <time>2013-04-13T14:13:46Z</time>
      </trkpt>
      <trkpt lat="45.48674" lon="4.62523">
        <ele>426</ele>
        <time>2013-04-13T14:13:47Z</time>
      </trkpt>
      <trkpt lat="45.48673" lon="4.62524">
        <ele>426.48</ele>
        <time>2013-04-13T14:13:48Z</time>
      </trkpt>
      <trkpt lat="45.48672" lon="4.62525">
        <ele>426.48</ele>
        <time>2013-04-13T14:13:49Z</time>
      </trkpt>
      <trkpt lat="45.48671" lon="4.62526">
        <ele>426</ele>
        <time>2013-04-13T14:13:50Z</time>
      </trkpt>
      <trkpt lat="45.4867" lon="4.62527">
        <ele>426.48</ele>
        <time>2013-04-13T14:13:51Z</time>
      </trkpt>
      <trkpt lat="45.48669" lon="4.62528">
        <ele>426.48</ele>
        <time>2013-04-13T14:13:52Z</time>
      </trkpt>
      <trkpt lat="45.48668" lon="4.62529">
        <ele>426.48</ele>
        <time>2013-04-13T14:13:53Z</time>
      </trkpt>
      <trkpt lat="45.48657" lon="4.62527">
        <ele>427.44</ele>
        <time>2013-04-13T14:14:04Z</time>
      </trkpt>
      <trkpt lat="45.48651" lon="4.62519">
        <ele>429.37</ele>
        <time>2013-04-13T14:14:12Z</time>
      </trkpt>
      <trkpt lat="45.48651" lon="4.62517">
        <ele>429.85</ele>
        <time>2013-04-13T14:14:13Z</time>
      </trkpt>
      <trkpt lat="45.48651" lon="4.62516">
        <ele>429.37</ele>
        <time>2013-04-13T14:14:14Z</time>
      </trkpt>
      <trkpt lat="45.48651" lon="4.62514">
        <ele>429.37</ele>
        <time>2013-04-13T14:14:15Z</time>
      </trkpt>
      <trkpt lat="45.48652" lon="4.62512">
        <ele>429.37</ele>
        <time>2013-04-13T14:14:16Z</time>
      </trkpt>
      <trkpt lat="45.48652" lon="4.6251">
        <ele>429.85</ele>
        <time>2013-04-13T14:14:17Z</time>
      </trkpt>
      <trkpt lat="45.48653" lon="4.62508">
        <ele>429.85</ele>
        <time>2013-04-13T14:14:18Z</time>
      </trkpt>
      <trkpt lat="45.48654" lon="4.62503">
        <ele>429.37</ele>
        <time>2013-04-13T14:14:20Z</time>
      </trkpt>
      <trkpt lat="45.48656" lon="4.62489">
        <ele>431.29</ele>
        <time>2013-04-13T14:14:27Z</time>
      </trkpt>
      <trkpt lat="45.48655" lon="4.62487">
        <ele>430.81</ele>
        <time>2013-04-13T14:14:28Z</time>
      </trkpt>
      <trkpt lat="45.48651" lon="4.62483">
        <ele>432.25</ele>
        <time>2013-04-13T14:14:31Z</time>
      </trkpt>
      <trkpt lat="45.48649" lon="4.62482">
        <ele>432.73</ele>
        <time>2013-04-13T14:14:32Z</time>
      </trkpt>
      <trkpt lat="45.48649" lon="4.6248">
        <ele>432.73</ele>
        <time>2013-04-13T14:14:33Z</time>
      </trkpt>
      <trkpt lat="45.48649" lon="4.62478">
        <ele>432.25</ele>
        <time>2013-04-13T14:14:34Z</time>
      </trkpt>
      <trkpt lat="45.48648" lon="4.62476">
        <ele>432.73</ele>
        <time>2013-04-13T14:14:35Z</time>
      </trkpt>
      <trkpt lat="45.48646" lon="4.62474">
        <ele>432.73</ele>
        <time>2013-04-13T14:14:36Z</time>
      </trkpt>
      <trkpt lat="45.48644" lon="4.62473">
        <ele>433.21</ele>
        <time>2013-04-13T14:14:37Z</time>
      </trkpt>
      <trkpt lat="45.48642" lon="4.62474">
        <ele>433.21</ele>
        <time>2013-04-13T14:14:38Z</time>
      </trkpt>
      <trkpt lat="45.48641" lon="4.62475">
        <ele>433.69</ele>
        <time>2013-04-13T14:14:39Z</time>
      </trkpt>
      <trkpt lat="45.48639" lon="4.62476">
        <ele>433.69</ele>
        <time>2013-04-13T14:14:40Z</time>
      </trkpt>
      <trkpt lat="45.48619" lon="4.62504">
        <ele>435.61</ele>
        <time>2013-04-13T14:14:55Z</time>
      </trkpt>
      <trkpt lat="45.48593" lon="4.62528">
        <ele>437.06</ele>
        <time>2013-04-13T14:15:11Z</time>
      </trkpt>
      <trkpt lat="45.48586" lon="4.62529">
        <ele>438.02</ele>
        <time>2013-04-13T14:15:15Z</time>
      </trkpt>
      <trkpt lat="45.48579" lon="4.62538">
        <ele>437.54</ele>
        <time>2013-04-13T14:15:20Z</time>
      </trkpt>
      <trkpt lat="45.48575" lon="4.62556">
        <ele>436.1</ele>
        <time>2013-04-13T14:15:24Z</time>
      </trkpt>
      <trkpt lat="45.48566" lon="4.62582">
        <ele>432.25</ele>
        <time>2013-04-13T14:15:27Z</time>
      </trkpt>
      <trkpt lat="45.48557" lon="4.62606">
        <ele>428.4</ele>
        <time>2013-04-13T14:15:29Z</time>
      </trkpt>
      <trkpt lat="45.48545" lon="4.62628">
        <ele>425.52</ele>
        <time>2013-04-13T14:15:31Z</time>
      </trkpt>
      <trkpt lat="45.4854" lon="4.62635">
        <ele>423.12</ele>
        <time>2013-04-13T14:15:32Z</time>
      </trkpt>
      <trkpt lat="45.48534" lon="4.62641">
        <ele>422.64</ele>
        <time>2013-04-13T14:15:33Z</time>
      </trkpt>
      <trkpt lat="45.48528" lon="4.62646">
        <ele>421.68</ele>
        <time>2013-04-13T14:15:34Z</time>
      </trkpt>
      <trkpt lat="45.48522" lon="4.62652">
        <ele>420.71</ele>
        <time>2013-04-13T14:15:35Z</time>
      </trkpt>
      <trkpt lat="45.48517" lon="4.62658">
        <ele>419.27</ele>
        <time>2013-04-13T14:15:36Z</time>
      </trkpt>
      <trkpt lat="45.48512" lon="4.62663">
        <ele>418.31</ele>
        <time>2013-04-13T14:15:37Z</time>
      </trkpt>
      <trkpt lat="45.48508" lon="4.62668">
        <ele>416.87</ele>
        <time>2013-04-13T14:15:38Z</time>
      </trkpt>
      <trkpt lat="45.485" lon="4.6268">
        <ele>415.43</ele>
        <time>2013-04-13T14:15:40Z</time>
      </trkpt>
      <trkpt lat="45.48497" lon="4.62687">
        <ele>413.98</ele>
        <time>2013-04-13T14:15:41Z</time>
      </trkpt>
      <trkpt lat="45.48494" lon="4.62696">
        <ele>413.02</ele>
        <time>2013-04-13T14:15:42Z</time>
      </trkpt>
      <trkpt lat="45.48491" lon="4.62706">
        <ele>412.54</ele>
        <time>2013-04-13T14:15:43Z</time>
      </trkpt>
      <trkpt lat="45.48484" lon="4.62728">
        <ele>410.14</ele>
        <time>2013-04-13T14:15:45Z</time>
      </trkpt>
      <trkpt lat="45.48479" lon="4.6274">
        <ele>409.18</ele>
        <time>2013-04-13T14:15:46Z</time>
      </trkpt>
      <trkpt lat="45.48474" lon="4.62751">
        <ele>408.7</ele>
        <time>2013-04-13T14:15:47Z</time>
      </trkpt>
      <trkpt lat="45.48466" lon="4.62762">
        <ele>407.26</ele>
        <time>2013-04-13T14:15:48Z</time>
      </trkpt>
      <trkpt lat="45.48458" lon="4.62773">
        <ele>405.33</ele>
        <time>2013-04-13T14:15:49Z</time>
      </trkpt>
      <trkpt lat="45.48449" lon="4.62782">
        <ele>403.89</ele>
        <time>2013-04-13T14:15:50Z</time>
      </trkpt>
      <trkpt lat="45.48438" lon="4.62789">
        <ele>402.45</ele>
        <time>2013-04-13T14:15:51Z</time>
      </trkpt>
      <trkpt lat="45.48427" lon="4.62796">
        <ele>400.53</ele>
        <time>2013-04-13T14:15:52Z</time>
      </trkpt>
      <trkpt lat="45.48395" lon="4.62819">
        <ele>397.16</ele>
        <time>2013-04-13T14:15:55Z</time>
      </trkpt>
      <trkpt lat="45.48378" lon="4.62833">
        <ele>395.24</ele>
        <time>2013-04-13T14:15:57Z</time>
      </trkpt>
      <trkpt lat="45.4837" lon="4.62842">
        <ele>393.8</ele>
        <time>2013-04-13T14:15:58Z</time>
      </trkpt>
      <trkpt lat="45.48355" lon="4.62859">
        <ele>389.95</ele>
        <time>2013-04-13T14:16:00Z</time>
      </trkpt>
      <trkpt lat="45.48348" lon="4.62868">
        <ele>388.51</ele>
        <time>2013-04-13T14:16:01Z</time>
      </trkpt>
      <trkpt lat="45.48344" lon="4.62878">
        <ele>387.07</ele>
        <time>2013-04-13T14:16:02Z</time>
      </trkpt>
      <trkpt lat="45.4834" lon="4.6289">
        <ele>386.59</ele>
        <time>2013-04-13T14:16:03Z</time>
      </trkpt>
      <trkpt lat="45.48337" lon="4.62902">
        <ele>386.11</ele>
        <time>2013-04-13T14:16:04Z</time>
      </trkpt>
      <trkpt lat="45.48333" lon="4.62911">
        <ele>385.63</ele>
        <time>2013-04-13T14:16:05Z</time>
      </trkpt>
      <trkpt lat="45.48327" lon="4.62919">
        <ele>385.63</ele>
        <time>2013-04-13T14:16:06Z</time>
      </trkpt>
      <trkpt lat="45.48322" lon="4.62925">
        <ele>386.59</ele>
        <time>2013-04-13T14:16:07Z</time>
      </trkpt>
      <trkpt lat="45.48317" lon="4.62931">
        <ele>387.07</ele>
        <time>2013-04-13T14:16:08Z</time>
      </trkpt>
      <trkpt lat="45.48313" lon="4.62935">
        <ele>387.07</ele>
        <time>2013-04-13T14:16:09Z</time>
      </trkpt>
      <trkpt lat="45.48309" lon="4.62939">
        <ele>387.07</ele>
        <time>2013-04-13T14:16:10Z</time>
      </trkpt>
      <trkpt lat="45.48291" lon="4.6296">
        <ele>390.91</ele>
        <time>2013-04-13T14:16:19Z</time>
      </trkpt>
      <trkpt lat="45.48275" lon="4.62979">
        <ele>394.28</ele>
        <time>2013-04-13T14:16:33Z</time>
      </trkpt>
      <trkpt lat="45.48259" lon="4.62989">
        <ele>397.16</ele>
        <time>2013-04-13T14:16:46Z</time>
      </trkpt>
      <trkpt lat="45.48243" lon="4.62999">
        <ele>400.05</ele>
        <time>2013-04-13T14:17:00Z</time>
      </trkpt>
      <trkpt lat="45.48228" lon="4.63007">
        <ele>402.45</ele>
        <time>2013-04-13T14:17:14Z</time>
      </trkpt>
      <trkpt lat="45.48227" lon="4.63008">
        <ele>402.45</ele>
        <time>2013-04-13T14:17:15Z</time>
      </trkpt>
      <trkpt lat="45.48211" lon="4.63009">
        <ele>405.33</ele>
        <time>2013-04-13T14:17:30Z</time>
      </trkpt>
      <trkpt lat="45.48197" lon="4.6301">
        <ele>408.22</ele>
        <time>2013-04-13T14:17:43Z</time>
      </trkpt>
      <trkpt lat="45.48196" lon="4.63009">
        <ele>407.74</ele>
        <time>2013-04-13T14:17:44Z</time>
      </trkpt>
      <trkpt lat="45.48182" lon="4.63011">
        <ele>410.62</ele>
        <time>2013-04-13T14:17:58Z</time>
      </trkpt>
      <trkpt lat="45.48181" lon="4.63012">
        <ele>410.62</ele>
        <time>2013-04-13T14:17:59Z</time>
      </trkpt>
      <trkpt lat="45.48181" lon="4.63013">
        <ele>411.1</ele>
        <time>2013-04-13T14:18:00Z</time>
      </trkpt>
      <trkpt lat="45.48181" lon="4.63015">
        <ele>410.62</ele>
        <time>2013-04-13T14:18:01Z</time>
      </trkpt>
      <trkpt lat="45.48182" lon="4.63016">
        <ele>410.62</ele>
        <time>2013-04-13T14:18:02Z</time>
      </trkpt>
      <trkpt lat="45.48183" lon="4.63017">
        <ele>411.1</ele>
        <time>2013-04-13T14:18:03Z</time>
      </trkpt>
      <trkpt lat="45.48195" lon="4.63031">
        <ele>413.02</ele>
        <time>2013-04-13T14:18:18Z</time>
      </trkpt>
      <trkpt lat="45.48196" lon="4.63032">
        <ele>413.02</ele>
        <time>2013-04-13T14:18:19Z</time>
      </trkpt>
      <trkpt lat="45.4821" lon="4.63054">
        <ele>415.43</ele>
        <time>2013-04-13T14:18:36Z</time>
      </trkpt>
      <trkpt lat="45.48212" lon="4.63065">
        <ele>416.39</ele>
        <time>2013-04-13T14:18:43Z</time>
      </trkpt>
      <trkpt lat="45.48212" lon="4.63066">
        <ele>416.39</ele>
        <time>2013-04-13T14:18:44Z</time>
      </trkpt>
      <trkpt lat="45.48212" lon="4.63068">
        <ele>416.87</ele>
        <time>2013-04-13T14:18:45Z</time>
      </trkpt>
      <trkpt lat="45.48208" lon="4.63093">
        <ele>420.23</ele>
        <time>2013-04-13T14:19:00Z</time>
      </trkpt>
      <trkpt lat="45.48201" lon="4.63103">
        <ele>421.68</ele>
        <time>2013-04-13T14:19:08Z</time>
      </trkpt>
      <trkpt lat="45.482" lon="4.63104">
        <ele>422.16</ele>
        <time>2013-04-13T14:19:09Z</time>
      </trkpt>
      <trkpt lat="45.48181" lon="4.63113">
        <ele>424.08</ele>
        <time>2013-04-13T14:19:26Z</time>
      </trkpt>
      <trkpt lat="45.48174" lon="4.63118">
        <ele>424.56</ele>
        <time>2013-04-13T14:19:32Z</time>
      </trkpt>
      <trkpt lat="45.48173" lon="4.63119">
        <ele>425.04</ele>
        <time>2013-04-13T14:19:33Z</time>
      </trkpt>
      <trkpt lat="45.48156" lon="4.63122">
        <ele>427.44</ele>
        <time>2013-04-13T14:19:47Z</time>
      </trkpt>
      <trkpt lat="45.48155" lon="4.63122">
        <ele>427.92</ele>
        <time>2013-04-13T14:19:48Z</time>
      </trkpt>
      <trkpt lat="45.48133" lon="4.63125">
        <ele>430.33</ele>
        <time>2013-04-13T14:20:05Z</time>
      </trkpt>
      <trkpt lat="45.48119" lon="4.63128">
        <ele>433.21</ele>
        <time>2013-04-13T14:20:17Z</time>
      </trkpt>
      <trkpt lat="45.48117" lon="4.63128">
        <ele>433.69</ele>
        <time>2013-04-13T14:20:19Z</time>
      </trkpt>
      <trkpt lat="45.48116" lon="4.63127">
        <ele>433.69</ele>
        <time>2013-04-13T14:20:20Z</time>
      </trkpt>
      <trkpt lat="45.48114" lon="4.63127">
        <ele>433.69</ele>
        <time>2013-04-13T14:20:21Z</time>
      </trkpt>
      <trkpt lat="45.48113" lon="4.63127">
        <ele>433.69</ele>
        <time>2013-04-13T14:20:22Z</time>
      </trkpt>
      <trkpt lat="45.48112" lon="4.63127">
        <ele>433.69</ele>
        <time>2013-04-13T14:20:23Z</time>
      </trkpt>
      <trkpt lat="45.48111" lon="4.63127">
        <ele>433.69</ele>
        <time>2013-04-13T14:20:24Z</time>
      </trkpt>
      <trkpt lat="45.48109" lon="4.63127">
        <ele>434.17</ele>
        <time>2013-04-13T14:20:25Z</time>
      </trkpt>
      <trkpt lat="45.48108" lon="4.63127">
        <ele>434.17</ele>
        <time>2013-04-13T14:20:26Z</time>
      </trkpt>
      <trkpt lat="45.48107" lon="4.63126">
        <ele>434.17</ele>
        <time>2013-04-13T14:20:27Z</time>
      </trkpt>
      <trkpt lat="45.48105" lon="4.63126">
        <ele>434.65</ele>
        <time>2013-04-13T14:20:28Z</time>
      </trkpt>
      <trkpt lat="45.48089" lon="4.63129">
        <ele>436.58</ele>
        <time>2013-04-13T14:20:41Z</time>
      </trkpt>
      <trkpt lat="45.48079" lon="4.6313">
        <ele>438.98</ele>
        <time>2013-04-13T14:20:50Z</time>
      </trkpt>
      <trkpt lat="45.48078" lon="4.63131">
        <ele>438.98</ele>
        <time>2013-04-13T14:20:51Z</time>
      </trkpt>
      <trkpt lat="45.48076" lon="4.63131">
        <ele>439.46</ele>
        <time>2013-04-13T14:20:52Z</time>
      </trkpt>
      <trkpt lat="45.48066" lon="4.63131">
        <ele>441.38</ele>
        <time>2013-04-13T14:20:59Z</time>
      </trkpt>
      <trkpt lat="45.48058" lon="4.63133">
        <ele>443.31</ele>
        <time>2013-04-13T14:21:06Z</time>
      </trkpt>
      <trkpt lat="45.48046" lon="4.63133">
        <ele>445.23</ele>
        <time>2013-04-13T14:21:16Z</time>
      </trkpt>
      <trkpt lat="45.48029" lon="4.63133">
        <ele>448.11</ele>
        <time>2013-04-13T14:21:30Z</time>
      </trkpt>
      <trkpt lat="45.48023" lon="4.63132">
        <ele>449.07</ele>
        <time>2013-04-13T14:21:36Z</time>
      </trkpt>
      <trkpt lat="45.48021" lon="4.63132">
        <ele>448.59</ele>
        <time>2013-04-13T14:21:37Z</time>
      </trkpt>
      <trkpt lat="45.48013" lon="4.63133">
        <ele>451.96</ele>
        <time>2013-04-13T14:21:45Z</time>
      </trkpt>
      <trkpt lat="45.48012" lon="4.63137">
        <ele>450.52</ele>
        <time>2013-04-13T14:22:00Z</time>
      </trkpt>
      <trkpt lat="45.48013" lon="4.63144">
        <ele>451</ele>
        <time>2013-04-13T14:22:14Z</time>
      </trkpt>
      <trkpt lat="45.48006" lon="4.63172">
        <ele>452.92</ele>
        <time>2013-04-13T14:22:29Z</time>
      </trkpt>
      <trkpt lat="45.47989" lon="4.63218">
        <ele>451.96</ele>
        <time>2013-04-13T14:22:44Z</time>
      </trkpt>
      <trkpt lat="45.47988" lon="4.63221">
        <ele>451.48</ele>
        <time>2013-04-13T14:22:45Z</time>
      </trkpt>
      <trkpt lat="45.47959" lon="4.63266">
        <ele>450.03</ele>
        <time>2013-04-13T14:22:56Z</time>
      </trkpt>
      <trkpt lat="45.47937" lon="4.63311">
        <ele>450.52</ele>
        <time>2013-04-13T14:23:07Z</time>
      </trkpt>
      <trkpt lat="45.47925" lon="4.63357">
        <ele>449.07</ele>
        <time>2013-04-13T14:23:18Z</time>
      </trkpt>
      <trkpt lat="45.47924" lon="4.63366">
        <ele>447.63</ele>
        <time>2013-04-13T14:23:20Z</time>
      </trkpt>
      <trkpt lat="45.47922" lon="4.63389">
        <ele>448.59</ele>
        <time>2013-04-13T14:23:25Z</time>
      </trkpt>
      <trkpt lat="45.47926" lon="4.63441">
        <ele>450.03</ele>
        <time>2013-04-13T14:23:37Z</time>
      </trkpt>
      <trkpt lat="45.47939" lon="4.63496">
        <ele>449.55</ele>
        <time>2013-04-13T14:23:49Z</time>
      </trkpt>
      <trkpt lat="45.47959" lon="4.63551">
        <ele>450.52</ele>
        <time>2013-04-13T14:24:02Z</time>
      </trkpt>
      <trkpt lat="45.47973" lon="4.63606">
        <ele>448.59</ele>
        <time>2013-04-13T14:24:13Z</time>
      </trkpt>
      <trkpt lat="45.47984" lon="4.63619">
        <ele>445.71</ele>
        <time>2013-04-13T14:24:17Z</time>
      </trkpt>
      <trkpt lat="45.47986" lon="4.63622">
        <ele>451.48</ele>
        <time>2013-04-13T14:24:18Z</time>
      </trkpt>
      <trkpt lat="45.47994" lon="4.6363">
        <ele>448.11</ele>
        <time>2013-04-13T14:24:21Z</time>
      </trkpt>
      <trkpt lat="45.48015" lon="4.63691">
        <ele>449.55</ele>
        <time>2013-04-13T14:24:36Z</time>
      </trkpt>
      <trkpt lat="45.47999" lon="4.63772">
        <ele>451.48</ele>
        <time>2013-04-13T14:24:53Z</time>
      </trkpt>
      <trkpt lat="45.47987" lon="4.63798">
        <ele>450.52</ele>
        <time>2013-04-13T14:24:58Z</time>
      </trkpt>
      <trkpt lat="45.47961" lon="4.63844">
        <ele>448.59</ele>
        <time>2013-04-13T14:25:06Z</time>
      </trkpt>
      <trkpt lat="45.47954" lon="4.63858">
        <ele>448.59</ele>
        <time>2013-04-13T14:25:08Z</time>
      </trkpt>
      <trkpt lat="45.47951" lon="4.63865">
        <ele>448.59</ele>
        <time>2013-04-13T14:25:09Z</time>
      </trkpt>
      <trkpt lat="45.47948" lon="4.63872">
        <ele>448.11</ele>
        <time>2013-04-13T14:25:10Z</time>
      </trkpt>
      <trkpt lat="45.47945" lon="4.63879">
        <ele>447.63</ele>
        <time>2013-04-13T14:25:11Z</time>
      </trkpt>
      <trkpt lat="45.47942" lon="4.63886">
        <ele>447.63</ele>
        <time>2013-04-13T14:25:12Z</time>
      </trkpt>
      <trkpt lat="45.47893" lon="4.63961">
        <ele>444.27</ele>
        <time>2013-04-13T14:25:23Z</time>
      </trkpt>
      <trkpt lat="45.47879" lon="4.63972">
        <ele>443.79</ele>
        <time>2013-04-13T14:25:25Z</time>
      </trkpt>
      <trkpt lat="45.4786" lon="4.63986">
        <ele>442.82</ele>
        <time>2013-04-13T14:25:28Z</time>
      </trkpt>
      <trkpt lat="45.47853" lon="4.63989">
        <ele>442.82</ele>
        <time>2013-04-13T14:25:29Z</time>
      </trkpt>
      <trkpt lat="45.47847" lon="4.63991">
        <ele>442.82</ele>
        <time>2013-04-13T14:25:30Z</time>
      </trkpt>
      <trkpt lat="45.47779" lon="4.64019">
        <ele>441.86</ele>
        <time>2013-04-13T14:25:42Z</time>
      </trkpt>
      <trkpt lat="45.47776" lon="4.64024">
        <ele>441.86</ele>
        <time>2013-04-13T14:25:43Z</time>
      </trkpt>
      <trkpt lat="45.47773" lon="4.6403">
        <ele>441.38</ele>
        <time>2013-04-13T14:25:44Z</time>
      </trkpt>
      <trkpt lat="45.47772" lon="4.64037">
        <ele>442.34</ele>
        <time>2013-04-13T14:25:45Z</time>
      </trkpt>
      <trkpt lat="45.47772" lon="4.64044">
        <ele>441.86</ele>
        <time>2013-04-13T14:25:46Z</time>
      </trkpt>
      <trkpt lat="45.47774" lon="4.64051">
        <ele>441.86</ele>
        <time>2013-04-13T14:25:47Z</time>
      </trkpt>
      <trkpt lat="45.47775" lon="4.64058">
        <ele>442.34</ele>
        <time>2013-04-13T14:25:48Z</time>
      </trkpt>
      <trkpt lat="45.47777" lon="4.64064">
        <ele>442.82</ele>
        <time>2013-04-13T14:25:49Z</time>
      </trkpt>
      <trkpt lat="45.47779" lon="4.64069">
        <ele>442.34</ele>
        <time>2013-04-13T14:25:50Z</time>
      </trkpt>
      <trkpt lat="45.47781" lon="4.64075">
        <ele>442.82</ele>
        <time>2013-04-13T14:25:51Z</time>
      </trkpt>
      <trkpt lat="45.47783" lon="4.6408">
        <ele>442.82</ele>
        <time>2013-04-13T14:25:52Z</time>
      </trkpt>
      <trkpt lat="45.47785" lon="4.64085">
        <ele>443.31</ele>
        <time>2013-04-13T14:25:53Z</time>
      </trkpt>
      <trkpt lat="45.47804" lon="4.6414">
        <ele>447.15</ele>
        <time>2013-04-13T14:26:06Z</time>
      </trkpt>
      <trkpt lat="45.47811" lon="4.64205">
        <ele>449.07</ele>
        <time>2013-04-13T14:26:20Z</time>
      </trkpt>
      <trkpt lat="45.47822" lon="4.64285">
        <ele>451.48</ele>
        <time>2013-04-13T14:26:36Z</time>
      </trkpt>
      <trkpt lat="45.47841" lon="4.64394">
        <ele>452.92</ele>
        <time>2013-04-13T14:26:57Z</time>
      </trkpt>
      <trkpt lat="45.47845" lon="4.64412">
        <ele>452.44</ele>
        <time>2013-04-13T14:27:00Z</time>
      </trkpt>
      <trkpt lat="45.4785" lon="4.64472">
        <ele>449.07</ele>
        <time>2013-04-13T14:27:07Z</time>
      </trkpt>
      <trkpt lat="45.4785" lon="4.64496">
        <ele>446.19</ele>
        <time>2013-04-13T14:27:09Z</time>
      </trkpt>
      <trkpt lat="45.47849" lon="4.64525">
        <ele>442.82</ele>
        <time>2013-04-13T14:27:11Z</time>
      </trkpt>
      <trkpt lat="45.47848" lon="4.64558">
        <ele>438.98</ele>
        <time>2013-04-13T14:27:13Z</time>
      </trkpt>
      <trkpt lat="45.47847" lon="4.64587">
        <ele>436.1</ele>
        <time>2013-04-13T14:27:15Z</time>
      </trkpt>
      <trkpt lat="45.47847" lon="4.64599">
        <ele>434.17</ele>
        <time>2013-04-13T14:27:16Z</time>
      </trkpt>
      <trkpt lat="45.47845" lon="4.64609">
        <ele>432.73</ele>
        <time>2013-04-13T14:27:17Z</time>
      </trkpt>
      <trkpt lat="45.47843" lon="4.6462">
        <ele>431.77</ele>
        <time>2013-04-13T14:27:18Z</time>
      </trkpt>
      <trkpt lat="45.47839" lon="4.6463">
        <ele>430.81</ele>
        <time>2013-04-13T14:27:19Z</time>
      </trkpt>
      <trkpt lat="45.47834" lon="4.64641">
        <ele>429.85</ele>
        <time>2013-04-13T14:27:20Z</time>
      </trkpt>
      <trkpt lat="45.47825" lon="4.64657">
        <ele>426</ele>
        <time>2013-04-13T14:27:22Z</time>
      </trkpt>
      <trkpt lat="45.47822" lon="4.64663">
        <ele>424.56</ele>
        <time>2013-04-13T14:27:23Z</time>
      </trkpt>
      <trkpt lat="45.47824" lon="4.64669">
        <ele>424.56</ele>
        <time>2013-04-13T14:27:24Z</time>
      </trkpt>
      <trkpt lat="45.47827" lon="4.64672">
        <ele>424.08</ele>
        <time>2013-04-13T14:27:25Z</time>
      </trkpt>
      <trkpt lat="45.47832" lon="4.64675">
        <ele>424.56</ele>
        <time>2013-04-13T14:27:26Z</time>
      </trkpt>
      <trkpt lat="45.47837" lon="4.64679">
        <ele>423.6</ele>
        <time>2013-04-13T14:27:27Z</time>
      </trkpt>
      <trkpt lat="45.47842" lon="4.64682">
        <ele>423.6</ele>
        <time>2013-04-13T14:27:28Z</time>
      </trkpt>
      <trkpt lat="45.47857" lon="4.64694">
        <ele>423.12</ele>
        <time>2013-04-13T14:27:31Z</time>
      </trkpt>
      <trkpt lat="45.47863" lon="4.64698">
        <ele>422.16</ele>
        <time>2013-04-13T14:27:32Z</time>
      </trkpt>
      <trkpt lat="45.47883" lon="4.6471">
        <ele>421.68</ele>
        <time>2013-04-13T14:27:36Z</time>
      </trkpt>
      <trkpt lat="45.47894" lon="4.64717">
        <ele>422.16</ele>
        <time>2013-04-13T14:27:41Z</time>
      </trkpt>
      <trkpt lat="45.47895" lon="4.64716">
        <ele>422.16</ele>
        <time>2013-04-13T14:27:42Z</time>
      </trkpt>
      <trkpt lat="45.47897" lon="4.64716">
        <ele>422.16</ele>
        <time>2013-04-13T14:27:43Z</time>
      </trkpt>
      <trkpt lat="45.47896" lon="4.64714">
        <ele>422.16</ele>
        <time>2013-04-13T14:27:58Z</time>
      </trkpt>
      <trkpt lat="45.47897" lon="4.64716">
        <ele>422.16</ele>
        <time>2013-04-13T14:28:23Z</time>
      </trkpt>
      <trkpt lat="45.47897" lon="4.64715">
        <ele>422.16</ele>
        <time>2013-04-13T14:28:40Z</time>
      </trkpt>
      <trkpt lat="45.47904" lon="4.64712">
        <ele>422.16</ele>
        <time>2013-04-13T14:28:59Z</time>
      </trkpt>
      <trkpt lat="45.47914" lon="4.64708">
        <ele>422.16</ele>
        <time>2013-04-13T14:29:31Z</time>
      </trkpt>
      <trkpt lat="45.47915" lon="4.64709">
        <ele>422.16</ele>
        <time>2013-04-13T14:29:57Z</time>
      </trkpt>
      <trkpt lat="45.47915" lon="4.64709">
        <ele>423.12</ele>
        <time>2013-04-13T14:30:19Z</time>
      </trkpt>
      <trkpt lat="45.47911" lon="4.6471">
        <ele>423.12</ele>
        <time>2013-04-13T14:30:47Z</time>
      </trkpt>
      <trkpt lat="45.47908" lon="4.64711">
        <ele>423.12</ele>
        <time>2013-04-13T14:31:15Z</time>
      </trkpt>
      <trkpt lat="45.47909" lon="4.64711">
        <ele>423.12</ele>
        <time>2013-04-13T14:31:45Z</time>
      </trkpt>
      <trkpt lat="45.47906" lon="4.6471">
        <ele>422.64</ele>
        <time>2013-04-13T14:32:10Z</time>
      </trkpt>
      <trkpt lat="45.47904" lon="4.64711">
        <ele>423.6</ele>
        <time>2013-04-13T14:32:34Z</time>
      </trkpt>
      <trkpt lat="45.47907" lon="4.64711">
        <ele>424.08</ele>
        <time>2013-04-13T14:33:01Z</time>
      </trkpt>
      <trkpt lat="45.47906" lon="4.64711">
        <ele>423.6</ele>
        <time>2013-04-13T14:33:29Z</time>
      </trkpt>
      <trkpt lat="45.47907" lon="4.64713">
        <ele>423.6</ele>
        <time>2013-04-13T14:34:07Z</time>
      </trkpt>
      <trkpt lat="45.47906" lon="4.64711">
        <ele>424.08</ele>
        <time>2013-04-13T14:34:42Z</time>
      </trkpt>
      <trkpt lat="45.47906" lon="4.64712">
        <ele>423.6</ele>
        <time>2013-04-13T14:35:19Z</time>
      </trkpt>
      <trkpt lat="45.4791" lon="4.64713">
        <ele>423.12</ele>
        <time>2013-04-13T14:35:41Z</time>
      </trkpt>
      <trkpt lat="45.47906" lon="4.64711">
        <ele>424.08</ele>
        <time>2013-04-13T14:36:07Z</time>
      </trkpt>
      <trkpt lat="45.47906" lon="4.64715">
        <ele>423.6</ele>
        <time>2013-04-13T14:36:42Z</time>
      </trkpt>
      <trkpt lat="45.47906" lon="4.64717">
        <ele>424.56</ele>
        <time>2013-04-13T14:37:18Z</time>
      </trkpt>
      <trkpt lat="45.4791" lon="4.64714">
        <ele>424.08</ele>
        <time>2013-04-13T14:37:43Z</time>
      </trkpt>
      <trkpt lat="45.47911" lon="4.64713">
        <ele>424.08</ele>
        <time>2013-04-13T14:37:44Z</time>
      </trkpt>
      <trkpt lat="45.47912" lon="4.64712">
        <ele>424.08</ele>
        <time>2013-04-13T14:37:45Z</time>
      </trkpt>
      <trkpt lat="45.47913" lon="4.64711">
        <ele>424.08</ele>
        <time>2013-04-13T14:37:46Z</time>
      </trkpt>
      <trkpt lat="45.47922" lon="4.64707">
        <ele>424.56</ele>
        <time>2013-04-13T14:37:55Z</time>
      </trkpt>
      <trkpt lat="45.47923" lon="4.64705">
        <ele>424.08</ele>
        <time>2013-04-13T14:37:56Z</time>
      </trkpt>
      <trkpt lat="45.47931" lon="4.64694">
        <ele>424.08</ele>
        <time>2013-04-13T14:38:03Z</time>
      </trkpt>
      <trkpt lat="45.4794" lon="4.64657">
        <ele>424.56</ele>
        <time>2013-04-13T14:38:18Z</time>
      </trkpt>
      <trkpt lat="45.47942" lon="4.64651">
        <ele>424.08</ele>
        <time>2013-04-13T14:38:31Z</time>
      </trkpt>
      <trkpt lat="45.47958" lon="4.64609">
        <ele>424.56</ele>
        <time>2013-04-13T14:38:44Z</time>
      </trkpt>
      <trkpt lat="45.47972" lon="4.64558">
        <ele>424.08</ele>
        <time>2013-04-13T14:39:02Z</time>
      </trkpt>
      <trkpt lat="45.47974" lon="4.64555">
        <ele>425.04</ele>
        <time>2013-04-13T14:39:03Z</time>
      </trkpt>
      <trkpt lat="45.47985" lon="4.6454">
        <ele>424.56</ele>
        <time>2013-04-13T14:39:11Z</time>
      </trkpt>
      <trkpt lat="45.47989" lon="4.64531">
        <ele>424.08</ele>
        <time>2013-04-13T14:39:16Z</time>
      </trkpt>
      <trkpt lat="45.47992" lon="4.64529">
        <ele>424.56</ele>
        <time>2013-04-13T14:39:18Z</time>
      </trkpt>
      <trkpt lat="45.48" lon="4.64531">
        <ele>424.08</ele>
        <time>2013-04-13T14:39:23Z</time>
      </trkpt>
      <trkpt lat="45.47994" lon="4.64551">
        <ele>424.08</ele>
        <time>2013-04-13T14:39:33Z</time>
      </trkpt>
      <trkpt lat="45.47987" lon="4.64546">
        <ele>424.56</ele>
        <time>2013-04-13T14:39:38Z</time>
      </trkpt>
      <trkpt lat="45.4797" lon="4.64561">
        <ele>425.04</ele>
        <time>2013-04-13T14:39:53Z</time>
      </trkpt>
      <trkpt lat="45.47949" lon="4.64598">
        <ele>424.56</ele>
        <time>2013-04-13T14:40:08Z</time>
      </trkpt>
      <trkpt lat="45.47938" lon="4.6462">
        <ele>425.04</ele>
        <time>2013-04-13T14:40:17Z</time>
      </trkpt>
      <trkpt lat="45.4794" lon="4.64643">
        <ele>424.08</ele>
        <time>2013-04-13T14:40:24Z</time>
      </trkpt>
      <trkpt lat="45.47933" lon="4.64684">
        <ele>423.6</ele>
        <time>2013-04-13T14:40:39Z</time>
      </trkpt>
      <trkpt lat="45.47925" lon="4.64699">
        <ele>424.08</ele>
        <time>2013-04-13T14:40:47Z</time>
      </trkpt>
      <trkpt lat="45.47919" lon="4.6471">
        <ele>423.6</ele>
        <time>2013-04-13T14:40:52Z</time>
      </trkpt>
      <trkpt lat="45.47921" lon="4.64727">
        <ele>424.56</ele>
        <time>2013-04-13T14:41:00Z</time>
      </trkpt>
      <trkpt lat="45.4793" lon="4.64756">
        <ele>426.96</ele>
        <time>2013-04-13T14:41:15Z</time>
      </trkpt>
      <trkpt lat="45.47936" lon="4.64782">
        <ele>429.85</ele>
        <time>2013-04-13T14:41:29Z</time>
      </trkpt>
      <trkpt lat="45.47947" lon="4.64812">
        <ele>432.25</ele>
        <time>2013-04-13T14:41:45Z</time>
      </trkpt>
      <trkpt lat="45.47947" lon="4.64829">
        <ele>434.17</ele>
        <time>2013-04-13T14:41:55Z</time>
      </trkpt>
      <trkpt lat="45.47944" lon="4.64843">
        <ele>436.1</ele>
        <time>2013-04-13T14:42:02Z</time>
      </trkpt>
      <trkpt lat="45.47945" lon="4.64853">
        <ele>437.06</ele>
        <time>2013-04-13T14:42:08Z</time>
      </trkpt>
      <trkpt lat="45.47943" lon="4.64858">
        <ele>437.54</ele>
        <time>2013-04-13T14:42:12Z</time>
      </trkpt>
      <trkpt lat="45.47932" lon="4.64848">
        <ele>439.46</ele>
        <time>2013-04-13T14:42:24Z</time>
      </trkpt>
      <trkpt lat="45.47922" lon="4.64838">
        <ele>442.82</ele>
        <time>2013-04-13T14:42:36Z</time>
      </trkpt>
      <trkpt lat="45.47911" lon="4.64828">
        <ele>446.19</ele>
        <time>2013-04-13T14:42:47Z</time>
      </trkpt>
      <trkpt lat="45.4791" lon="4.64825">
        <ele>446.19</ele>
        <time>2013-04-13T14:42:49Z</time>
      </trkpt>
      <trkpt lat="45.47907" lon="4.64821">
        <ele>447.63</ele>
        <time>2013-04-13T14:42:53Z</time>
      </trkpt>
      <trkpt lat="45.47903" lon="4.64829">
        <ele>449.07</ele>
        <time>2013-04-13T14:43:02Z</time>
      </trkpt>
      <trkpt lat="45.47899" lon="4.64849">
        <ele>451.48</ele>
        <time>2013-04-13T14:43:16Z</time>
      </trkpt>
      <trkpt lat="45.47888" lon="4.64872">
        <ele>454.36</ele>
        <time>2013-04-13T14:43:33Z</time>
      </trkpt>
      <trkpt lat="45.47876" lon="4.64895">
        <ele>456.28</ele>
        <time>2013-04-13T14:43:50Z</time>
      </trkpt>
      <trkpt lat="45.47858" lon="4.64914">
        <ele>458.21</ele>
        <time>2013-04-13T14:44:06Z</time>
      </trkpt>
      <trkpt lat="45.47839" lon="4.6493">
        <ele>460.61</ele>
        <time>2013-04-13T14:44:23Z</time>
      </trkpt>
      <trkpt lat="45.47825" lon="4.64947">
        <ele>463.01</ele>
        <time>2013-04-13T14:44:37Z</time>
      </trkpt>
      <trkpt lat="45.47828" lon="4.64971">
        <ele>466.38</ele>
        <time>2013-04-13T14:44:53Z</time>
      </trkpt>
      <trkpt lat="45.47831" lon="4.64987">
        <ele>469.26</ele>
        <time>2013-04-13T14:45:06Z</time>
      </trkpt>
      <trkpt lat="45.47832" lon="4.64999">
        <ele>470.22</ele>
        <time>2013-04-13T14:45:15Z</time>
      </trkpt>
      <trkpt lat="45.47833" lon="4.65015">
        <ele>471.66</ele>
        <time>2013-04-13T14:45:28Z</time>
      </trkpt>
      <trkpt lat="45.47834" lon="4.65037">
        <ele>475.03</ele>
        <time>2013-04-13T14:45:45Z</time>
      </trkpt>
      <trkpt lat="45.47837" lon="4.65055">
        <ele>478.87</ele>
        <time>2013-04-13T14:45:59Z</time>
      </trkpt>
      <trkpt lat="45.47838" lon="4.65061">
        <ele>477.43</ele>
        <time>2013-04-13T14:46:03Z</time>
      </trkpt>
      <trkpt lat="45.47841" lon="4.65079">
        <ele>480.8</ele>
        <time>2013-04-13T14:46:18Z</time>
      </trkpt>
      <trkpt lat="45.47845" lon="4.65099">
        <ele>482.72</ele>
        <time>2013-04-13T14:46:33Z</time>
      </trkpt>
      <trkpt lat="45.47843" lon="4.6512">
        <ele>484.64</ele>
        <time>2013-04-13T14:46:50Z</time>
      </trkpt>
      <trkpt lat="45.47842" lon="4.65144">
        <ele>488.01</ele>
        <time>2013-04-13T14:47:07Z</time>
      </trkpt>
      <trkpt lat="45.4784" lon="4.6517">
        <ele>490.41</ele>
        <time>2013-04-13T14:47:25Z</time>
      </trkpt>
      <trkpt lat="45.47841" lon="4.65187">
        <ele>492.33</ele>
        <time>2013-04-13T14:47:38Z</time>
      </trkpt>
      <trkpt lat="45.4784" lon="4.65193">
        <ele>492.33</ele>
        <time>2013-04-13T14:47:42Z</time>
      </trkpt>
      <trkpt lat="45.47839" lon="4.65216">
        <ele>494.26</ele>
        <time>2013-04-13T14:47:59Z</time>
      </trkpt>
      <trkpt lat="45.47838" lon="4.65237">
        <ele>497.62</ele>
        <time>2013-04-13T14:48:14Z</time>
      </trkpt>
      <trkpt lat="45.47836" lon="4.6526">
        <ele>499.06</ele>
        <time>2013-04-13T14:48:31Z</time>
      </trkpt>
      <trkpt lat="45.47835" lon="4.65284">
        <ele>501.95</ele>
        <time>2013-04-13T14:48:49Z</time>
      </trkpt>
      <trkpt lat="45.47832" lon="4.65306">
        <ele>505.79</ele>
        <time>2013-04-13T14:49:06Z</time>
      </trkpt>
      <trkpt lat="45.47832" lon="4.65313">
        <ele>505.31</ele>
        <time>2013-04-13T14:49:12Z</time>
      </trkpt>
      <trkpt lat="45.47832" lon="4.6532">
        <ele>506.27</ele>
        <time>2013-04-13T14:49:17Z</time>
      </trkpt>
      <trkpt lat="45.47832" lon="4.6534">
        <ele>509.64</ele>
        <time>2013-04-13T14:49:32Z</time>
      </trkpt>
      <trkpt lat="45.4783" lon="4.65363">
        <ele>511.56</ele>
        <time>2013-04-13T14:49:49Z</time>
      </trkpt>
      <trkpt lat="45.4783" lon="4.65369">
        <ele>512.52</ele>
        <time>2013-04-13T14:49:53Z</time>
      </trkpt>
      <trkpt lat="45.47826" lon="4.65388">
        <ele>514.92</ele>
        <time>2013-04-13T14:50:08Z</time>
      </trkpt>
      <trkpt lat="45.47823" lon="4.65409">
        <ele>517.33</ele>
        <time>2013-04-13T14:50:23Z</time>
      </trkpt>
      <trkpt lat="45.47822" lon="4.6542">
        <ele>519.25</ele>
        <time>2013-04-13T14:50:31Z</time>
      </trkpt>
      <trkpt lat="45.4782" lon="4.65427">
        <ele>519.73</ele>
        <time>2013-04-13T14:50:37Z</time>
      </trkpt>
      <trkpt lat="45.47816" lon="4.65446">
        <ele>521.17</ele>
        <time>2013-04-13T14:50:51Z</time>
      </trkpt>
      <trkpt lat="45.47809" lon="4.65471">
        <ele>524.54</ele>
        <time>2013-04-13T14:51:08Z</time>
      </trkpt>
      <trkpt lat="45.4782" lon="4.65475">
        <ele>525.02</ele>
        <time>2013-04-13T14:51:18Z</time>
      </trkpt>
      <trkpt lat="45.47822" lon="4.65474">
        <ele>525.02</ele>
        <time>2013-04-13T14:51:19Z</time>
      </trkpt>
      <trkpt lat="45.47864" lon="4.65467">
        <ele>522.61</ele>
        <time>2013-04-13T14:51:30Z</time>
      </trkpt>
      <trkpt lat="45.47891" lon="4.65464">
        <ele>521.65</ele>
        <time>2013-04-13T14:51:34Z</time>
      </trkpt>
      <trkpt lat="45.47926" lon="4.65468">
        <ele>518.29</ele>
        <time>2013-04-13T14:51:38Z</time>
      </trkpt>
      <trkpt lat="45.47973" lon="4.65486">
        <ele>515.4</ele>
        <time>2013-04-13T14:51:43Z</time>
      </trkpt>
      <trkpt lat="45.48022" lon="4.65511">
        <ele>511.56</ele>
        <time>2013-04-13T14:51:48Z</time>
      </trkpt>
      <trkpt lat="45.48053" lon="4.65532">
        <ele>508.67</ele>
        <time>2013-04-13T14:51:51Z</time>
      </trkpt>
      <trkpt lat="45.48062" lon="4.65543">
        <ele>507.71</ele>
        <time>2013-04-13T14:51:52Z</time>
      </trkpt>
      <trkpt lat="45.48071" lon="4.65554">
        <ele>506.27</ele>
        <time>2013-04-13T14:51:53Z</time>
      </trkpt>
      <trkpt lat="45.48081" lon="4.65563">
        <ele>504.83</ele>
        <time>2013-04-13T14:51:54Z</time>
      </trkpt>
      <trkpt lat="45.4809" lon="4.65571">
        <ele>504.35</ele>
        <time>2013-04-13T14:51:55Z</time>
      </trkpt>
      <trkpt lat="45.481" lon="4.65578">
        <ele>503.87</ele>
        <time>2013-04-13T14:51:56Z</time>
      </trkpt>
      <trkpt lat="45.48109" lon="4.65584">
        <ele>503.87</ele>
        <time>2013-04-13T14:51:57Z</time>
      </trkpt>
      <trkpt lat="45.48119" lon="4.65588">
        <ele>503.39</ele>
        <time>2013-04-13T14:51:58Z</time>
      </trkpt>
      <trkpt lat="45.48129" lon="4.65592">
        <ele>502.43</ele>
        <time>2013-04-13T14:51:59Z</time>
      </trkpt>
      <trkpt lat="45.48139" lon="4.65595">
        <ele>501.95</ele>
        <time>2013-04-13T14:52:00Z</time>
      </trkpt>
      <trkpt lat="45.48151" lon="4.65596">
        <ele>501.46</ele>
        <time>2013-04-13T14:52:01Z</time>
      </trkpt>
      <trkpt lat="45.48163" lon="4.65597">
        <ele>499.54</ele>
        <time>2013-04-13T14:52:02Z</time>
      </trkpt>
      <trkpt lat="45.48187" lon="4.65599">
        <ele>496.18</ele>
        <time>2013-04-13T14:52:04Z</time>
      </trkpt>
      <trkpt lat="45.482" lon="4.65597">
        <ele>493.29</ele>
        <time>2013-04-13T14:52:05Z</time>
      </trkpt>
      <trkpt lat="45.48213" lon="4.65594">
        <ele>491.85</ele>
        <time>2013-04-13T14:52:06Z</time>
      </trkpt>
      <trkpt lat="45.48225" lon="4.65591">
        <ele>490.89</ele>
        <time>2013-04-13T14:52:07Z</time>
      </trkpt>
      <trkpt lat="45.48236" lon="4.6559">
        <ele>489.93</ele>
        <time>2013-04-13T14:52:08Z</time>
      </trkpt>
      <trkpt lat="45.48245" lon="4.65594">
        <ele>488.97</ele>
        <time>2013-04-13T14:52:09Z</time>
      </trkpt>
      <trkpt lat="45.48253" lon="4.65598">
        <ele>488.97</ele>
        <time>2013-04-13T14:52:10Z</time>
      </trkpt>
      <trkpt lat="45.48302" lon="4.65631">
        <ele>492.33</ele>
        <time>2013-04-13T14:52:18Z</time>
      </trkpt>
      <trkpt lat="45.4837" lon="4.65673">
        <ele>494.26</ele>
        <time>2013-04-13T14:52:34Z</time>
      </trkpt>
      <trkpt lat="45.48403" lon="4.65703">
        <ele>496.18</ele>
        <time>2013-04-13T14:52:43Z</time>
      </trkpt>
      <trkpt lat="45.48405" lon="4.65707">
        <ele>497.14</ele>
        <time>2013-04-13T14:52:44Z</time>
      </trkpt>
      <trkpt lat="45.48407" lon="4.65712">
        <ele>496.66</ele>
        <time>2013-04-13T14:52:45Z</time>
      </trkpt>
      <trkpt lat="45.48416" lon="4.65773">
        <ele>498.1</ele>
        <time>2013-04-13T14:52:58Z</time>
      </trkpt>
      <trkpt lat="45.48416" lon="4.65785">
        <ele>497.14</ele>
        <time>2013-04-13T14:53:00Z</time>
      </trkpt>
      <trkpt lat="45.48414" lon="4.65792">
        <ele>496.66</ele>
        <time>2013-04-13T14:53:01Z</time>
      </trkpt>
      <trkpt lat="45.48408" lon="4.6582">
        <ele>496.66</ele>
        <time>2013-04-13T14:53:05Z</time>
      </trkpt>
      <trkpt lat="45.48407" lon="4.65827">
        <ele>496.18</ele>
        <time>2013-04-13T14:53:06Z</time>
      </trkpt>
      <trkpt lat="45.48407" lon="4.65834">
        <ele>495.7</ele>
        <time>2013-04-13T14:53:07Z</time>
      </trkpt>
      <trkpt lat="45.48408" lon="4.65841">
        <ele>495.7</ele>
        <time>2013-04-13T14:53:08Z</time>
      </trkpt>
      <trkpt lat="45.4841" lon="4.65847">
        <ele>496.18</ele>
        <time>2013-04-13T14:53:09Z</time>
      </trkpt>
      <trkpt lat="45.48412" lon="4.65854">
        <ele>495.7</ele>
        <time>2013-04-13T14:53:10Z</time>
      </trkpt>
      <trkpt lat="45.48417" lon="4.65866">
        <ele>495.7</ele>
        <time>2013-04-13T14:53:12Z</time>
      </trkpt>
      <trkpt lat="45.48419" lon="4.65871">
        <ele>495.22</ele>
        <time>2013-04-13T14:53:13Z</time>
      </trkpt>
      <trkpt lat="45.48437" lon="4.65915">
        <ele>495.22</ele>
        <time>2013-04-13T14:53:22Z</time>
      </trkpt>
      <trkpt lat="45.48446" lon="4.65946">
        <ele>492.33</ele>
        <time>2013-04-13T14:53:28Z</time>
      </trkpt>
      <trkpt lat="45.48446" lon="4.6595">
        <ele>493.29</ele>
        <time>2013-04-13T14:53:29Z</time>
      </trkpt>
      <trkpt lat="45.48443" lon="4.65988">
        <ele>493.77</ele>
        <time>2013-04-13T14:53:38Z</time>
      </trkpt>
      <trkpt lat="45.48444" lon="4.65991">
        <ele>493.77</ele>
        <time>2013-04-13T14:53:39Z</time>
      </trkpt>
      <trkpt lat="45.48447" lon="4.65993">
        <ele>493.77</ele>
        <time>2013-04-13T14:53:40Z</time>
      </trkpt>
      <trkpt lat="45.48451" lon="4.65994">
        <ele>493.29</ele>
        <time>2013-04-13T14:53:41Z</time>
      </trkpt>
      <trkpt lat="45.48455" lon="4.65995">
        <ele>493.29</ele>
        <time>2013-04-13T14:53:42Z</time>
      </trkpt>
      <trkpt lat="45.4846" lon="4.65996">
        <ele>492.81</ele>
        <time>2013-04-13T14:53:43Z</time>
      </trkpt>
      <trkpt lat="45.48465" lon="4.65998">
        <ele>492.81</ele>
        <time>2013-04-13T14:53:44Z</time>
      </trkpt>
      <trkpt lat="45.48488" lon="4.66007">
        <ele>492.33</ele>
        <time>2013-04-13T14:53:49Z</time>
      </trkpt>
      <trkpt lat="45.48531" lon="4.66047">
        <ele>492.33</ele>
        <time>2013-04-13T14:54:02Z</time>
      </trkpt>
      <trkpt lat="45.48545" lon="4.66071">
        <ele>491.85</ele>
        <time>2013-04-13T14:54:07Z</time>
      </trkpt>
      <trkpt lat="45.48567" lon="4.66114">
        <ele>489.93</ele>
        <time>2013-04-13T14:54:15Z</time>
      </trkpt>
      <trkpt lat="45.48594" lon="4.6615">
        <ele>488.49</ele>
        <time>2013-04-13T14:54:23Z</time>
      </trkpt>
      <trkpt lat="45.48598" lon="4.66154">
        <ele>488.97</ele>
        <time>2013-04-13T14:54:24Z</time>
      </trkpt>
      <trkpt lat="45.486" lon="4.66158">
        <ele>488.49</ele>
        <time>2013-04-13T14:54:25Z</time>
      </trkpt>
      <trkpt lat="45.48623" lon="4.662">
        <ele>486.08</ele>
        <time>2013-04-13T14:54:33Z</time>
      </trkpt>
      <trkpt lat="45.48626" lon="4.6621">
        <ele>485.12</ele>
        <time>2013-04-13T14:54:35Z</time>
      </trkpt>
      <trkpt lat="45.48626" lon="4.66216">
        <ele>484.64</ele>
        <time>2013-04-13T14:54:36Z</time>
      </trkpt>
      <trkpt lat="45.48624" lon="4.66223">
        <ele>484.16</ele>
        <time>2013-04-13T14:54:37Z</time>
      </trkpt>
      <trkpt lat="45.48621" lon="4.66229">
        <ele>483.2</ele>
        <time>2013-04-13T14:54:38Z</time>
      </trkpt>
      <trkpt lat="45.48616" lon="4.66235">
        <ele>482.72</ele>
        <time>2013-04-13T14:54:39Z</time>
      </trkpt>
      <trkpt lat="45.48612" lon="4.66239">
        <ele>481.76</ele>
        <time>2013-04-13T14:54:40Z</time>
      </trkpt>
      <trkpt lat="45.48609" lon="4.66243">
        <ele>480.8</ele>
        <time>2013-04-13T14:54:41Z</time>
      </trkpt>
      <trkpt lat="45.48605" lon="4.66246">
        <ele>479.84</ele>
        <time>2013-04-13T14:54:42Z</time>
      </trkpt>
      <trkpt lat="45.48601" lon="4.66249">
        <ele>479.35</ele>
        <time>2013-04-13T14:54:43Z</time>
      </trkpt>
      <trkpt lat="45.48596" lon="4.66252">
        <ele>478.39</ele>
        <time>2013-04-13T14:54:44Z</time>
      </trkpt>
      <trkpt lat="45.48591" lon="4.66253">
        <ele>476.95</ele>
        <time>2013-04-13T14:54:45Z</time>
      </trkpt>
      <trkpt lat="45.48588" lon="4.66254">
        <ele>475.99</ele>
        <time>2013-04-13T14:54:46Z</time>
      </trkpt>
      <trkpt lat="45.48586" lon="4.66256">
        <ele>474.55</ele>
        <time>2013-04-13T14:54:47Z</time>
      </trkpt>
      <trkpt lat="45.48585" lon="4.66259">
        <ele>474.55</ele>
        <time>2013-04-13T14:54:48Z</time>
      </trkpt>
      <trkpt lat="45.48586" lon="4.66261">
        <ele>474.07</ele>
        <time>2013-04-13T14:54:49Z</time>
      </trkpt>
      <trkpt lat="45.48588" lon="4.66262">
        <ele>474.07</ele>
        <time>2013-04-13T14:54:50Z</time>
      </trkpt>
      <trkpt lat="45.48591" lon="4.66262">
        <ele>473.11</ele>
        <time>2013-04-13T14:54:51Z</time>
      </trkpt>
      <trkpt lat="45.48595" lon="4.66262">
        <ele>473.11</ele>
        <time>2013-04-13T14:54:52Z</time>
      </trkpt>
      <trkpt lat="45.48599" lon="4.66261">
        <ele>472.14</ele>
        <time>2013-04-13T14:54:53Z</time>
      </trkpt>
      <trkpt lat="45.48603" lon="4.66262">
        <ele>471.18</ele>
        <time>2013-04-13T14:54:54Z</time>
      </trkpt>
      <trkpt lat="45.48608" lon="4.66263">
        <ele>470.7</ele>
        <time>2013-04-13T14:54:55Z</time>
      </trkpt>
      <trkpt lat="45.48612" lon="4.66263">
        <ele>469.74</ele>
        <time>2013-04-13T14:54:56Z</time>
      </trkpt>
      <trkpt lat="45.48616" lon="4.66263">
        <ele>468.78</ele>
        <time>2013-04-13T14:54:57Z</time>
      </trkpt>
      <trkpt lat="45.48619" lon="4.66262">
        <ele>468.3</ele>
        <time>2013-04-13T14:54:58Z</time>
      </trkpt>
      <trkpt lat="45.48625" lon="4.66259">
        <ele>467.34</ele>
        <time>2013-04-13T14:55:00Z</time>
      </trkpt>
      <trkpt lat="45.48627" lon="4.66257">
        <ele>467.34</ele>
        <time>2013-04-13T14:55:01Z</time>
      </trkpt>
      <trkpt lat="45.48632" lon="4.66261">
        <ele>466.86</ele>
        <time>2013-04-13T14:55:11Z</time>
      </trkpt>
      <trkpt lat="45.48633" lon="4.66262">
        <ele>466.86</ele>
        <time>2013-04-13T14:55:12Z</time>
      </trkpt>
      <trkpt lat="45.48635" lon="4.66263">
        <ele>467.34</ele>
        <time>2013-04-13T14:55:13Z</time>
      </trkpt>
      <trkpt lat="45.48636" lon="4.66263">
        <ele>466.86</ele>
        <time>2013-04-13T14:55:14Z</time>
      </trkpt>
      <trkpt lat="45.48657" lon="4.66252">
        <ele>468.78</ele>
        <time>2013-04-13T14:55:27Z</time>
      </trkpt>
      <trkpt lat="45.48674" lon="4.66237">
        <ele>471.66</ele>
        <time>2013-04-13T14:55:43Z</time>
      </trkpt>
      <trkpt lat="45.48675" lon="4.66237">
        <ele>471.66</ele>
        <time>2013-04-13T14:55:44Z</time>
      </trkpt>
      <trkpt lat="45.48693" lon="4.66219">
        <ele>474.55</ele>
        <time>2013-04-13T14:56:00Z</time>
      </trkpt>
      <trkpt lat="45.48708" lon="4.66212">
        <ele>477.91</ele>
        <time>2013-04-13T14:56:12Z</time>
      </trkpt>
      <trkpt lat="45.48722" lon="4.66217">
        <ele>481.28</ele>
        <time>2013-04-13T14:56:24Z</time>
      </trkpt>
      <trkpt lat="45.48724" lon="4.66218">
        <ele>481.76</ele>
        <time>2013-04-13T14:56:26Z</time>
      </trkpt>
      <trkpt lat="45.48737" lon="4.66224">
        <ele>484.16</ele>
        <time>2013-04-13T14:56:39Z</time>
      </trkpt>
      <trkpt lat="45.48742" lon="4.66228">
        <ele>486.08</ele>
        <time>2013-04-13T14:56:45Z</time>
      </trkpt>
      <trkpt lat="45.48753" lon="4.66241">
        <ele>488.97</ele>
        <time>2013-04-13T14:56:59Z</time>
      </trkpt>
      <trkpt lat="45.48767" lon="4.66255">
        <ele>491.37</ele>
        <time>2013-04-13T14:57:15Z</time>
      </trkpt>
      <trkpt lat="45.48762" lon="4.66249">
        <ele>498.58</ele>
        <time>2013-04-13T15:00:32Z</time>
      </trkpt>
      <trkpt lat="45.48948" lon="4.66301">
        <ele>500.5</ele>
        <time>2013-04-13T15:01:00Z</time>
      </trkpt>
      <trkpt lat="45.48948" lon="4.66302">
        <ele>500.5</ele>
        <time>2013-04-13T15:01:29Z</time>
      </trkpt>
      <trkpt lat="45.4895" lon="4.66303">
        <ele>503.39</ele>
        <time>2013-04-13T15:01:50Z</time>
      </trkpt>
      <trkpt lat="45.48949" lon="4.66302">
        <ele>499.06</ele>
        <time>2013-04-13T15:01:59Z</time>
      </trkpt>
      <trkpt lat="45.4895" lon="4.66302">
        <ele>502.91</ele>
        <time>2013-04-13T15:02:01Z</time>
      </trkpt>
      <trkpt lat="45.48951" lon="4.66302">
        <ele>501.46</ele>
        <time>2013-04-13T15:02:13Z</time>
      </trkpt>
      <trkpt lat="45.48965" lon="4.66301">
        <ele>503.39</ele>
        <time>2013-04-13T15:02:27Z</time>
      </trkpt>
      <trkpt lat="45.48996" lon="4.66303">
        <ele>505.79</ele>
        <time>2013-04-13T15:02:46Z</time>
      </trkpt>
      <trkpt lat="45.49" lon="4.66305">
        <ele>507.23</ele>
        <time>2013-04-13T15:02:49Z</time>
      </trkpt>
      <trkpt lat="45.49023" lon="4.66315">
        <ele>509.64</ele>
        <time>2013-04-13T15:03:07Z</time>
      </trkpt>
      <trkpt lat="45.49036" lon="4.66326">
        <ele>512.52</ele>
        <time>2013-04-13T15:03:20Z</time>
      </trkpt>
      <trkpt lat="45.49055" lon="4.66346">
        <ele>515.4</ele>
        <time>2013-04-13T15:03:39Z</time>
      </trkpt>
      <trkpt lat="45.4907" lon="4.6636">
        <ele>518.77</ele>
        <time>2013-04-13T15:03:54Z</time>
      </trkpt>
      <trkpt lat="45.49094" lon="4.66368">
        <ele>518.77</ele>
        <time>2013-04-13T15:04:08Z</time>
      </trkpt>
      <trkpt lat="45.49146" lon="4.66383">
        <ele>520.69</ele>
        <time>2013-04-13T15:04:31Z</time>
      </trkpt>
      <trkpt lat="45.49195" lon="4.66398">
        <ele>522.61</ele>
        <time>2013-04-13T15:04:51Z</time>
      </trkpt>
      <trkpt lat="45.4924" lon="4.66411">
        <ele>523.09</ele>
        <time>2013-04-13T15:05:07Z</time>
      </trkpt>
      <trkpt lat="45.49258" lon="4.66442">
        <ele>521.65</ele>
        <time>2013-04-13T15:05:18Z</time>
      </trkpt>
      <trkpt lat="45.49249" lon="4.66505">
        <ele>523.58</ele>
        <time>2013-04-13T15:05:34Z</time>
      </trkpt>
      <trkpt lat="45.49245" lon="4.66565">
        <ele>526.46</ele>
        <time>2013-04-13T15:05:51Z</time>
      </trkpt>
      <trkpt lat="45.49245" lon="4.66571">
        <ele>526.94</ele>
        <time>2013-04-13T15:05:54Z</time>
      </trkpt>
      <trkpt lat="45.49245" lon="4.66575">
        <ele>526.94</ele>
        <time>2013-04-13T15:06:03Z</time>
      </trkpt>
      <trkpt lat="45.49244" lon="4.66576">
        <ele>526.94</ele>
        <time>2013-04-13T15:06:04Z</time>
      </trkpt>
      <trkpt lat="45.49244" lon="4.66578">
        <ele>526.94</ele>
        <time>2013-04-13T15:06:05Z</time>
      </trkpt>
      <trkpt lat="45.49242" lon="4.66617">
        <ele>529.82</ele>
        <time>2013-04-13T15:06:20Z</time>
      </trkpt>
      <trkpt lat="45.49241" lon="4.66648">
        <ele>532.23</ele>
        <time>2013-04-13T15:06:34Z</time>
      </trkpt>
      <trkpt lat="45.49242" lon="4.66683">
        <ele>535.59</ele>
        <time>2013-04-13T15:06:51Z</time>
      </trkpt>
      <trkpt lat="45.49241" lon="4.66702">
        <ele>537.03</ele>
        <time>2013-04-13T15:07:00Z</time>
      </trkpt>
      <trkpt lat="45.4924" lon="4.66704">
        <ele>537.51</ele>
        <time>2013-04-13T15:07:01Z</time>
      </trkpt>
      <trkpt lat="45.4924" lon="4.66706">
        <ele>537.03</ele>
        <time>2013-04-13T15:07:02Z</time>
      </trkpt>
      <trkpt lat="45.4924" lon="4.66708">
        <ele>537.51</ele>
        <time>2013-04-13T15:07:03Z</time>
      </trkpt>
      <trkpt lat="45.4924" lon="4.6671">
        <ele>537.99</ele>
        <time>2013-04-13T15:07:04Z</time>
      </trkpt>
      <trkpt lat="45.4924" lon="4.66713">
        <ele>537.99</ele>
        <time>2013-04-13T15:07:05Z</time>
      </trkpt>
      <trkpt lat="45.4924" lon="4.66745">
        <ele>540.88</ele>
        <time>2013-04-13T15:07:23Z</time>
      </trkpt>
      <trkpt lat="45.49239" lon="4.66772">
        <ele>543.76</ele>
        <time>2013-04-13T15:07:39Z</time>
      </trkpt>
      <trkpt lat="45.49239" lon="4.66786">
        <ele>545.69</ele>
        <time>2013-04-13T15:07:47Z</time>
      </trkpt>
      <trkpt lat="45.49239" lon="4.66788">
        <ele>546.17</ele>
        <time>2013-04-13T15:07:48Z</time>
      </trkpt>
      <trkpt lat="45.49236" lon="4.66816">
        <ele>549.05</ele>
        <time>2013-04-13T15:08:05Z</time>
      </trkpt>
      <trkpt lat="45.49234" lon="4.66839">
        <ele>551.93</ele>
        <time>2013-04-13T15:08:18Z</time>
      </trkpt>
      <trkpt lat="45.49231" lon="4.66867">
        <ele>554.34</ele>
        <time>2013-04-13T15:08:35Z</time>
      </trkpt>
      <trkpt lat="45.49227" lon="4.6689">
        <ele>557.7</ele>
        <time>2013-04-13T15:08:49Z</time>
      </trkpt>
      <trkpt lat="45.49219" lon="4.66926">
        <ele>560.59</ele>
        <time>2013-04-13T15:09:10Z</time>
      </trkpt>
      <trkpt lat="45.49203" lon="4.66959">
        <ele>562.51</ele>
        <time>2013-04-13T15:09:30Z</time>
      </trkpt>
      <trkpt lat="45.49189" lon="4.66995">
        <ele>565.39</ele>
        <time>2013-04-13T15:09:50Z</time>
      </trkpt>
      <trkpt lat="45.49178" lon="4.67026">
        <ele>568.76</ele>
        <time>2013-04-13T15:10:08Z</time>
      </trkpt>
      <trkpt lat="45.49165" lon="4.67053">
        <ele>571.64</ele>
        <time>2013-04-13T15:10:25Z</time>
      </trkpt>
      <trkpt lat="45.49159" lon="4.67063">
        <ele>572.6</ele>
        <time>2013-04-13T15:10:31Z</time>
      </trkpt>
      <trkpt lat="45.49159" lon="4.67065">
        <ele>573.08</ele>
        <time>2013-04-13T15:10:32Z</time>
      </trkpt>
      <trkpt lat="45.49158" lon="4.67066">
        <ele>573.08</ele>
        <time>2013-04-13T15:10:33Z</time>
      </trkpt>
      <trkpt lat="45.49157" lon="4.67067">
        <ele>573.08</ele>
        <time>2013-04-13T15:10:34Z</time>
      </trkpt>
      <trkpt lat="45.49156" lon="4.67069">
        <ele>573.08</ele>
        <time>2013-04-13T15:10:35Z</time>
      </trkpt>
      <trkpt lat="45.49155" lon="4.6707">
        <ele>573.56</ele>
        <time>2013-04-13T15:10:36Z</time>
      </trkpt>
      <trkpt lat="45.49152" lon="4.67076">
        <ele>573.56</ele>
        <time>2013-04-13T15:10:40Z</time>
      </trkpt>
      <trkpt lat="45.49151" lon="4.67078">
        <ele>574.04</ele>
        <time>2013-04-13T15:10:41Z</time>
      </trkpt>
      <trkpt lat="45.4915" lon="4.6708">
        <ele>574.04</ele>
        <time>2013-04-13T15:10:42Z</time>
      </trkpt>
      <trkpt lat="45.4915" lon="4.67082">
        <ele>573.56</ele>
        <time>2013-04-13T15:10:43Z</time>
      </trkpt>
      <trkpt lat="45.49151" lon="4.67084">
        <ele>574.04</ele>
        <time>2013-04-13T15:10:44Z</time>
      </trkpt>
      <trkpt lat="45.49151" lon="4.67086">
        <ele>574.04</ele>
        <time>2013-04-13T15:10:45Z</time>
      </trkpt>
      <trkpt lat="45.49152" lon="4.67088">
        <ele>574.53</ele>
        <time>2013-04-13T15:10:46Z</time>
      </trkpt>
      <trkpt lat="45.49154" lon="4.67089">
        <ele>574.04</ele>
        <time>2013-04-13T15:10:47Z</time>
      </trkpt>
      <trkpt lat="45.49155" lon="4.6709">
        <ele>574.53</ele>
        <time>2013-04-13T15:10:48Z</time>
      </trkpt>
      <trkpt lat="45.49156" lon="4.6709">
        <ele>574.53</ele>
        <time>2013-04-13T15:10:49Z</time>
      </trkpt>
      <trkpt lat="45.49158" lon="4.67091">
        <ele>574.53</ele>
        <time>2013-04-13T15:10:50Z</time>
      </trkpt>
      <trkpt lat="45.49159" lon="4.67091">
        <ele>575.01</ele>
        <time>2013-04-13T15:10:51Z</time>
      </trkpt>
      <trkpt lat="45.4916" lon="4.67091">
        <ele>575.01</ele>
        <time>2013-04-13T15:10:52Z</time>
      </trkpt>
      <trkpt lat="45.49161" lon="4.6709">
        <ele>575.01</ele>
        <time>2013-04-13T15:10:53Z</time>
      </trkpt>
      <trkpt lat="45.49163" lon="4.6709">
        <ele>574.53</ele>
        <time>2013-04-13T15:10:54Z</time>
      </trkpt>
      <trkpt lat="45.49164" lon="4.67091">
        <ele>575.01</ele>
        <time>2013-04-13T15:10:55Z</time>
      </trkpt>
      <trkpt lat="45.49166" lon="4.6709">
        <ele>575.01</ele>
        <time>2013-04-13T15:10:56Z</time>
      </trkpt>
      <trkpt lat="45.49167" lon="4.6709">
        <ele>575.49</ele>
        <time>2013-04-13T15:10:57Z</time>
      </trkpt>
      <trkpt lat="45.49169" lon="4.6709">
        <ele>575.49</ele>
        <time>2013-04-13T15:10:58Z</time>
      </trkpt>
      <trkpt lat="45.4917" lon="4.6709">
        <ele>575.49</ele>
        <time>2013-04-13T15:10:59Z</time>
      </trkpt>
      <trkpt lat="45.4917" lon="4.67088">
        <ele>575.49</ele>
        <time>2013-04-13T15:11:07Z</time>
      </trkpt>
      <trkpt lat="45.4917" lon="4.67089">
        <ele>575.01</ele>
        <time>2013-04-13T15:11:24Z</time>
      </trkpt>
      <trkpt lat="45.49171" lon="4.67089">
        <ele>575.49</ele>
        <time>2013-04-13T15:12:01Z</time>
      </trkpt>
      <trkpt lat="45.4917" lon="4.67089">
        <ele>575.97</ele>
        <time>2013-04-13T15:12:44Z</time>
      </trkpt>
      <trkpt lat="45.4917" lon="4.67091">
        <ele>575.97</ele>
        <time>2013-04-13T15:12:57Z</time>
      </trkpt>
      <trkpt lat="45.49172" lon="4.67093">
        <ele>575.97</ele>
        <time>2013-04-13T15:13:01Z</time>
      </trkpt>
      <trkpt lat="45.49173" lon="4.67094">
        <ele>575.49</ele>
        <time>2013-04-13T15:13:02Z</time>
      </trkpt>
      <trkpt lat="45.49175" lon="4.67095">
        <ele>575.49</ele>
        <time>2013-04-13T15:13:03Z</time>
      </trkpt>
      <trkpt lat="45.49176" lon="4.67096">
        <ele>575.49</ele>
        <time>2013-04-13T15:13:04Z</time>
      </trkpt>
      <trkpt lat="45.49178" lon="4.67097">
        <ele>575.49</ele>
        <time>2013-04-13T15:13:05Z</time>
      </trkpt>
      <trkpt lat="45.4918" lon="4.67098">
        <ele>575.49</ele>
        <time>2013-04-13T15:13:06Z</time>
      </trkpt>
      <trkpt lat="45.49182" lon="4.67099">
        <ele>575.97</ele>
        <time>2013-04-13T15:13:07Z</time>
      </trkpt>
      <trkpt lat="45.4921" lon="4.67131">
        <ele>575.97</ele>
        <time>2013-04-13T15:13:19Z</time>
      </trkpt>
      <trkpt lat="45.49226" lon="4.67151">
        <ele>575.97</ele>
        <time>2013-04-13T15:13:24Z</time>
      </trkpt>
      <trkpt lat="45.49283" lon="4.67205">
        <ele>577.89</ele>
        <time>2013-04-13T15:13:42Z</time>
      </trkpt>
      <trkpt lat="45.49319" lon="4.67235">
        <ele>580.29</ele>
        <time>2013-04-13T15:13:54Z</time>
      </trkpt>
      <trkpt lat="45.49357" lon="4.67276">
        <ele>581.25</ele>
        <time>2013-04-13T15:14:08Z</time>
      </trkpt>
      <trkpt lat="45.49374" lon="4.67318">
        <ele>582.7</ele>
        <time>2013-04-13T15:14:20Z</time>
      </trkpt>
      <trkpt lat="45.49383" lon="4.67375">
        <ele>580.29</ele>
        <time>2013-04-13T15:14:31Z</time>
      </trkpt>
      <trkpt lat="45.49384" lon="4.67399">
        <ele>578.85</ele>
        <time>2013-04-13T15:14:34Z</time>
      </trkpt>
      <trkpt lat="45.4938" lon="4.67435">
        <ele>578.37</ele>
        <time>2013-04-13T15:14:38Z</time>
      </trkpt>
      <trkpt lat="45.49374" lon="4.67453">
        <ele>577.89</ele>
        <time>2013-04-13T15:14:40Z</time>
      </trkpt>
      <trkpt lat="45.4937" lon="4.67461">
        <ele>576.93</ele>
        <time>2013-04-13T15:14:41Z</time>
      </trkpt>
      <trkpt lat="45.49365" lon="4.67469">
        <ele>576.45</ele>
        <time>2013-04-13T15:14:42Z</time>
      </trkpt>
      <trkpt lat="45.49361" lon="4.67477">
        <ele>575.49</ele>
        <time>2013-04-13T15:14:43Z</time>
      </trkpt>
      <trkpt lat="45.49357" lon="4.67487">
        <ele>574.53</ele>
        <time>2013-04-13T15:14:44Z</time>
      </trkpt>
      <trkpt lat="45.49355" lon="4.67498">
        <ele>574.04</ele>
        <time>2013-04-13T15:14:45Z</time>
      </trkpt>
      <trkpt lat="45.49354" lon="4.6751">
        <ele>573.56</ele>
        <time>2013-04-13T15:14:46Z</time>
      </trkpt>
      <trkpt lat="45.49354" lon="4.6752">
        <ele>572.12</ele>
        <time>2013-04-13T15:14:47Z</time>
      </trkpt>
      <trkpt lat="45.49355" lon="4.67528">
        <ele>571.64</ele>
        <time>2013-04-13T15:14:48Z</time>
      </trkpt>
      <trkpt lat="45.49358" lon="4.67552">
        <ele>567.8</ele>
        <time>2013-04-13T15:14:51Z</time>
      </trkpt>
      <trkpt lat="45.49359" lon="4.6756">
        <ele>566.83</ele>
        <time>2013-04-13T15:14:52Z</time>
      </trkpt>
      <trkpt lat="45.49359" lon="4.67567">
        <ele>566.83</ele>
        <time>2013-04-13T15:14:53Z</time>
      </trkpt>
      <trkpt lat="45.49359" lon="4.67573">
        <ele>566.83</ele>
        <time>2013-04-13T15:14:54Z</time>
      </trkpt>
      <trkpt lat="45.49376" lon="4.67618">
        <ele>564.91</ele>
        <time>2013-04-13T15:15:03Z</time>
      </trkpt>
      <trkpt lat="45.49405" lon="4.67656">
        <ele>561.07</ele>
        <time>2013-04-13T15:15:08Z</time>
      </trkpt>
      <trkpt lat="45.49424" lon="4.67684">
        <ele>556.74</ele>
        <time>2013-04-13T15:15:11Z</time>
      </trkpt>
      <trkpt lat="45.49452" lon="4.67724">
        <ele>551.93</ele>
        <time>2013-04-13T15:15:15Z</time>
      </trkpt>
      <trkpt lat="45.4947" lon="4.67751">
        <ele>548.09</ele>
        <time>2013-04-13T15:15:18Z</time>
      </trkpt>
      <trkpt lat="45.4948" lon="4.67767">
        <ele>545.69</ele>
        <time>2013-04-13T15:15:20Z</time>
      </trkpt>
      <trkpt lat="45.49483" lon="4.67775">
        <ele>545.69</ele>
        <time>2013-04-13T15:15:21Z</time>
      </trkpt>
      <trkpt lat="45.49485" lon="4.67784">
        <ele>544.24</ele>
        <time>2013-04-13T15:15:22Z</time>
      </trkpt>
      <trkpt lat="45.49491" lon="4.67803">
        <ele>541.84</ele>
        <time>2013-04-13T15:15:24Z</time>
      </trkpt>
      <trkpt lat="45.49497" lon="4.67813">
        <ele>540.4</ele>
        <time>2013-04-13T15:15:25Z</time>
      </trkpt>
      <trkpt lat="45.49503" lon="4.67821">
        <ele>538.96</ele>
        <time>2013-04-13T15:15:26Z</time>
      </trkpt>
      <trkpt lat="45.49509" lon="4.67827">
        <ele>537.99</ele>
        <time>2013-04-13T15:15:27Z</time>
      </trkpt>
      <trkpt lat="45.49516" lon="4.67832">
        <ele>537.03</ele>
        <time>2013-04-13T15:15:28Z</time>
      </trkpt>
      <trkpt lat="45.49543" lon="4.67855">
        <ele>533.67</ele>
        <time>2013-04-13T15:15:32Z</time>
      </trkpt>
      <trkpt lat="45.49563" lon="4.67873">
        <ele>528.86</ele>
        <time>2013-04-13T15:15:35Z</time>
      </trkpt>
      <trkpt lat="45.49569" lon="4.6788">
        <ele>526.94</ele>
        <time>2013-04-13T15:15:36Z</time>
      </trkpt>
      <trkpt lat="45.49593" lon="4.67912">
        <ele>523.09</ele>
        <time>2013-04-13T15:15:40Z</time>
      </trkpt>
      <trkpt lat="45.49616" lon="4.67941">
        <ele>519.25</ele>
        <time>2013-04-13T15:15:44Z</time>
      </trkpt>
      <trkpt lat="45.49627" lon="4.67956">
        <ele>516.85</ele>
        <time>2013-04-13T15:15:46Z</time>
      </trkpt>
      <trkpt lat="45.49631" lon="4.67964">
        <ele>514.92</ele>
        <time>2013-04-13T15:15:47Z</time>
      </trkpt>
      <trkpt lat="45.49634" lon="4.67973">
        <ele>513.48</ele>
        <time>2013-04-13T15:15:48Z</time>
      </trkpt>
      <trkpt lat="45.49634" lon="4.67983">
        <ele>512.04</ele>
        <time>2013-04-13T15:15:49Z</time>
      </trkpt>
      <trkpt lat="45.49634" lon="4.67992">
        <ele>511.08</ele>
        <time>2013-04-13T15:15:50Z</time>
      </trkpt>
      <trkpt lat="45.49636" lon="4.68006">
        <ele>508.67</ele>
        <time>2013-04-13T15:15:52Z</time>
      </trkpt>
      <trkpt lat="45.49638" lon="4.68011">
        <ele>507.71</ele>
        <time>2013-04-13T15:15:53Z</time>
      </trkpt>
      <trkpt lat="45.49641" lon="4.68016">
        <ele>507.23</ele>
        <time>2013-04-13T15:15:54Z</time>
      </trkpt>
      <trkpt lat="45.49643" lon="4.68021">
        <ele>507.71</ele>
        <time>2013-04-13T15:15:55Z</time>
      </trkpt>
      <trkpt lat="45.49645" lon="4.68026">
        <ele>506.75</ele>
        <time>2013-04-13T15:15:56Z</time>
      </trkpt>
      <trkpt lat="45.49647" lon="4.68032">
        <ele>506.27</ele>
        <time>2013-04-13T15:15:57Z</time>
      </trkpt>
      <trkpt lat="45.4965" lon="4.68036">
        <ele>505.79</ele>
        <time>2013-04-13T15:15:58Z</time>
      </trkpt>
      <trkpt lat="45.49672" lon="4.68084">
        <ele>506.75</ele>
        <time>2013-04-13T15:16:06Z</time>
      </trkpt>
      <trkpt lat="45.4968" lon="4.68134">
        <ele>508.67</ele>
        <time>2013-04-13T15:16:13Z</time>
      </trkpt>
      <trkpt lat="45.49679" lon="4.68197">
        <ele>510.6</ele>
        <time>2013-04-13T15:16:26Z</time>
      </trkpt>
      <trkpt lat="45.4968" lon="4.68215">
        <ele>510.12</ele>
        <time>2013-04-13T15:16:29Z</time>
      </trkpt>
      <trkpt lat="45.49681" lon="4.68222">
        <ele>509.64</ele>
        <time>2013-04-13T15:16:30Z</time>
      </trkpt>
      <trkpt lat="45.4968" lon="4.68229">
        <ele>509.64</ele>
        <time>2013-04-13T15:16:31Z</time>
      </trkpt>
      <trkpt lat="45.49679" lon="4.68236">
        <ele>508.67</ele>
        <time>2013-04-13T15:16:32Z</time>
      </trkpt>
      <trkpt lat="45.49678" lon="4.68241">
        <ele>508.19</ele>
        <time>2013-04-13T15:16:33Z</time>
      </trkpt>
      <trkpt lat="45.49671" lon="4.68275">
        <ele>505.31</ele>
        <time>2013-04-13T15:16:40Z</time>
      </trkpt>
      <trkpt lat="45.49661" lon="4.68325">
        <ele>502.43</ele>
        <time>2013-04-13T15:16:51Z</time>
      </trkpt>
      <trkpt lat="45.49664" lon="4.68329">
        <ele>502.91</ele>
        <time>2013-04-13T15:16:52Z</time>
      </trkpt>
      <trkpt lat="45.49668" lon="4.68333">
        <ele>502.91</ele>
        <time>2013-04-13T15:16:53Z</time>
      </trkpt>
      <trkpt lat="45.49674" lon="4.68335">
        <ele>503.39</ele>
        <time>2013-04-13T15:16:54Z</time>
      </trkpt>
      <trkpt lat="45.4968" lon="4.68336">
        <ele>503.87</ele>
        <time>2013-04-13T15:16:55Z</time>
      </trkpt>
      <trkpt lat="45.49686" lon="4.68337">
        <ele>503.87</ele>
        <time>2013-04-13T15:16:56Z</time>
      </trkpt>
      <trkpt lat="45.4972" lon="4.6835">
        <ele>501.95</ele>
        <time>2013-04-13T15:17:01Z</time>
      </trkpt>
      <trkpt lat="45.49757" lon="4.68371">
        <ele>501.46</ele>
        <time>2013-04-13T15:17:06Z</time>
      </trkpt>
      <trkpt lat="45.49765" lon="4.68376">
        <ele>500.5</ele>
        <time>2013-04-13T15:17:07Z</time>
      </trkpt>
      <trkpt lat="45.49773" lon="4.68382">
        <ele>500.02</ele>
        <time>2013-04-13T15:17:08Z</time>
      </trkpt>
      <trkpt lat="45.49782" lon="4.68385">
        <ele>498.58</ele>
        <time>2013-04-13T15:17:09Z</time>
      </trkpt>
      <trkpt lat="45.49792" lon="4.68386">
        <ele>497.62</ele>
        <time>2013-04-13T15:17:10Z</time>
      </trkpt>
      <trkpt lat="45.49802" lon="4.68385">
        <ele>497.62</ele>
        <time>2013-04-13T15:17:11Z</time>
      </trkpt>
      <trkpt lat="45.49812" lon="4.68383">
        <ele>497.62</ele>
        <time>2013-04-13T15:17:12Z</time>
      </trkpt>
      <trkpt lat="45.49845" lon="4.68378">
        <ele>496.18</ele>
        <time>2013-04-13T15:17:16Z</time>
      </trkpt>
      <trkpt lat="45.49851" lon="4.6838">
        <ele>494.26</ele>
        <time>2013-04-13T15:17:17Z</time>
      </trkpt>
      <trkpt lat="45.49862" lon="4.68387">
        <ele>493.29</ele>
        <time>2013-04-13T15:17:19Z</time>
      </trkpt>
      <trkpt lat="45.49867" lon="4.68391">
        <ele>493.77</ele>
        <time>2013-04-13T15:17:20Z</time>
      </trkpt>
      <trkpt lat="45.49872" lon="4.68395">
        <ele>493.77</ele>
        <time>2013-04-13T15:17:21Z</time>
      </trkpt>
      <trkpt lat="45.4989" lon="4.68416">
        <ele>494.26</ele>
        <time>2013-04-13T15:17:25Z</time>
      </trkpt>
      <trkpt lat="45.49939" lon="4.68499">
        <ele>497.62</ele>
        <time>2013-04-13T15:17:39Z</time>
      </trkpt>
      <trkpt lat="45.49968" lon="4.68549">
        <ele>497.62</ele>
        <time>2013-04-13T15:17:47Z</time>
      </trkpt>
      <trkpt lat="45.49975" lon="4.68563">
        <ele>497.62</ele>
        <time>2013-04-13T15:17:49Z</time>
      </trkpt>
      <trkpt lat="45.49988" lon="4.68581">
        <ele>498.1</ele>
        <time>2013-04-13T15:17:52Z</time>
      </trkpt>
      <trkpt lat="45.49992" lon="4.68587">
        <ele>498.1</ele>
        <time>2013-04-13T15:17:53Z</time>
      </trkpt>
      <trkpt lat="45.49996" lon="4.68592">
        <ele>498.1</ele>
        <time>2013-04-13T15:17:54Z</time>
      </trkpt>
      <trkpt lat="45.50065" lon="4.68669">
        <ele>496.66</ele>
        <time>2013-04-13T15:18:10Z</time>
      </trkpt>
      <trkpt lat="45.50125" lon="4.68716">
        <ele>494.26</ele>
        <time>2013-04-13T15:18:20Z</time>
      </trkpt>
      <trkpt lat="45.50133" lon="4.68719">
        <ele>493.29</ele>
        <time>2013-04-13T15:18:21Z</time>
      </trkpt>
      <trkpt lat="45.50141" lon="4.68722">
        <ele>492.81</ele>
        <time>2013-04-13T15:18:22Z</time>
      </trkpt>
      <trkpt lat="45.50149" lon="4.68726">
        <ele>492.81</ele>
        <time>2013-04-13T15:18:23Z</time>
      </trkpt>
      <trkpt lat="45.50157" lon="4.68731">
        <ele>491.37</ele>
        <time>2013-04-13T15:18:24Z</time>
      </trkpt>
      <trkpt lat="45.50165" lon="4.68737">
        <ele>490.41</ele>
        <time>2013-04-13T15:18:25Z</time>
      </trkpt>
      <trkpt lat="45.50189" lon="4.68761">
        <ele>488.49</ele>
        <time>2013-04-13T15:18:28Z</time>
      </trkpt>
      <trkpt lat="45.50211" lon="4.68788">
        <ele>487.05</ele>
        <time>2013-04-13T15:18:31Z</time>
      </trkpt>
      <trkpt lat="45.5023" lon="4.68815">
        <ele>483.68</ele>
        <time>2013-04-13T15:18:34Z</time>
      </trkpt>
      <trkpt lat="45.50235" lon="4.68819">
        <ele>482.72</ele>
        <time>2013-04-13T15:18:35Z</time>
      </trkpt>
      <trkpt lat="45.5024" lon="4.68818">
        <ele>482.24</ele>
        <time>2013-04-13T15:18:36Z</time>
      </trkpt>
      <trkpt lat="45.50243" lon="4.68814">
        <ele>482.24</ele>
        <time>2013-04-13T15:18:37Z</time>
      </trkpt>
      <trkpt lat="45.50244" lon="4.68806">
        <ele>481.76</ele>
        <time>2013-04-13T15:18:38Z</time>
      </trkpt>
      <trkpt lat="45.50244" lon="4.68798">
        <ele>481.28</ele>
        <time>2013-04-13T15:18:39Z</time>
      </trkpt>
      <trkpt lat="45.50242" lon="4.6879">
        <ele>480.8</ele>
        <time>2013-04-13T15:18:40Z</time>
      </trkpt>
      <trkpt lat="45.50241" lon="4.68783">
        <ele>480.8</ele>
        <time>2013-04-13T15:18:41Z</time>
      </trkpt>
      <trkpt lat="45.50239" lon="4.68767">
        <ele>479.84</ele>
        <time>2013-04-13T15:18:43Z</time>
      </trkpt>
      <trkpt lat="45.50239" lon="4.68759">
        <ele>479.35</ele>
        <time>2013-04-13T15:18:44Z</time>
      </trkpt>
      <trkpt lat="45.5024" lon="4.68753">
        <ele>478.87</ele>
        <time>2013-04-13T15:18:45Z</time>
      </trkpt>
      <trkpt lat="45.50243" lon="4.68749">
        <ele>478.39</ele>
        <time>2013-04-13T15:18:46Z</time>
      </trkpt>
      <trkpt lat="45.50247" lon="4.68748">
        <ele>477.91</ele>
        <time>2013-04-13T15:18:47Z</time>
      </trkpt>
      <trkpt lat="45.50251" lon="4.6875">
        <ele>476.95</ele>
        <time>2013-04-13T15:18:48Z</time>
      </trkpt>
      <trkpt lat="45.50257" lon="4.68753">
        <ele>475.51</ele>
        <time>2013-04-13T15:18:49Z</time>
      </trkpt>
      <trkpt lat="45.50264" lon="4.68757">
        <ele>475.03</ele>
        <time>2013-04-13T15:18:50Z</time>
      </trkpt>
      <trkpt lat="45.50279" lon="4.68762">
        <ele>474.07</ele>
        <time>2013-04-13T15:18:52Z</time>
      </trkpt>
      <trkpt lat="45.50286" lon="4.68768">
        <ele>472.63</ele>
        <time>2013-04-13T15:18:53Z</time>
      </trkpt>
      <trkpt lat="45.50293" lon="4.68776">
        <ele>472.14</ele>
        <time>2013-04-13T15:18:54Z</time>
      </trkpt>
      <trkpt lat="45.503" lon="4.68785">
        <ele>472.14</ele>
        <time>2013-04-13T15:18:55Z</time>
      </trkpt>
      <trkpt lat="45.50313" lon="4.68805">
        <ele>469.74</ele>
        <time>2013-04-13T15:18:57Z</time>
      </trkpt>
      <trkpt lat="45.50319" lon="4.68816">
        <ele>470.22</ele>
        <time>2013-04-13T15:18:58Z</time>
      </trkpt>
      <trkpt lat="45.50332" lon="4.68835">
        <ele>468.3</ele>
        <time>2013-04-13T15:19:00Z</time>
      </trkpt>
      <trkpt lat="45.50338" lon="4.68841">
        <ele>467.34</ele>
        <time>2013-04-13T15:19:01Z</time>
      </trkpt>
      <trkpt lat="45.50342" lon="4.68847">
        <ele>466.38</ele>
        <time>2013-04-13T15:19:02Z</time>
      </trkpt>
      <trkpt lat="45.50345" lon="4.68851">
        <ele>465.42</ele>
        <time>2013-04-13T15:19:03Z</time>
      </trkpt>
      <trkpt lat="45.50348" lon="4.68853">
        <ele>465.42</ele>
        <time>2013-04-13T15:19:04Z</time>
      </trkpt>
      <trkpt lat="45.50351" lon="4.68854">
        <ele>464.93</ele>
        <time>2013-04-13T15:19:05Z</time>
      </trkpt>
      <trkpt lat="45.50355" lon="4.68853">
        <ele>463.97</ele>
        <time>2013-04-13T15:19:06Z</time>
      </trkpt>
      <trkpt lat="45.5036" lon="4.68852">
        <ele>463.97</ele>
        <time>2013-04-13T15:19:07Z</time>
      </trkpt>
      <trkpt lat="45.5042" lon="4.68835">
        <ele>461.09</ele>
        <time>2013-04-13T15:19:16Z</time>
      </trkpt>
      <trkpt lat="45.50443" lon="4.68828">
        <ele>459.65</ele>
        <time>2013-04-13T15:19:19Z</time>
      </trkpt>
      <trkpt lat="45.5045" lon="4.68827">
        <ele>458.21</ele>
        <time>2013-04-13T15:19:20Z</time>
      </trkpt>
      <trkpt lat="45.5049" lon="4.68821">
        <ele>454.84</ele>
        <time>2013-04-13T15:19:29Z</time>
      </trkpt>
      <trkpt lat="45.50495" lon="4.68818">
        <ele>454.36</ele>
        <time>2013-04-13T15:19:30Z</time>
      </trkpt>
      <trkpt lat="45.505" lon="4.68813">
        <ele>454.84</ele>
        <time>2013-04-13T15:19:31Z</time>
      </trkpt>
      <trkpt lat="45.5053" lon="4.68781">
        <ele>451</ele>
        <time>2013-04-13T15:19:37Z</time>
      </trkpt>
      <trkpt lat="45.50533" lon="4.68779">
        <ele>450.03</ele>
        <time>2013-04-13T15:19:38Z</time>
      </trkpt>
      <trkpt lat="45.50537" lon="4.68779">
        <ele>450.03</ele>
        <time>2013-04-13T15:19:39Z</time>
      </trkpt>
      <trkpt lat="45.50541" lon="4.68782">
        <ele>450.03</ele>
        <time>2013-04-13T15:19:40Z</time>
      </trkpt>
      <trkpt lat="45.50547" lon="4.6879">
        <ele>450.03</ele>
        <time>2013-04-13T15:19:42Z</time>
      </trkpt>
      <trkpt lat="45.50547" lon="4.68792">
        <ele>450.03</ele>
        <time>2013-04-13T15:19:49Z</time>
      </trkpt>
    </trkseg>
  </trk>
</gpx>